Wetterdaten: Mittwoch, 12.12.2018
Datum Zeit Temp. A. Pool Temp. Temp. 5cm Feuchte A. Luftdruck Regen Wind Richtung Richtung Sonnenschein ET UV Solar Taupunkt Windchill Windben Empfang
12.12.2018 00:00 1,2 C 3,9 C 0,6 C 94 % 1019,5 hPa 0,0 l/m 17,5 km/h (3 Bft) SW 229 0 min 0,000 mm 0,0 UV-I 0 W/m 0,3 C -6,9 C 25,7 km/h (4 Bft) 100,00 %
12.12.2018 00:02 1,2 C 3,9 C 0,6 C 94 % 1019,6 hPa 0,0 l/m 11,3 km/h (2 Bft) W-SW 248 0 min 0,000 mm 0,0 UV-I 0 W/m 0,3 C -3,1 C 11,3 km/h (2 Bft) 97,22 %
12.12.2018 00:04 1,2 C 3,9 C 0,6 C 94 % 1019,5 hPa 0,0 l/m 15,3 km/h (3 Bft) SW 232 0 min 0,000 mm 0,0 UV-I 0 W/m 0,3 C -5,7 C 22,5 km/h (4 Bft) 97,92 %
12.12.2018 00:06 1,2 C 3,9 C 0,6 C 94 % 1019,5 hPa 0,0 l/m 19,9 km/h (4 Bft) W 265 0 min 0,000 mm 0,0 UV-I 0 W/m 0,3 C -8,0 C 29,0 km/h (5 Bft) 100,00 %
12.12.2018 00:08 1,2 C 3,9 C 0,6 C 94 % 1019,5 hPa 0,0 l/m 20,6 km/h (4 Bft) SW 233 0 min 0,000 mm 0,0 UV-I 0 W/m 0,3 C -8,3 C 25,7 km/h (4 Bft) 100,00 %
12.12.2018 00:10 1,2 C 3,9 C 0,6 C 94 % 1019,4 hPa 0,0 l/m 20,7 km/h (4 Bft) W-SW 241 0 min 0,000 mm 0,0 UV-I 0 W/m 0,3 C -8,4 C 32,2 km/h (5 Bft) 95,74 %
12.12.2018 00:12 1,2 C 3,9 C 0,6 C 94 % 1019,5 hPa 0,0 l/m 23,0 km/h (4 Bft) W-SW 256 0 min 0,000 mm 0,0 UV-I 0 W/m 0,3 C -9,3 C 32,2 km/h (5 Bft) 100,00 %
12.12.2018 00:14 1,1 C 3,9 C 0,6 C 94 % 1019,5 hPa 0,0 l/m 22,4 km/h (4 Bft) W-SW 244 0 min 0,000 mm 0,0 UV-I 0 W/m 0,2 C -9,2 C 32,2 km/h (5 Bft) 100,00 %
12.12.2018 00:16 1,1 C 3,9 C 0,6 C 94 % 1019,5 hPa 0,0 l/m 19,3 km/h (3 Bft) SW 225 0 min 0,000 mm 0,0 UV-I 0 W/m 0,2 C -7,9 C 27,4 km/h (4 Bft) 95,74 %
12.12.2018 00:18 1,1 C 3,9 C 0,6 C 94 % 1019,4 hPa 0,0 l/m 20,1 km/h (4 Bft) W 269 0 min 0,000 mm 0,0 UV-I 0 W/m 0,2 C -8,3 C 30,6 km/h (5 Bft) 89,36 %
12.12.2018 00:20 1,1 C 3,9 C 0,6 C 94 % 1019,4 hPa 0,0 l/m 25,5 km/h (4 Bft) W-SW 256 0 min 0,000 mm 0,0 UV-I 0 W/m 0,2 C -10,4 C 33,8 km/h (5 Bft) 95,74 %
12.12.2018 00:22 1,1 C 3,9 C 0,6 C 94 % 1019,4 hPa 0,0 l/m 23,6 km/h (4 Bft) W-SW 242 0 min 0,000 mm 0,0 UV-I 0 W/m 0,2 C -9,7 C 33,8 km/h (5 Bft) 95,74 %
12.12.2018 00:24 1,1 C 3,9 C 0,6 C 94 % 1019,4 hPa 0,0 l/m 26,4 km/h (4 Bft) SW 232 0 min 0,000 mm 0,0 UV-I 0 W/m 0,2 C -10,7 C 37,0 km/h (5 Bft) 97,87 %
12.12.2018 00:26 1,1 C 3,9 C 0,6 C 94 % 1019,4 hPa 0,0 l/m 21,6 km/h (4 Bft) W-SW 250 0 min 0,000 mm 0,0 UV-I 0 W/m 0,2 C -8,9 C 29,0 km/h (5 Bft) 95,74 %
12.12.2018 00:28 1,1 C 3,9 C 0,6 C 94 % 1019,4 hPa 0,0 l/m 17,5 km/h (3 Bft) W-SW 239 0 min 0,000 mm 0,0 UV-I 0 W/m 0,2 C -7,0 C 25,7 km/h (4 Bft) 97,87 %
12.12.2018 00:30 1,0 C 3,9 C 0,6 C 94 % 1019,4 hPa 0,0 l/m 23,4 km/h (4 Bft) SW 228 0 min 0,000 mm 0,0 UV-I 0 W/m 0,1 C -9,8 C 30,6 km/h (5 Bft) 97,87 %
12.12.2018 00:32 1,0 C 3,9 C 0,6 C 94 % 1019,4 hPa 0,0 l/m 24,9 km/h (4 Bft) W-SW 247 0 min 0,000 mm 0,0 UV-I 0 W/m 0,1 C -10,3 C 35,4 km/h (5 Bft) 95,74 %
12.12.2018 00:34 1,0 C 3,9 C 0,6 C 94 % 1019,4 hPa 0,0 l/m 21,9 km/h (4 Bft) W-SW 249 0 min 0,000 mm 0,0 UV-I 0 W/m 0,1 C -9,2 C 30,6 km/h (5 Bft) 97,87 %
12.12.2018 00:36 1,0 C 3,9 C 0,0 C 94 % 1019,4 hPa 0,0 l/m 22,6 km/h (4 Bft) W-SW 243 0 min 0,000 mm 0,0 UV-I 0 W/m 0,1 C -9,4 C 35,4 km/h (5 Bft) 100,00 %
12.12.2018 00:38 1,0 C 3,9 C 0,0 C 94 % 1019,4 hPa 0,0 l/m 22,2 km/h (4 Bft) SW 234 0 min 0,000 mm 0,0 UV-I 0 W/m 0,1 C -9,3 C 32,2 km/h (5 Bft) 95,74 %
12.12.2018 00:40 0,9 C 3,9 C 0,6 C 94 % 1019,4 hPa 0,0 l/m 19,8 km/h (3 Bft) W-SW 240 0 min 0,000 mm 0,0 UV-I 0 W/m 0,0 C -8,4 C 29,0 km/h (5 Bft) 98,00 %
12.12.2018 00:42 0,9 C 3,9 C 0,6 C 94 % 1019,3 hPa 0,0 l/m 23,2 km/h (4 Bft) W-SW 252 0 min 0,000 mm 0,0 UV-I 0 W/m 0,0 C -9,8 C 33,8 km/h (5 Bft) 100,00 %
12.12.2018 00:44 0,9 C 3,9 C 0,6 C 94 % 1019,3 hPa 0,0 l/m 22,2 km/h (4 Bft) W-SW 240 0 min 0,000 mm 0,0 UV-I 0 W/m 0,0 C -9,4 C 29,0 km/h (5 Bft) 100,00 %
12.12.2018 00:46 0,9 C 3,9 C 0,6 C 94 % 1019,3 hPa 0,0 l/m 20,4 km/h (4 Bft) SW 221 0 min 0,000 mm 0,0 UV-I 0 W/m 0,0 C -8,6 C 27,4 km/h (4 Bft) 100,00 %
12.12.2018 00:48 0,9 C 3,9 C 0,6 C 94 % 1019,3 hPa 0,2 l/m 24,4 km/h (4 Bft) W-SW 238 0 min 0,000 mm 0,0 UV-I 0 W/m 0,0 C -10,3 C 35,4 km/h (5 Bft) 100,00 %
12.12.2018 00:50 0,9 C 3,9 C 0,6 C 94 % 1019,3 hPa 0,0 l/m 22,4 km/h (4 Bft) W-SW 241 0 min 0,000 mm 0,0 UV-I 0 W/m 0,0 C -9,5 C 29,0 km/h (5 Bft) 97,87 %
12.12.2018 00:52 0,9 C 3,9 C 0,6 C 94 % 1019,2 hPa 0,0 l/m 22,5 km/h (4 Bft) SW 225 0 min 0,000 mm 0,0 UV-I 0 W/m 0,0 C -9,5 C 32,2 km/h (5 Bft) 97,87 %
12.12.2018 00:54 0,9 C 3,9 C 0,6 C 94 % 1019,2 hPa 0,0 l/m 22,8 km/h (4 Bft) W-SW 250 0 min 0,000 mm 0,0 UV-I 0 W/m 0,0 C -9,7 C 33,8 km/h (5 Bft) 97,87 %
12.12.2018 00:56 0,9 C 3,9 C 0,6 C 95 % 1019,2 hPa 0,0 l/m 21,5 km/h (4 Bft) W-SW 252 0 min 0,000 mm 0,0 UV-I 0 W/m 0,2 C -9,1 C 30,6 km/h (5 Bft) 97,87 %
12.12.2018 00:58 0,9 C 3,9 C 0,6 C 95 % 1019,3 hPa 0,0 l/m 25,5 km/h (4 Bft) SW 223 0 min 0,000 mm 0,0 UV-I 0 W/m 0,2 C -10,7 C 35,4 km/h (5 Bft) 97,87 %
12.12.2018 01:00 0,9 C 3,9 C 0,6 C 95 % 1019,3 hPa 0,0 l/m 19,9 km/h (4 Bft) W-SW 244 0 min 0,000 mm 0,0 UV-I 0 W/m 0,2 C -8,4 C 27,4 km/h (4 Bft) 91,49 %
12.12.2018 01:02 0,9 C 3,9 C 0,6 C 95 % 1019,3 hPa 0,0 l/m 22,7 km/h (4 Bft) W-SW 239 0 min 0,000 mm 0,0 UV-I 0 W/m 0,2 C -9,6 C 33,8 km/h (5 Bft) 95,74 %
12.12.2018 01:04 0,9 C 3,9 C 0,6 C 95 % 1019,3 hPa 0,0 l/m 21,7 km/h (4 Bft) SW 228 0 min 0,000 mm 0,0 UV-I 0 W/m 0,2 C -9,2 C 27,4 km/h (4 Bft) 95,74 %
12.12.2018 01:06 0,9 C 3,9 C 0,6 C 95 % 1019,3 hPa 0,0 l/m 16,8 km/h (3 Bft) W-SW 247 0 min 0,000 mm 0,0 UV-I 0 W/m 0,2 C -6,9 C 29,0 km/h (5 Bft) 95,74 %
12.12.2018 01:08 0,9 C 3,9 C 0,6 C 95 % 1019,3 hPa 0,0 l/m 20,0 km/h (4 Bft) W-SW 252 0 min 0,000 mm 0,0 UV-I 0 W/m 0,2 C -8,5 C 29,0 km/h (5 Bft) 97,87 %
12.12.2018 01:10 0,9 C 3,9 C 0,6 C 95 % 1019,3 hPa 0,0 l/m 24,3 km/h (4 Bft) W-SW 250 0 min 0,000 mm 0,0 UV-I 0 W/m 0,2 C -10,2 C 35,4 km/h (5 Bft) 97,87 %
12.12.2018 01:12 0,9 C 3,9 C 0,6 C 95 % 1019,3 hPa 0,0 l/m 16,9 km/h (3 Bft) SW 217 0 min 0,000 mm 0,0 UV-I 0 W/m 0,2 C -6,9 C 30,6 km/h (5 Bft) 97,87 %
12.12.2018 01:14 0,9 C 3,9 C 0,6 C 94 % 1019,3 hPa 0,0 l/m 16,0 km/h (3 Bft) W-SW 247 0 min 0,000 mm 0,0 UV-I 0 W/m 0,0 C -6,5 C 22,5 km/h (4 Bft) 98,00 %
12.12.2018 01:16 0,9 C 3,9 C 0,6 C 94 % 1019,3 hPa 0,0 l/m 22,4 km/h (4 Bft) SW 221 0 min 0,000 mm 0,0 UV-I 0 W/m 0,0 C -9,5 C 35,4 km/h (5 Bft) 97,14 %
12.12.2018 01:18 0,9 C 3,9 C 0,6 C 95 % 1019,3 hPa 0,0 l/m 17,4 km/h (3 Bft) W-SW 244 0 min 0,000 mm 0,0 UV-I 0 W/m 0,2 C -7,2 C 24,1 km/h (4 Bft) 95,74 %
12.12.2018 01:20 0,9 C 3,9 C 0,6 C 95 % 1019,3 hPa 0,0 l/m 21,3 km/h (4 Bft) SW 235 0 min 0,000 mm 0,0 UV-I 0 W/m 0,2 C -9,0 C 30,6 km/h (5 Bft) 95,83 %
12.12.2018 01:22 0,9 C 3,9 C 0,6 C 95 % 1019,3 hPa 0,0 l/m 22,3 km/h (4 Bft) W 267 0 min 0,000 mm 0,0 UV-I 0 W/m 0,2 C -9,5 C 32,2 km/h (5 Bft) 95,74 %
12.12.2018 01:24 0,9 C 3,9 C 0,6 C 95 % 1019,4 hPa 0,0 l/m 15,3 km/h (3 Bft) W-SW 245 0 min 0,000 mm 0,0 UV-I 0 W/m 0,2 C -6,1 C 25,7 km/h (4 Bft) 98,00 %
12.12.2018 01:26 0,9 C 3,9 C 0,6 C 95 % 1019,3 hPa 0,0 l/m 18,4 km/h (3 Bft) SW 234 0 min 0,000 mm 0,0 UV-I 0 W/m 0,2 C -7,7 C 25,7 km/h (4 Bft) 93,62 %
12.12.2018 01:28 0,8 C 3,9 C 0,6 C 95 % 1019,3 hPa 0,0 l/m 18,8 km/h (3 Bft) W-SW 248 0 min 0,000 mm 0,0 UV-I 0 W/m 0,1 C -8,0 C 25,7 km/h (4 Bft) 100,00 %
12.12.2018 01:30 0,9 C 3,9 C 0,6 C 95 % 1019,4 hPa 0,0 l/m 16,9 km/h (3 Bft) W-SW 238 0 min 0,000 mm 0,0 UV-I 0 W/m 0,2 C -6,9 C 32,2 km/h (5 Bft) 97,87 %
12.12.2018 01:32 0,8 C 3,9 C 0,6 C 95 % 1019,4 hPa 0,0 l/m 18,6 km/h (3 Bft) W-SW 250 0 min 0,000 mm 0,0 UV-I 0 W/m 0,1 C -7,9 C 25,7 km/h (4 Bft) 95,74 %
12.12.2018 01:34 0,8 C 3,9 C 0,6 C 95 % 1019,4 hPa 0,0 l/m 16,1 km/h (3 Bft) SW 227 0 min 0,000 mm 0,0 UV-I 0 W/m 0,1 C -6,6 C 25,7 km/h (4 Bft) 97,87 %
12.12.2018 01:36 0,8 C 3,9 C 0,6 C 95 % 1019,4 hPa 0,0 l/m 18,1 km/h (3 Bft) W 261 0 min 0,000 mm 0,0 UV-I 0 W/m 0,1 C -7,7 C 27,4 km/h (4 Bft) 97,87 %
12.12.2018 01:38 0,8 C 3,9 C 0,6 C 95 % 1019,4 hPa 0,0 l/m 17,7 km/h (3 Bft) SW 227 0 min 0,000 mm 0,0 UV-I 0 W/m 0,1 C -7,5 C 24,1 km/h (4 Bft) 95,74 %
12.12.2018 01:40 0,8 C 3,9 C 0,6 C 95 % 1019,4 hPa 0,0 l/m 20,1 km/h (4 Bft) W 260 0 min 0,000 mm 0,0 UV-I 0 W/m 0,1 C -8,6 C 29,0 km/h (5 Bft) 97,87 %
12.12.2018 01:42 0,8 C 3,9 C 0,6 C 95 % 1019,4 hPa 0,0 l/m 18,2 km/h (3 Bft) W 275 0 min 0,000 mm 0,0 UV-I 0 W/m 0,1 C -7,7 C 29,0 km/h (5 Bft) 97,87 %
12.12.2018 01:44 0,8 C 3,9 C 0,6 C 95 % 1019,4 hPa 0,0 l/m 14,3 km/h (3 Bft) SW 231 0 min 0,000 mm 0,0 UV-I 0 W/m 0,1 C -5,6 C 22,5 km/h (4 Bft) 93,62 %
12.12.2018 01:46 0,8 C 3,9 C 0,6 C 95 % 1019,4 hPa 0,0 l/m 17,0 km/h (3 Bft) W-NW 294 0 min 0,000 mm 0,0 UV-I 0 W/m 0,1 C -7,1 C 24,1 km/h (4 Bft) 94,00 %
12.12.2018 01:48 0,8 C 3,9 C 0,6 C 95 % 1019,4 hPa 0,0 l/m 13,0 km/h (3 Bft) W 267 0 min 0,000 mm 0,0 UV-I 0 W/m 0,1 C -4,8 C 17,7 km/h (3 Bft) 97,87 %
12.12.2018 01:50 0,8 C 3,9 C 0,6 C 95 % 1019,4 hPa 0,0 l/m 15,7 km/h (3 Bft) SW 227 0 min 0,000 mm 0,0 UV-I 0 W/m 0,1 C -6,4 C 24,1 km/h (4 Bft) 97,87 %
12.12.2018 01:52 0,8 C 3,9 C 0,6 C 95 % 1019,4 hPa 0,0 l/m 18,2 km/h (3 Bft) SW 236 0 min 0,000 mm 0,0 UV-I 0 W/m 0,1 C -7,7 C 25,7 km/h (4 Bft) 100,00 %
12.12.2018 01:54 0,8 C 3,9 C 0,6 C 95 % 1019,4 hPa 0,0 l/m 19,5 km/h (3 Bft) W 259 0 min 0,000 mm 0,0 UV-I 0 W/m 0,1 C -8,4 C 32,2 km/h (5 Bft) 94,00 %
12.12.2018 01:56 0,8 C 3,9 C 0,6 C 95 % 1019,4 hPa 0,0 l/m 17,9 km/h (3 Bft) SW 232 0 min 0,000 mm 0,0 UV-I 0 W/m 0,1 C -7,6 C 24,1 km/h (4 Bft) 100,00 %
12.12.2018 01:58 0,8 C 3,9 C 0,6 C 95 % 1019,4 hPa 0,0 l/m 15,6 km/h (3 Bft) W-SW 247 0 min 0,000 mm 0,0 UV-I 0 W/m 0,1 C -6,4 C 20,9 km/h (4 Bft) 100,00 %
12.12.2018 02:00 0,8 C 3,9 C 0,6 C 95 % 1019,5 hPa 0,0 l/m 18,4 km/h (3 Bft) SW 236 0 min 0,000 mm 0,0 UV-I 0 W/m 0,1 C -7,8 C 25,7 km/h (4 Bft) 100,00 %
12.12.2018 02:02 0,8 C 3,9 C 0,0 C 95 % 1019,5 hPa 0,0 l/m 18,0 km/h (3 Bft) W-NW 291 0 min 0,000 mm 0,0 UV-I 0 W/m 0,1 C -7,6 C 29,0 km/h (5 Bft) 100,00 %
12.12.2018 02:04 0,8 C 3,9 C 0,0 C 95 % 1019,5 hPa 0,0 l/m 15,9 km/h (3 Bft) SW 215 0 min 0,000 mm 0,0 UV-I 0 W/m 0,1 C -6,5 C 27,4 km/h (4 Bft) 100,00 %
12.12.2018 02:06 0,8 C 3,9 C 0,6 C 95 % 1019,5 hPa 0,0 l/m 19,2 km/h (3 Bft) W 277 0 min 0,000 mm 0,0 UV-I 0 W/m 0,1 C -8,2 C 27,4 km/h (4 Bft) 100,00 %
12.12.2018 02:08 0,8 C 3,9 C 0,6 C 95 % 1019,5 hPa 0,0 l/m 20,9 km/h (4 Bft) W 277 0 min 0,000 mm 0,0 UV-I 0 W/m 0,1 C -9,0 C 32,2 km/h (5 Bft) 100,00 %
12.12.2018 02:10 0,8 C 3,9 C 0,6 C 95 % 1019,6 hPa 0,0 l/m 17,9 km/h (3 Bft) SW 235 0 min 0,000 mm 0,0 UV-I 0 W/m 0,1 C -7,6 C 25,7 km/h (4 Bft) 91,49 %
12.12.2018 02:12 0,8 C 3,9 C 0,6 C 95 % 1019,5 hPa 0,0 l/m 18,6 km/h (3 Bft) W 261 0 min 0,000 mm 0,0 UV-I 0 W/m 0,1 C -7,9 C 29,0 km/h (5 Bft) 97,37 %
12.12.2018 02:14 0,7 C 3,9 C 0,0 C 95 % 1019,5 hPa 0,0 l/m 19,3 km/h (3 Bft) W 262 0 min 0,000 mm 0,0 UV-I 0 W/m -0,0 C -8,4 C 33,8 km/h (5 Bft) 96,61 %
12.12.2018 02:16 0,7 C 3,9 C 0,6 C 95 % 1019,6 hPa 0,0 l/m 18,1 km/h (3 Bft) SW 233 0 min 0,000 mm 0,0 UV-I 0 W/m -0,0 C -7,8 C 24,1 km/h (4 Bft) 97,14 %
12.12.2018 02:18 0,7 C 3,9 C 0,0 C 95 % 1019,6 hPa 0,0 l/m 19,3 km/h (3 Bft) W-NW 302 0 min 0,000 mm 0,0 UV-I 0 W/m -0,0 C -8,4 C 25,7 km/h (4 Bft) 95,74 %
12.12.2018 02:20 0,8 C 3,9 C 0,0 C 95 % 1019,6 hPa 0,0 l/m 16,3 km/h (3 Bft) W-SW 252 0 min 0,000 mm 0,0 UV-I 0 W/m 0,1 C -6,8 C 24,1 km/h (4 Bft) 100,00 %
12.12.2018 02:22 0,7 C 3,9 C 0,0 C 95 % 1019,6 hPa 0,0 l/m 20,2 km/h (4 Bft) W-SW 238 0 min 0,000 mm 0,0 UV-I 0 W/m -0,0 C -8,8 C 29,0 km/h (5 Bft) 98,00 %
12.12.2018 02:24 0,7 C 3,9 C 0,0 C 95 % 1019,6 hPa 0,0 l/m 16,9 km/h (3 Bft) SW 223 0 min 0,000 mm 0,0 UV-I 0 W/m -0,0 C -7,2 C 22,5 km/h (4 Bft) 97,87 %
12.12.2018 02:26 0,7 C 3,9 C 0,0 C 95 % 1019,6 hPa 0,0 l/m 19,0 km/h (3 Bft) W-SW 244 0 min 0,000 mm 0,0 UV-I 0 W/m -0,0 C -8,3 C 25,7 km/h (4 Bft) 97,92 %
12.12.2018 02:28 0,7 C 3,9 C 0,0 C 95 % 1019,6 hPa 0,0 l/m 18,0 km/h (3 Bft) W-SW 245 0 min 0,000 mm 0,0 UV-I 0 W/m -0,0 C -7,8 C 25,7 km/h (4 Bft) 97,37 %
12.12.2018 02:30 0,7 C 3,9 C 0,0 C 95 % 1019,6 hPa 0,0 l/m 17,7 km/h (3 Bft) W 265 0 min 0,000 mm 0,0 UV-I 0 W/m -0,0 C -7,6 C 24,1 km/h (4 Bft) 98,00 %
12.12.2018 02:32 0,7 C 3,9 C 0,0 C 95 % 1019,6 hPa 0,0 l/m 15,9 km/h (3 Bft) W 271 0 min 0,000 mm 0,0 UV-I 0 W/m -0,0 C -6,7 C 24,1 km/h (4 Bft) 96,00 %
12.12.2018 02:34 0,7 C 3,9 C 0,0 C 95 % 1019,6 hPa 0,0 l/m 18,7 km/h (3 Bft) W-SW 240 0 min 0,000 mm 0,0 UV-I 0 W/m -0,0 C -8,1 C 29,0 km/h (5 Bft) 95,74 %
12.12.2018 02:36 0,7 C 3,9 C 0,0 C 95 % 1019,6 hPa 0,0 l/m 18,6 km/h (3 Bft) W-SW 251 0 min 0,000 mm 0,0 UV-I 0 W/m -0,0 C -8,1 C 29,0 km/h (5 Bft) 97,92 %
12.12.2018 02:38 0,7 C 3,9 C 0,0 C 95 % 1019,6 hPa 0,0 l/m 17,1 km/h (3 Bft) W-SW 240 0 min 0,000 mm 0,0 UV-I 0 W/m -0,0 C -7,3 C 25,7 km/h (4 Bft) 97,87 %
12.12.2018 02:40 0,6 C 3,9 C 0,0 C 95 % 1019,6 hPa 0,2 l/m 17,8 km/h (3 Bft) SW 225 0 min 0,000 mm 0,0 UV-I 0 W/m -0,1 C -7,8 C 32,2 km/h (5 Bft) 97,22 %
12.12.2018 02:42 0,6 C 3,9 C 0,0 C 96 % 1019,7 hPa 0,0 l/m 16,5 km/h (3 Bft) W-SW 243 0 min 0,000 mm 0,0 UV-I 0 W/m 0,0 C -7,1 C 24,1 km/h (4 Bft) 96,00 %
12.12.2018 02:44 0,6 C 3,9 C 0,0 C 96 % 1019,6 hPa 0,0 l/m 17,1 km/h (3 Bft) W-SW 246 0 min 0,000 mm 0,0 UV-I 0 W/m 0,0 C -7,4 C 25,7 km/h (4 Bft) 93,62 %
12.12.2018 02:46 0,6 C 3,9 C 0,0 C 96 % 1019,7 hPa 0,0 l/m 21,1 km/h (4 Bft) W-SW 240 0 min 0,000 mm 0,0 UV-I 0 W/m 0,0 C -9,3 C 29,0 km/h (5 Bft) 93,75 %
12.12.2018 02:48 0,6 C 3,9 C 0,0 C 96 % 1019,6 hPa 0,0 l/m 20,5 km/h (4 Bft) SW 227 0 min 0,000 mm 0,0 UV-I 0 W/m 0,0 C -9,1 C 32,2 km/h (5 Bft) 93,62 %
12.12.2018 02:50 0,6 C 3,9 C 0,0 C 96 % 1019,6 hPa 0,0 l/m 17,7 km/h (3 Bft) W-SW 238 0 min 0,000 mm 0,0 UV-I 0 W/m 0,0 C -7,7 C 29,0 km/h (5 Bft) 95,74 %
12.12.2018 02:52 0,6 C 3,9 C 0,0 C 96 % 1019,7 hPa 0,0 l/m 16,9 km/h (3 Bft) W-SW 237 0 min 0,000 mm 0,0 UV-I 0 W/m 0,0 C -7,3 C 24,1 km/h (4 Bft) 95,74 %
12.12.2018 02:54 0,6 C 3,9 C 0,0 C 96 % 1019,6 hPa 0,0 l/m 16,1 km/h (3 Bft) W 265 0 min 0,000 mm 0,0 UV-I 0 W/m 0,0 C -6,9 C 27,4 km/h (4 Bft) 91,49 %
12.12.2018 02:56 0,6 C 3,9 C 0,0 C 96 % 1019,6 hPa 0,0 l/m 18,2 km/h (3 Bft) SW 235 0 min 0,000 mm 0,0 UV-I 0 W/m 0,0 C -8,0 C 29,0 km/h (5 Bft) 91,49 %
12.12.2018 02:58 0,6 C 3,9 C 0,0 C 96 % 1019,6 hPa 0,0 l/m 15,3 km/h (3 Bft) W 260 0 min 0,000 mm 0,0 UV-I 0 W/m 0,0 C -6,4 C 24,1 km/h (4 Bft) 91,49 %
12.12.2018 03:00 0,6 C 3,9 C 0,0 C 96 % 1019,6 hPa 0,0 l/m 16,2 km/h (3 Bft) SW 217 0 min 0,000 mm 0,0 UV-I 0 W/m 0,0 C -6,9 C 24,1 km/h (4 Bft) 94,00 %
12.12.2018 03:02 0,6 C 3,9 C 0,0 C 96 % 1019,6 hPa 0,0 l/m 12,7 km/h (3 Bft) SW 235 0 min 0,000 mm 0,0 UV-I 0 W/m 0,0 C -4,8 C 17,7 km/h (3 Bft) 91,49 %
12.12.2018 03:04 0,6 C 3,9 C 0,0 C 96 % 1019,6 hPa 0,0 l/m 15,4 km/h (3 Bft) W-SW 250 0 min 0,000 mm 0,0 UV-I 0 W/m 0,0 C -6,5 C 25,7 km/h (4 Bft) 93,62 %
12.12.2018 03:06 0,6 C 3,9 C 0,0 C 96 % 1019,7 hPa 0,0 l/m 18,4 km/h (3 Bft) W-SW 249 0 min 0,000 mm 0,0 UV-I 0 W/m 0,0 C -8,1 C 25,7 km/h (4 Bft) 95,74 %
12.12.2018 03:08 0,6 C 3,9 C 0,0 C 96 % 1019,6 hPa 0,2 l/m 16,6 km/h (3 Bft) SW 223 0 min 0,000 mm 0,0 UV-I 0 W/m 0,0 C -7,2 C 27,4 km/h (4 Bft) 95,74 %
12.12.2018 03:10 0,6 C 3,9 C 0,0 C 96 % 1019,6 hPa 0,0 l/m 17,1 km/h (3 Bft) W 263 0 min 0,000 mm 0,0 UV-I 0 W/m 0,0 C -7,4 C 22,5 km/h (4 Bft) 93,62 %
12.12.2018 03:12 0,6 C 3,9 C 0,0 C 96 % 1019,5 hPa 0,0 l/m 22,2 km/h (4 Bft) W 277 0 min 0,000 mm 0,0 UV-I 0 W/m 0,0 C -9,8 C 32,2 km/h (5 Bft) 93,62 %
12.12.2018 03:14 0,6 C 3,9 C 0,0 C 96 % 1019,6 hPa 0,0 l/m 19,3 km/h (3 Bft) SW 225 0 min 0,000 mm 0,0 UV-I 0 W/m 0,0 C -8,5 C 27,4 km/h (4 Bft) 93,62 %
12.12.2018 03:16 0,6 C 3,9 C 0,0 C 96 % 1019,6 hPa 0,0 l/m 19,9 km/h (4 Bft) W-SW 254 0 min 0,000 mm 0,0 UV-I 0 W/m 0,0 C -8,8 C 27,4 km/h (4 Bft) 95,74 %
12.12.2018 03:18 0,6 C 3,9 C 0,0 C 96 % 1019,6 hPa 0,0 l/m 17,5 km/h (3 Bft) W-SW 238 0 min 0,000 mm 0,0 UV-I 0 W/m 0,0 C -7,6 C 24,1 km/h (4 Bft) 93,62 %
12.12.2018 03:20 0,6 C 3,9 C 0,0 C 96 % 1019,6 hPa 0,0 l/m 19,5 km/h (3 Bft) W-SW 239 0 min 0,000 mm 0,0 UV-I 0 W/m 0,0 C -8,6 C 29,0 km/h (5 Bft) 97,22 %
12.12.2018 03:22 0,6 C 3,9 C 0,0 C 96 % 1019,6 hPa 0,0 l/m 22,0 km/h (4 Bft) W 267 0 min 0,000 mm 0,0 UV-I 0 W/m 0,0 C -9,7 C 33,8 km/h (5 Bft) 94,23 %
12.12.2018 03:24 0,6 C 3,9 C 0,0 C 96 % 1019,6 hPa 0,0 l/m 15,7 km/h (3 Bft) W-SW 241 0 min 0,000 mm 0,0 UV-I 0 W/m 0,0 C -6,7 C 20,9 km/h (4 Bft) 97,87 %
12.12.2018 03:26 0,6 C 3,9 C 0,0 C 96 % 1019,6 hPa 0,0 l/m 17,7 km/h (3 Bft) SW 233 0 min 0,000 mm 0,0 UV-I 0 W/m 0,0 C -7,7 C 29,0 km/h (5 Bft) 96,00 %
12.12.2018 03:28 0,6 C 3,9 C 0,0 C 96 % 1019,6 hPa 0,0 l/m 17,6 km/h (3 Bft) W 259 0 min 0,000 mm 0,0 UV-I 0 W/m 0,0 C -7,7 C 25,7 km/h (4 Bft) 98,00 %
12.12.2018 03:30 0,7 C 3,9 C 0,0 C 96 % 1019,6 hPa 0,0 l/m 19,2 km/h (3 Bft) SW 235 0 min 0,000 mm 0,0 UV-I 0 W/m 0,1 C -8,4 C 27,4 km/h (4 Bft) 97,87 %
12.12.2018 03:32 0,6 C 3,9 C 0,0 C 96 % 1019,6 hPa 0,0 l/m 17,3 km/h (3 Bft) W-SW 252 0 min 0,000 mm 0,0 UV-I 0 W/m 0,0 C -7,5 C 25,7 km/h (4 Bft) 97,87 %
12.12.2018 03:34 0,6 C 3,9 C 0,0 C 96 % 1019,5 hPa 0,0 l/m 15,1 km/h (3 Bft) W-SW 242 0 min 0,000 mm 0,0 UV-I 0 W/m 0,0 C -6,3 C 25,7 km/h (4 Bft) 97,87 %
12.12.2018 03:36 0,6 C 3,9 C 0,0 C 96 % 1019,6 hPa 0,0 l/m 17,3 km/h (3 Bft) W-SW 252 0 min 0,000 mm 0,0 UV-I 0 W/m 0,0 C -7,5 C 25,7 km/h (4 Bft) 94,74 %
12.12.2018 03:38 0,6 C 3,9 C 0,0 C 96 % 1019,6 hPa 0,0 l/m 16,7 km/h (3 Bft) W 263 0 min 0,000 mm 0,0 UV-I 0 W/m 0,0 C -7,2 C 22,5 km/h (4 Bft) 100,00 %
12.12.2018 03:40 0,6 C 3,9 C 0,0 C 96 % 1019,6 hPa 0,0 l/m 16,2 km/h (3 Bft) W-SW 240 0 min 0,000 mm 0,0 UV-I 0 W/m 0,0 C -6,9 C 22,5 km/h (4 Bft) 97,87 %
12.12.2018 03:42 0,6 C 3,9 C 0,0 C 96 % 1019,5 hPa 0,0 l/m 17,6 km/h (3 Bft) W-SW 253 0 min 0,000 mm 0,0 UV-I 0 W/m 0,0 C -7,7 C 24,1 km/h (4 Bft) 100,00 %
12.12.2018 03:44 0,6 C 3,9 C 0,0 C 96 % 1019,5 hPa 0,0 l/m 16,2 km/h (3 Bft) W 259 0 min 0,000 mm 0,0 UV-I 0 W/m 0,0 C -6,9 C 24,1 km/h (4 Bft) 100,00 %
12.12.2018 03:46 0,6 C 3,9 C 0,0 C 96 % 1019,6 hPa 0,0 l/m 18,8 km/h (3 Bft) W-SW 240 0 min 0,000 mm 0,0 UV-I 0 W/m 0,0 C -8,3 C 30,6 km/h (5 Bft) 97,87 %
12.12.2018 03:48 0,6 C 3,9 C 0,0 C 96 % 1019,5 hPa 0,0 l/m 18,6 km/h (3 Bft) W 263 0 min 0,000 mm 0,0 UV-I 0 W/m 0,0 C -8,2 C 27,4 km/h (4 Bft) 100,00 %
12.12.2018 03:50 0,6 C 3,9 C 0,0 C 96 % 1019,5 hPa 0,0 l/m 19,5 km/h (3 Bft) SW 236 0 min 0,000 mm 0,0 UV-I 0 W/m 0,0 C -8,6 C 29,0 km/h (5 Bft) 100,00 %
12.12.2018 03:52 0,6 C 3,9 C 0,0 C 96 % 1019,5 hPa 0,0 l/m 17,4 km/h (3 Bft) W 275 0 min 0,000 mm 0,0 UV-I 0 W/m 0,0 C -7,6 C 29,0 km/h (5 Bft) 97,87 %
12.12.2018 03:55 0,6 C 3,9 C 0,0 C 96 % 1019,6 hPa 0,0 l/m 15,0 km/h (3 Bft) W-SW 252 0 min 0,000 mm 0,0 UV-I 0 W/m 0,0 C -6,3 C 27,4 km/h (4 Bft) 98,46 %
12.12.2018 03:56 0,6 C 3,9 C 0,0 C 96 % 1019,6 hPa 0,0 l/m 18,1 km/h (3 Bft) W-SW 252 0 min 0,000 mm 0,0 UV-I 0 W/m 0,0 C -7,9 C 25,7 km/h (4 Bft) 100,00 %
12.12.2018 03:58 0,6 C 3,9 C 0,0 C 96 % 1019,6 hPa 0,0 l/m 18,7 km/h (3 Bft) W-SW 247 0 min 0,000 mm 0,0 UV-I 0 W/m 0,0 C -8,2 C 27,4 km/h (4 Bft) 100,00 %
12.12.2018 04:00 0,6 C 3,9 C 0,0 C 96 % 1019,5 hPa 0,0 l/m 17,9 km/h (3 Bft) SW 221 0 min 0,000 mm 0,0 UV-I 0 W/m 0,0 C -7,8 C 25,7 km/h (4 Bft) 95,74 %
12.12.2018 04:02 0,6 C 3,9 C 0,0 C 96 % 1019,6 hPa 0,0 l/m 17,3 km/h (3 Bft) W-SW 254 0 min 0,000 mm 0,0 UV-I 0 W/m 0,0 C -7,5 C 22,5 km/h (4 Bft) 100,00 %
12.12.2018 04:04 0,6 C 3,9 C 0,0 C 96 % 1019,5 hPa 0,0 l/m 18,7 km/h (3 Bft) W 267 0 min 0,000 mm 0,0 UV-I 0 W/m 0,0 C -8,2 C 24,1 km/h (4 Bft) 96,23 %
12.12.2018 04:06 0,6 C 3,9 C 0,0 C 96 % 1019,5 hPa 0,0 l/m 15,9 km/h (3 Bft) S-SW 207 0 min 0,000 mm 0,0 UV-I 0 W/m 0,0 C -6,8 C 22,5 km/h (4 Bft) 97,87 %
12.12.2018 04:08 0,6 C 3,9 C 0,0 C 96 % 1019,5 hPa 0,0 l/m 16,7 km/h (3 Bft) W-SW 246 0 min 0,000 mm 0,0 UV-I 0 W/m 0,0 C -7,2 C 27,4 km/h (4 Bft) 97,37 %
12.12.2018 04:10 0,6 C 3,9 C 0,0 C 96 % 1019,5 hPa 0,0 l/m 18,0 km/h (3 Bft) W-SW 250 0 min 0,000 mm 0,0 UV-I 0 W/m 0,0 C -7,9 C 25,7 km/h (4 Bft) 97,87 %
12.12.2018 04:12 0,6 C 3,9 C 0,0 C 96 % 1019,5 hPa 0,0 l/m 19,7 km/h (3 Bft) SW 229 0 min 0,000 mm 0,0 UV-I 0 W/m 0,0 C -8,7 C 30,6 km/h (5 Bft) 95,74 %
12.12.2018 04:14 0,6 C 3,9 C 0,0 C 96 % 1019,5 hPa 0,0 l/m 17,9 km/h (3 Bft) W 261 0 min 0,000 mm 0,0 UV-I 0 W/m 0,0 C -7,8 C 24,1 km/h (4 Bft) 95,74 %
12.12.2018 04:16 0,6 C 3,9 C 0,0 C 96 % 1019,5 hPa 0,0 l/m 18,4 km/h (3 Bft) W 265 0 min 0,000 mm 0,0 UV-I 0 W/m 0,0 C -8,1 C 24,1 km/h (4 Bft) 98,00 %
12.12.2018 04:18 0,6 C 3,9 C 0,0 C 96 % 1019,4 hPa 0,0 l/m 22,8 km/h (4 Bft) W-SW 254 0 min 0,000 mm 0,0 UV-I 0 W/m 0,0 C -10,1 C 30,6 km/h (5 Bft) 97,87 %
12.12.2018 04:20 0,6 C 3,9 C 0,0 C 96 % 1019,4 hPa 0,0 l/m 20,1 km/h (4 Bft) SW 234 0 min 0,000 mm 0,0 UV-I 0 W/m 0,0 C -8,9 C 27,4 km/h (4 Bft) 97,87 %
12.12.2018 04:22 0,6 C 3,9 C 0,0 C 96 % 1019,5 hPa 0,0 l/m 19,8 km/h (3 Bft) W-SW 246 0 min 0,000 mm 0,0 UV-I 0 W/m 0,0 C -8,8 C 27,4 km/h (4 Bft) 100,00 %
12.12.2018 04:24 0,6 C 3,9 C 0,0 C 96 % 1019,4 hPa 0,0 l/m 19,0 km/h (3 Bft) S 182 0 min 0,000 mm 0,0 UV-I 0 W/m 0,0 C -8,4 C 25,7 km/h (4 Bft) 100,00 %
12.12.2018 04:26 0,6 C 3,9 C 0,0 C 96 % 1019,5 hPa 0,0 l/m 16,7 km/h (3 Bft) W 269 0 min 0,000 mm 0,0 UV-I 0 W/m 0,0 C -7,2 C 25,7 km/h (4 Bft) 97,87 %
12.12.2018 04:28 0,6 C 3,9 C 0,0 C 96 % 1019,4 hPa 0,0 l/m 17,7 km/h (3 Bft) W 261 0 min 0,000 mm 0,0 UV-I 0 W/m 0,0 C -7,7 C 27,4 km/h (4 Bft) 100,00 %
12.12.2018 04:30 0,5 C 3,9 C 0,0 C 96 % 1019,5 hPa 0,0 l/m 19,5 km/h (3 Bft) W-SW 257 0 min 0,000 mm 0,0 UV-I 0 W/m -0,1 C -8,8 C 29,0 km/h (5 Bft) 100,00 %
12.12.2018 04:32 0,6 C 3,9 C 0,0 C 96 % 1019,4 hPa 0,0 l/m 18,8 km/h (3 Bft) W-SW 252 0 min 0,000 mm 0,0 UV-I 0 W/m 0,0 C -8,3 C 29,0 km/h (5 Bft) 100,00 %
12.12.2018 04:35 0,6 C 3,9 C 0,0 C 96 % 1019,4 hPa 0,0 l/m 20,4 km/h (4 Bft) W-SW 250 0 min 0,000 mm 0,0 UV-I 0 W/m 0,0 C -9,0 C 29,0 km/h (5 Bft) 100,00 %
12.12.2018 04:36 0,6 C 3,9 C 0,0 C 96 % 1019,4 hPa 0,0 l/m 22,0 km/h (4 Bft) W 262 0 min 0,000 mm 0,0 UV-I 0 W/m 0,0 C -9,7 C 29,0 km/h (5 Bft) 91,67 %
12.12.2018 04:38 0,6 C 3,9 C 0,0 C 96 % 1019,5 hPa 0,0 l/m 26,1 km/h (4 Bft) W-SW 239 0 min 0,000 mm 0,0 UV-I 0 W/m 0,0 C -11,3 C 37,0 km/h (5 Bft) 100,00 %
12.12.2018 04:40 0,6 C 3,9 C 0,0 C 96 % 1019,5 hPa 0,2 l/m 18,4 km/h (3 Bft) SW 229 0 min 0,000 mm 0,0 UV-I 0 W/m 0,0 C -8,1 C 29,0 km/h (5 Bft) 100,00 %
12.12.2018 04:42 0,6 C 3,9 C 0,0 C 96 % 1019,4 hPa 0,0 l/m 18,1 km/h (3 Bft) S-SW 210 0 min 0,000 mm 0,0 UV-I 0 W/m 0,0 C -7,9 C 25,7 km/h (4 Bft) 97,87 %
12.12.2018 04:44 0,6 C 3,9 C 0,0 C 96 % 1019,4 hPa 0,0 l/m 17,3 km/h (3 Bft) W 271 0 min 0,000 mm 0,0 UV-I 0 W/m 0,0 C -7,5 C 32,2 km/h (5 Bft) 100,00 %
12.12.2018 04:46 0,6 C 3,9 C 0,0 C 96 % 1019,4 hPa 0,0 l/m 17,1 km/h (3 Bft) W-SW 253 0 min 0,000 mm 0,0 UV-I 0 W/m 0,0 C -7,4 C 24,1 km/h (4 Bft) 95,74 %
12.12.2018 04:48 0,6 C 3,9 C 0,0 C 96 % 1019,4 hPa 0,0 l/m 17,6 km/h (3 Bft) W-SW 240 0 min 0,000 mm 0,0 UV-I 0 W/m 0,0 C -7,7 C 25,7 km/h (4 Bft) 100,00 %
12.12.2018 04:50 0,6 C 3,9 C 0,0 C 96 % 1019,5 hPa 0,0 l/m 16,2 km/h (3 Bft) W-SW 250 0 min 0,000 mm 0,0 UV-I 0 W/m 0,0 C -6,9 C 25,7 km/h (4 Bft) 95,74 %
12.12.2018 04:52 0,6 C 3,9 C 0,0 C 96 % 1019,5 hPa 0,0 l/m 15,2 km/h (3 Bft) W 260 0 min 0,000 mm 0,0 UV-I 0 W/m 0,0 C -6,4 C 22,5 km/h (4 Bft) 97,87 %
12.12.2018 04:54 0,6 C 3,9 C 0,0 C 96 % 1019,4 hPa 0,0 l/m 16,9 km/h (3 Bft) W-SW 253 0 min 0,000 mm 0,0 UV-I 0 W/m 0,0 C -7,3 C 24,1 km/h (4 Bft) 100,00 %
12.12.2018 04:56 0,6 C 3,9 C 0,0 C 96 % 1019,5 hPa 0,0 l/m 17,8 km/h (3 Bft) W 264 0 min 0,000 mm 0,0 UV-I 0 W/m 0,0 C -7,8 C 29,0 km/h (5 Bft) 95,74 %
12.12.2018 04:58 0,6 C 3,9 C 0,0 C 96 % 1019,4 hPa 0,0 l/m 16,6 km/h (3 Bft) W-SW 243 0 min 0,000 mm 0,0 UV-I 0 W/m 0,0 C -7,2 C 24,1 km/h (4 Bft) 100,00 %
12.12.2018 05:00 0,6 C 3,9 C 0,0 C 96 % 1019,4 hPa 0,0 l/m 17,6 km/h (3 Bft) W-SW 244 0 min 0,000 mm 0,0 UV-I 0 W/m 0,0 C -7,7 C 29,0 km/h (5 Bft) 97,87 %
12.12.2018 05:02 0,6 C 3,9 C 0,0 C 96 % 1019,4 hPa 0,0 l/m 16,7 km/h (3 Bft) W 269 0 min 0,000 mm 0,0 UV-I 0 W/m 0,0 C -7,2 C 22,5 km/h (4 Bft) 97,87 %
12.12.2018 05:04 0,6 C 3,9 C 0,0 C 96 % 1019,4 hPa 0,0 l/m 17,3 km/h (3 Bft) W 261 0 min 0,000 mm 0,0 UV-I 0 W/m 0,0 C -7,5 C 24,1 km/h (4 Bft) 95,74 %
12.12.2018 05:06 0,6 C 3,9 C 0,0 C 96 % 1019,4 hPa 0,0 l/m 16,4 km/h (3 Bft) W-SW 241 0 min 0,000 mm 0,0 UV-I 0 W/m 0,0 C -7,1 C 24,1 km/h (4 Bft) 93,62 %
12.12.2018 05:08 0,6 C 3,9 C 0,0 C 96 % 1019,4 hPa 0,0 l/m 18,6 km/h (3 Bft) W 263 0 min 0,000 mm 0,0 UV-I 0 W/m 0,0 C -8,2 C 32,2 km/h (5 Bft) 95,74 %
12.12.2018 05:10 0,6 C 3,9 C 0,6 C 96 % 1019,5 hPa 0,0 l/m 20,5 km/h (4 Bft) W-SW 254 0 min 0,000 mm 0,0 UV-I 0 W/m 0,0 C -9,1 C 30,6 km/h (5 Bft) 97,87 %
12.12.2018 05:12 0,6 C 3,9 C 0,0 C 96 % 1019,5 hPa 0,0 l/m 17,5 km/h (3 Bft) W-SW 252 0 min 0,000 mm 0,0 UV-I 0 W/m 0,0 C -7,6 C 27,4 km/h (4 Bft) 97,87 %
12.12.2018 05:14 0,6 C 3,9 C 0,0 C 96 % 1019,5 hPa 0,0 l/m 17,2 km/h (3 Bft) W-SW 248 0 min 0,000 mm 0,0 UV-I 0 W/m 0,0 C -7,5 C 25,7 km/h (4 Bft) 95,74 %
12.12.2018 05:16 0,6 C 3,9 C 0,6 C 96 % 1019,5 hPa 0,0 l/m 17,8 km/h (3 Bft) W-SW 242 0 min 0,000 mm 0,0 UV-I 0 W/m 0,0 C -7,8 C 27,4 km/h (4 Bft) 95,74 %
12.12.2018 05:18 0,6 C 3,9 C 0,6 C 96 % 1019,5 hPa 0,0 l/m 19,6 km/h (3 Bft) SW 236 0 min 0,000 mm 0,0 UV-I 0 W/m 0,0 C -8,7 C 30,6 km/h (5 Bft) 94,87 %
12.12.2018 05:21 0,6 C 3,9 C 0,6 C 96 % 1019,5 hPa 0,0 l/m 17,2 km/h (3 Bft) SW 234 0 min 0,000 mm 0,0 UV-I 0 W/m 0,0 C -7,5 C 29,0 km/h (5 Bft) 93,15 %
12.12.2018 05:22 0,6 C 3,9 C 0,6 C 96 % 1019,5 hPa 0,0 l/m 15,2 km/h (3 Bft) SW 228 0 min 0,000 mm 0,0 UV-I 0 W/m 0,0 C -6,4 C 19,3 km/h (3 Bft) 91,67 %
12.12.2018 05:26 0,6 C 3,9 C 0,6 C 96 % 1019,5 hPa 0,0 l/m 15,4 km/h (3 Bft) W-SW 239 0 min 0,000 mm 0,0 UV-I 0 W/m 0,0 C -6,5 C 20,9 km/h (4 Bft) 95,00 %
12.12.2018 05:29 0,6 C 3,9 C 0,6 C 96 % 1019,5 hPa 0,0 l/m 16,4 km/h (3 Bft) W-SW 257 0 min 0,000 mm 0,0 UV-I 0 W/m 0,0 C -7,1 C 22,5 km/h (4 Bft) 97,01 %
12.12.2018 05:30 0,6 C 3,9 C 0,6 C 96 % 1019,5 hPa 0,0 l/m 16,9 km/h (3 Bft) W 259 0 min 0,000 mm 0,0 UV-I 0 W/m 0,0 C -7,3 C 20,9 km/h (4 Bft) 92,59 %
12.12.2018 05:32 0,6 C 3,9 C 0,0 C 96 % 1019,5 hPa 0,0 l/m 12,1 km/h (2 Bft) W-SW 246 0 min 0,000 mm 0,0 UV-I 0 W/m 0,0 C -4,4 C 22,5 km/h (4 Bft) 95,12 %
12.12.2018 05:34 0,6 C 3,9 C 0,6 C 96 % 1019,5 hPa 0,0 l/m 16,5 km/h (3 Bft) W-SW 246 0 min 0,000 mm 0,0 UV-I 0 W/m 0,0 C -7,1 C 22,5 km/h (4 Bft) 96,23 %
12.12.2018 05:36 0,6 C 3,9 C 0,6 C 96 % 1019,6 hPa 0,0 l/m 15,4 km/h (3 Bft) W 265 0 min 0,000 mm 0,0 UV-I 0 W/m 0,0 C -6,5 C 25,7 km/h (4 Bft) 97,73 %
12.12.2018 05:38 0,6 C 3,9 C 0,6 C 96 % 1019,6 hPa 0,0 l/m 16,6 km/h (3 Bft) SW 236 0 min 0,000 mm 0,0 UV-I 0 W/m 0,0 C -7,2 C 25,7 km/h (4 Bft) 90,00 %
12.12.2018 05:40 0,6 C 3,9 C 0,6 C 96 % 1019,6 hPa 0,0 l/m 15,2 km/h (3 Bft) W 268 0 min 0,000 mm 0,0 UV-I 0 W/m 0,0 C -6,4 C 25,7 km/h (4 Bft) 97,14 %
12.12.2018 05:42 0,6 C 3,9 C 0,0 C 96 % 1019,6 hPa 0,0 l/m 15,1 km/h (3 Bft) W-SW 248 0 min 0,000 mm 0,0 UV-I 0 W/m 0,0 C -6,3 C 20,9 km/h (4 Bft) 100,00 %
12.12.2018 05:44 0,6 C 3,9 C 0,0 C 96 % 1019,6 hPa 0,0 l/m 17,7 km/h (3 Bft) W-SW 242 0 min 0,000 mm 0,0 UV-I 0 W/m 0,0 C -7,7 C 25,7 km/h (4 Bft) 100,00 %
12.12.2018 05:46 0,6 C 3,9 C 0,0 C 96 % 1019,6 hPa 0,0 l/m 15,5 km/h (3 Bft) W 269 0 min 0,000 mm 0,0 UV-I 0 W/m 0,0 C -6,5 C 22,5 km/h (4 Bft) 98,11 %
12.12.2018 05:48 0,6 C 3,9 C 0,0 C 96 % 1019,6 hPa 0,0 l/m 17,2 km/h (3 Bft) SW 229 0 min 0,000 mm 0,0 UV-I 0 W/m 0,0 C -7,5 C 24,1 km/h (4 Bft) 100,00 %
12.12.2018 05:50 0,5 C 3,9 C 0,0 C 96 % 1019,6 hPa 0,0 l/m 17,6 km/h (3 Bft) W-SW 252 0 min 0,000 mm 0,0 UV-I 0 W/m -0,1 C -7,8 C 25,7 km/h (4 Bft) 100,00 %
12.12.2018 05:52 0,5 C 3,9 C 0,0 C 96 % 1019,8 hPa 0,0 l/m 17,3 km/h (3 Bft) SW 235 0 min 0,000 mm 0,0 UV-I 0 W/m -0,1 C -7,7 C 25,7 km/h (4 Bft) 100,00 %
12.12.2018 05:54 0,5 C 3,9 C 0,0 C 96 % 1019,7 hPa 0,0 l/m 16,8 km/h (3 Bft) W-SW 242 0 min 0,000 mm 0,0 UV-I 0 W/m -0,1 C -7,4 C 24,1 km/h (4 Bft) 97,56 %
12.12.2018 05:56 0,5 C 3,9 C 0,0 C 96 % 1019,7 hPa 0,0 l/m 15,5 km/h (3 Bft) SW 235 0 min 0,000 mm 0,0 UV-I 0 W/m -0,1 C -6,7 C 25,7 km/h (4 Bft) 100,00 %
12.12.2018 05:58 0,6 C 3,9 C 0,0 C 96 % 1019,7 hPa 0,0 l/m 13,8 km/h (3 Bft) W 265 0 min 0,000 mm 0,0 UV-I 0 W/m 0,0 C -5,5 C 25,7 km/h (4 Bft) 97,14 %
12.12.2018 06:00 0,6 C 3,9 C 0,0 C 96 % 1019,8 hPa 0,0 l/m 15,1 km/h (3 Bft) W-SW 254 0 min 0,000 mm 0,0 UV-I 0 W/m 0,0 C -6,3 C 19,3 km/h (3 Bft) 100,00 %
12.12.2018 06:02 0,6 C 3,9 C 0,0 C 96 % 1019,8 hPa 0,0 l/m 15,2 km/h (3 Bft) W 263 0 min 0,000 mm 0,0 UV-I 0 W/m 0,0 C -6,4 C 19,3 km/h (3 Bft) 95,74 %
12.12.2018 06:04 0,6 C 3,9 C 0,0 C 96 % 1019,7 hPa 0,0 l/m 13,6 km/h (3 Bft) W-SW 242 0 min 0,000 mm 0,0 UV-I 0 W/m 0,0 C -5,4 C 19,3 km/h (3 Bft) 100,00 %
12.12.2018 06:06 0,6 C 3,9 C 0,0 C 96 % 1019,7 hPa 0,0 l/m 17,1 km/h (3 Bft) W-SW 244 0 min 0,000 mm 0,0 UV-I 0 W/m 0,0 C -7,4 C 24,1 km/h (4 Bft) 98,11 %
12.12.2018 06:08 0,6 C 3,9 C 0,0 C 96 % 1019,7 hPa 0,0 l/m 14,2 km/h (3 Bft) W-SW 250 0 min 0,000 mm 0,0 UV-I 0 W/m 0,0 C -5,8 C 20,9 km/h (4 Bft) 100,00 %
12.12.2018 06:10 0,6 C 3,9 C 0,0 C 96 % 1019,8 hPa 0,0 l/m 16,3 km/h (3 Bft) SW 226 0 min 0,000 mm 0,0 UV-I 0 W/m 0,0 C -7,0 C 25,7 km/h (4 Bft) 100,00 %
12.12.2018 06:12 0,6 C 3,9 C 0,0 C 96 % 1019,7 hPa 0,0 l/m 15,6 km/h (3 Bft) W-SW 238 0 min 0,000 mm 0,0 UV-I 0 W/m 0,0 C -6,6 C 24,1 km/h (4 Bft) 100,00 %
12.12.2018 06:14 0,6 C 3,9 C 0,0 C 96 % 1019,7 hPa 0,0 l/m 14,2 km/h (3 Bft) W-SW 255 0 min 0,000 mm 0,0 UV-I 0 W/m 0,0 C -5,8 C 20,9 km/h (4 Bft) 100,00 %
12.12.2018 06:16 0,6 C 3,9 C 0,0 C 96 % 1019,7 hPa 0,0 l/m 14,0 km/h (3 Bft) W-SW 244 0 min 0,000 mm 0,0 UV-I 0 W/m 0,0 C -5,6 C 22,5 km/h (4 Bft) 100,00 %
12.12.2018 06:18 0,6 C 3,9 C 0,0 C 96 % 1019,8 hPa 0,0 l/m 16,1 km/h (3 Bft) W-SW 240 0 min 0,000 mm 0,0 UV-I 0 W/m 0,0 C -6,9 C 24,1 km/h (4 Bft) 100,00 %
12.12.2018 06:20 0,6 C 3,9 C 0,0 C 96 % 1019,7 hPa 0,0 l/m 13,6 km/h (3 Bft) W 261 0 min 0,000 mm 0,0 UV-I 0 W/m 0,0 C -5,4 C 25,7 km/h (4 Bft) 97,56 %
12.12.2018 06:22 0,6 C 3,9 C 0,0 C 96 % 1019,7 hPa 0,0 l/m 15,8 km/h (3 Bft) W-SW 254 0 min 0,000 mm 0,0 UV-I 0 W/m 0,0 C -6,7 C 30,6 km/h (5 Bft) 98,00 %
12.12.2018 06:24 0,6 C 3,9 C 0,0 C 96 % 1019,8 hPa 0,0 l/m 19,3 km/h (3 Bft) W-SW 242 0 min 0,000 mm 0,0 UV-I 0 W/m 0,0 C -8,5 C 25,7 km/h (4 Bft) 97,73 %
12.12.2018 06:26 0,6 C 3,9 C 0,0 C 96 % 1019,8 hPa 0,0 l/m 14,7 km/h (3 Bft) W-SW 237 0 min 0,000 mm 0,0 UV-I 0 W/m 0,0 C -6,1 C 22,5 km/h (4 Bft) 95,74 %
12.12.2018 06:28 0,6 C 3,9 C 0,0 C 96 % 1019,8 hPa 0,0 l/m 14,7 km/h (3 Bft) W-SW 254 0 min 0,000 mm 0,0 UV-I 0 W/m 0,0 C -6,1 C 24,1 km/h (4 Bft) 95,74 %
12.12.2018 06:30 0,6 C 3,9 C 0,0 C 96 % 1019,8 hPa 0,0 l/m 15,6 km/h (3 Bft) W-SW 246 0 min 0,000 mm 0,0 UV-I 0 W/m 0,0 C -6,6 C 24,1 km/h (4 Bft) 95,74 %
12.12.2018 06:32 0,6 C 3,9 C 0,0 C 96 % 1019,8 hPa 0,0 l/m 16,2 km/h (3 Bft) W 261 0 min 0,000 mm 0,0 UV-I 0 W/m 0,0 C -6,9 C 27,4 km/h (4 Bft) 93,62 %
12.12.2018 06:34 0,6 C 3,9 C 0,0 C 96 % 1019,8 hPa 0,0 l/m 15,9 km/h (3 Bft) SW 227 0 min 0,000 mm 0,0 UV-I 0 W/m 0,0 C -6,8 C 25,7 km/h (4 Bft) 94,00 %
12.12.2018 06:36 0,6 C 3,9 C 0,0 C 96 % 1019,8 hPa 0,0 l/m 18,3 km/h (3 Bft) W-SW 254 0 min 0,000 mm 0,0 UV-I 0 W/m 0,0 C -8,0 C 29,0 km/h (5 Bft) 95,74 %
12.12.2018 06:38 0,5 C 3,9 C 0,0 C 96 % 1019,8 hPa 0,0 l/m 13,3 km/h (3 Bft) W-SW 251 0 min 0,000 mm 0,0 UV-I 0 W/m -0,1 C -5,3 C 19,3 km/h (3 Bft) 95,74 %
12.12.2018 06:40 0,6 C 3,9 C 0,0 C 96 % 1019,8 hPa 0,2 l/m 15,7 km/h (3 Bft) SW 236 0 min 0,000 mm 0,0 UV-I 0 W/m 0,0 C -6,7 C 20,9 km/h (4 Bft) 96,23 %
12.12.2018 06:42 0,5 C 3,9 C 0,0 C 96 % 1019,8 hPa 0,0 l/m 19,0 km/h (3 Bft) SW 234 0 min 0,000 mm 0,0 UV-I 0 W/m -0,1 C -8,5 C 27,4 km/h (4 Bft) 95,74 %
12.12.2018 06:44 0,5 C 3,9 C 0,0 C 96 % 1019,8 hPa 0,0 l/m 17,0 km/h (3 Bft) W 263 0 min 0,000 mm 0,0 UV-I 0 W/m -0,1 C -7,5 C 27,4 km/h (4 Bft) 93,62 %
12.12.2018 06:46 0,6 C 3,9 C 0,0 C 96 % 1019,9 hPa 0,0 l/m 19,6 km/h (3 Bft) W-SW 242 0 min 0,000 mm 0,0 UV-I 0 W/m 0,0 C -8,7 C 29,0 km/h (5 Bft) 95,24 %
12.12.2018 06:48 0,6 C 3,9 C 0,0 C 96 % 1019,9 hPa 0,0 l/m 17,7 km/h (3 Bft) W-SW 244 0 min 0,000 mm 0,0 UV-I 0 W/m 0,0 C -7,7 C 32,2 km/h (5 Bft) 92,11 %
12.12.2018 06:50 0,6 C 3,9 C 0,0 C 96 % 1019,9 hPa 0,0 l/m 16,6 km/h (3 Bft) SW 235 0 min 0,000 mm 0,0 UV-I 0 W/m 0,0 C -7,2 C 20,9 km/h (4 Bft) 96,72 %
12.12.2018 06:52 0,6 C 3,9 C 0,0 C 96 % 1019,9 hPa 0,0 l/m 15,2 km/h (3 Bft) W-SW 254 0 min 0,000 mm 0,0 UV-I 0 W/m 0,0 C -6,4 C 24,1 km/h (4 Bft) 100,00 %
12.12.2018 06:54 0,6 C 3,9 C 0,0 C 96 % 1019,9 hPa 0,0 l/m 18,4 km/h (3 Bft) W-SW 244 0 min 0,000 mm 0,0 UV-I 0 W/m 0,0 C -8,1 C 29,0 km/h (5 Bft) 96,00 %
12.12.2018 06:56 0,6 C 3,9 C 0,0 C 96 % 1019,9 hPa 0,0 l/m 17,0 km/h (3 Bft) SW 236 0 min 0,000 mm 0,0 UV-I 0 W/m 0,0 C -7,4 C 22,5 km/h (4 Bft) 98,00 %
12.12.2018 06:58 0,6 C 3,9 C 0,0 C 96 % 1019,9 hPa 0,0 l/m 17,4 km/h (3 Bft) SW 227 0 min 0,000 mm 0,0 UV-I 0 W/m 0,0 C -7,6 C 25,7 km/h (4 Bft) 95,74 %
12.12.2018 07:00 0,6 C 3,9 C 0,0 C 96 % 1020,0 hPa 0,0 l/m 16,9 km/h (3 Bft) SW 234 0 min 0,000 mm 0,0 UV-I 0 W/m 0,0 C -7,3 C 24,1 km/h (4 Bft) 97,87 %
12.12.2018 07:02 0,6 C 3,9 C 0,0 C 96 % 1019,9 hPa 0,0 l/m 15,9 km/h (3 Bft) W 278 0 min 0,000 mm 0,0 UV-I 0 W/m 0,0 C -6,8 C 27,4 km/h (4 Bft) 97,56 %
12.12.2018 07:04 0,6 C 3,9 C 0,0 C 96 % 1020,0 hPa 0,0 l/m 20,7 km/h (4 Bft) W-SW 253 0 min 0,000 mm 0,0 UV-I 0 W/m 0,0 C -9,2 C 30,6 km/h (5 Bft) 96,23 %
12.12.2018 07:06 0,6 C 3,9 C 0,0 C 96 % 1020,0 hPa 0,0 l/m 17,8 km/h (3 Bft) W-SW 257 0 min 0,000 mm 0,0 UV-I 0 W/m 0,0 C -7,8 C 24,1 km/h (4 Bft) 97,56 %
12.12.2018 07:08 0,6 C 3,9 C 0,0 C 96 % 1020,0 hPa 0,0 l/m 15,9 km/h (3 Bft) W 265 0 min 0,000 mm 0,0 UV-I 0 W/m 0,0 C -6,8 C 24,1 km/h (4 Bft) 94,74 %
12.12.2018 07:10 0,6 C 3,9 C 0,0 C 96 % 1020,0 hPa 0,0 l/m 16,7 km/h (3 Bft) W-SW 247 0 min 0,000 mm 0,0 UV-I 0 W/m 0,0 C -7,2 C 22,5 km/h (4 Bft) 98,11 %
12.12.2018 07:12 0,6 C 3,9 C 0,0 C 96 % 1020,0 hPa 0,0 l/m 15,1 km/h (3 Bft) W 279 0 min 0,000 mm 0,0 UV-I 0 W/m 0,0 C -6,3 C 20,9 km/h (4 Bft) 94,34 %
12.12.2018 07:14 0,6 C 3,9 C 0,0 C 96 % 1020,0 hPa 0,0 l/m 17,7 km/h (3 Bft) SW 236 0 min 0,000 mm 0,0 UV-I 0 W/m 0,0 C -7,7 C 24,1 km/h (4 Bft) 93,62 %
12.12.2018 07:16 0,6 C 3,9 C 0,0 C 96 % 1020,0 hPa 0,0 l/m 20,1 km/h (4 Bft) SW 229 0 min 0,000 mm 0,0 UV-I 0 W/m 0,0 C -8,9 C 27,4 km/h (4 Bft) 95,45 %
12.12.2018 07:18 0,6 C 3,9 C 0,0 C 96 % 1020,0 hPa 0,0 l/m 18,4 km/h (3 Bft) W-SW 258 0 min 0,000 mm 0,0 UV-I 0 W/m 0,0 C -8,1 C 25,7 km/h (4 Bft) 96,00 %
12.12.2018 07:20 0,6 C 3,9 C 0,0 C 96 % 1020,1 hPa 0,0 l/m 18,9 km/h (3 Bft) SW 227 0 min 0,000 mm 0,0 UV-I 0 W/m 0,0 C -8,3 C 24,1 km/h (4 Bft) 95,24 %
12.12.2018 07:22 0,6 C 3,9 C 0,0 C 96 % 1020,2 hPa 0,0 l/m 18,1 km/h (3 Bft) W-SW 241 0 min 0,000 mm 0,0 UV-I 0 W/m 0,0 C -7,9 C 32,2 km/h (5 Bft) 94,23 %
12.12.2018 07:24 0,6 C 3,9 C 0,0 C 96 % 1020,2 hPa 0,0 l/m 19,1 km/h (3 Bft) W-SW 257 0 min 0,000 mm 0,0 UV-I 0 W/m 0,0 C -8,4 C 25,7 km/h (4 Bft) 96,00 %
12.12.2018 07:26 0,6 C 3,9 C 0,0 C 96 % 1020,2 hPa 0,0 l/m 16,3 km/h (3 Bft) SW 233 0 min 0,000 mm 0,0 UV-I 0 W/m 0,0 C -7,0 C 22,5 km/h (4 Bft) 94,44 %
12.12.2018 07:28 0,6 C 3,9 C 0,0 C 96 % 1020,3 hPa 0,0 l/m 15,6 km/h (3 Bft) W 268 0 min 0,000 mm 0,0 UV-I 0 W/m 0,0 C -6,6 C 20,9 km/h (4 Bft) 94,34 %
12.12.2018 07:30 0,6 C 3,9 C 0,0 C 96 % 1020,4 hPa 0,0 l/m 13,1 km/h (3 Bft) W-SW 243 0 min 0,000 mm 0,0 UV-I 0 W/m 0,0 C -5,1 C 19,3 km/h (3 Bft) 96,00 %
12.12.2018 07:32 0,6 C 3,9 C 0,0 C 96 % 1020,3 hPa 0,0 l/m 17,4 km/h (3 Bft) W 272 0 min 0,000 mm 0,0 UV-I 0 W/m 0,0 C -7,6 C 24,1 km/h (4 Bft) 97,87 %
12.12.2018 07:34 0,6 C 3,9 C 0,0 C 96 % 1020,3 hPa 0,0 l/m 14,5 km/h (3 Bft) SW 231 0 min 0,000 mm 0,0 UV-I 0 W/m 0,0 C -6,0 C 19,3 km/h (3 Bft) 95,74 %
12.12.2018 07:36 0,6 C 3,9 C 0,0 C 96 % 1020,4 hPa 0,0 l/m 15,9 km/h (3 Bft) W-SW 242 0 min 0,000 mm 0,0 UV-I 0 W/m 0,0 C -6,8 C 29,0 km/h (5 Bft) 94,29 %
12.12.2018 07:38 0,6 C 3,9 C 0,0 C 96 % 1020,3 hPa 0,0 l/m 16,5 km/h (3 Bft) W 259 0 min 0,000 mm 0,0 UV-I 0 W/m 0,0 C -7,1 C 27,4 km/h (4 Bft) 96,43 %
12.12.2018 07:40 0,6 C 3,9 C 0,0 C 96 % 1020,4 hPa 0,0 l/m 13,9 km/h (3 Bft) W-SW 240 0 min 0,000 mm 0,0 UV-I 0 W/m 0,0 C -5,6 C 20,9 km/h (4 Bft) 97,56 %
12.12.2018 07:42 0,6 C 3,9 C 0,0 C 96 % 1020,5 hPa 0,0 l/m 15,9 km/h (3 Bft) W 280 0 min 0,000 mm 0,0 UV-I 0 W/m 0,0 C -6,8 C 22,5 km/h (4 Bft) 96,00 %
12.12.2018 07:44 0,6 C 3,9 C 0,0 C 96 % 1020,4 hPa 0,0 l/m 16,6 km/h (3 Bft) W-NW 298 0 min 0,000 mm 0,0 UV-I 0 W/m 0,0 C -7,2 C 24,1 km/h (4 Bft) 94,00 %
12.12.2018 07:46 0,6 C 3,9 C 0,0 C 96 % 1020,5 hPa 0,0 l/m 11,3 km/h (2 Bft) W 267 0 min 0,000 mm 0,0 UV-I 0 W/m 0,0 C -3,8 C 16,1 km/h (3 Bft) 94,74 %
12.12.2018 07:48 0,6 C 3,9 C 0,0 C 96 % 1020,5 hPa 0,0 l/m 13,7 km/h (3 Bft) W 277 0 min 0,000 mm 0,0 UV-I 2 W/m 0,0 C -5,5 C 22,5 km/h (4 Bft) 98,00 %
12.12.2018 07:50 0,6 C 3,9 C 0,0 C 96 % 1020,5 hPa 0,0 l/m 12,6 km/h (3 Bft) W-SW 238 0 min 0,000 mm 0,0 UV-I 5 W/m 0,0 C -4,7 C 17,7 km/h (3 Bft) 98,00 %
12.12.2018 07:52 0,6 C 3,9 C 0,0 C 96 % 1020,5 hPa 0,0 l/m 16,8 km/h (3 Bft) W 273 0 min 0,000 mm 0,0 UV-I 5 W/m 0,0 C -7,3 C 22,5 km/h (4 Bft) 97,73 %
12.12.2018 07:54 0,6 C 3,9 C 0,6 C 96 % 1020,5 hPa 0,0 l/m 16,7 km/h (3 Bft) W 259 0 min 0,000 mm 0,0 UV-I 5 W/m 0,0 C -7,2 C 24,1 km/h (4 Bft) 95,24 %
12.12.2018 07:56 0,6 C 3,9 C 0,6 C 96 % 1020,5 hPa 0,0 l/m 12,8 km/h (3 Bft) W 272 0 min 0,000 mm 0,0 UV-I 5 W/m 0,0 C -4,9 C 16,1 km/h (3 Bft) 96,15 %
12.12.2018 07:58 0,6 C 3,9 C 0,6 C 96 % 1020,5 hPa 0,0 l/m 17,0 km/h (3 Bft) W-SW 254 0 min 0,000 mm 0,0 UV-I 5 W/m 0,0 C -7,4 C 22,5 km/h (4 Bft) 98,00 %
12.12.2018 08:00 0,6 C 3,9 C 0,6 C 96 % 1020,6 hPa 0,0 l/m 14,1 km/h (3 Bft) W-SW 252 0 min 0,000 mm 0,0 UV-I 5 W/m 0,0 C -5,7 C 19,3 km/h (3 Bft) 97,44 %
12.12.2018 08:02 0,6 C 3,9 C 0,6 C 96 % 1020,6 hPa 0,0 l/m 16,5 km/h (3 Bft) W 271 0 min 0,000 mm 0,0 UV-I 7 W/m 0,0 C -7,1 C 24,1 km/h (4 Bft) 96,00 %
12.12.2018 08:04 0,6 C 3,9 C 0,6 C 96 % 1020,6 hPa 0,0 l/m 13,4 km/h (3 Bft) W 261 0 min 0,000 mm 0,0 UV-I 8 W/m 0,0 C -5,3 C 19,3 km/h (3 Bft) 94,00 %
12.12.2018 08:06 0,6 C 3,9 C 0,6 C 96 % 1020,6 hPa 0,0 l/m 13,6 km/h (3 Bft) W-SW 237 0 min 0,000 mm 0,0 UV-I 8 W/m 0,0 C -5,4 C 19,3 km/h (3 Bft) 100,00 %
12.12.2018 08:08 0,6 C 3,9 C 0,6 C 96 % 1020,6 hPa 0,0 l/m 16,1 km/h (3 Bft) W-SW 248 0 min 0,000 mm 0,0 UV-I 8 W/m 0,0 C -6,9 C 22,5 km/h (4 Bft) 100,00 %
12.12.2018 08:10 0,6 C 3,9 C 0,6 C 96 % 1020,6 hPa 0,0 l/m 12,5 km/h (3 Bft) W 261 0 min 0,000 mm 0,0 UV-I 9 W/m 0,0 C -4,7 C 17,7 km/h (3 Bft) 100,00 %
12.12.2018 08:12 0,6 C 3,9 C 0,6 C 96 % 1020,7 hPa 0,0 l/m 13,2 km/h (3 Bft) W 269 0 min 0,000 mm 0,0 UV-I 9 W/m 0,0 C -5,1 C 19,3 km/h (3 Bft) 98,00 %
12.12.2018 08:14 0,6 C 3,9 C 0,6 C 96 % 1020,7 hPa 0,0 l/m 12,8 km/h (3 Bft) W 262 0 min 0,000 mm 0,0 UV-I 9 W/m 0,0 C -4,9 C 16,1 km/h (3 Bft) 100,00 %
12.12.2018 08:16 0,6 C 3,9 C 0,6 C 96 % 1020,7 hPa 0,0 l/m 13,0 km/h (3 Bft) W-NW 284 0 min 0,000 mm 0,0 UV-I 11 W/m 0,0 C -5,0 C 19,3 km/h (3 Bft) 100,00 %
12.12.2018 08:18 0,6 C 3,9 C 0,6 C 96 % 1020,7 hPa 0,0 l/m 12,1 km/h (2 Bft) W 273 0 min 0,000 mm 0,0 UV-I 11 W/m 0,0 C -4,4 C 16,1 km/h (3 Bft) 100,00 %
12.12.2018 08:20 0,6 C 3,9 C 0,6 C 96 % 1020,7 hPa 0,0 l/m 15,4 km/h (3 Bft) W-SW 258 0 min 0,000 mm 0,0 UV-I 11 W/m 0,0 C -6,5 C 24,1 km/h (4 Bft) 97,87 %
12.12.2018 08:22 0,6 C 3,9 C 0,6 C 96 % 1020,7 hPa 0,0 l/m 13,7 km/h (3 Bft) W 261 0 min 0,000 mm 0,0 UV-I 11 W/m 0,0 C -5,5 C 19,3 km/h (3 Bft) 97,56 %
12.12.2018 08:24 0,6 C 3,9 C 0,6 C 96 % 1020,7 hPa 0,0 l/m 11,2 km/h (2 Bft) W 280 0 min 0,000 mm 0,0 UV-I 11 W/m 0,0 C -3,7 C 16,1 km/h (3 Bft) 100,00 %
12.12.2018 08:26 0,6 C 3,9 C 0,6 C 96 % 1020,8 hPa 0,0 l/m 15,6 km/h (3 Bft) W-NW 282 0 min 0,000 mm 0,0 UV-I 11 W/m 0,0 C -6,6 C 22,5 km/h (4 Bft) 100,00 %
12.12.2018 08:28 0,6 C 3,9 C 0,6 C 96 % 1020,8 hPa 0,0 l/m 16,1 km/h (3 Bft) W 277 0 min 0,000 mm 0,0 UV-I 11 W/m 0,0 C -6,9 C 20,9 km/h (4 Bft) 100,00 %
12.12.2018 08:30 0,6 C 3,9 C 0,6 C 96 % 1020,9 hPa 0,0 l/m 11,7 km/h (2 Bft) W 269 0 min 0,000 mm 0,0 UV-I 12 W/m 0,0 C -4,1 C 16,1 km/h (3 Bft) 100,00 %
12.12.2018 08:32 0,6 C 3,9 C 0,6 C 96 % 1020,9 hPa 0,0 l/m 10,4 km/h (2 Bft) W 265 0 min 0,000 mm 0,0 UV-I 16 W/m 0,0 C -3,1 C 17,7 km/h (3 Bft) 100,00 %
12.12.2018 08:34 0,6 C 3,9 C 0,6 C 96 % 1020,9 hPa 0,0 l/m 12,3 km/h (3 Bft) W-SW 254 0 min 0,000 mm 0,0 UV-I 20 W/m 0,0 C -4,5 C 17,7 km/h (3 Bft) 100,00 %
12.12.2018 08:36 0,6 C 3,9 C 0,6 C 96 % 1020,9 hPa 0,0 l/m 11,5 km/h (2 Bft) W 262 0 min 0,000 mm 0,0 UV-I 19 W/m 0,0 C -3,9 C 16,1 km/h (3 Bft) 100,00 %
12.12.2018 08:38 0,6 C 3,9 C 0,6 C 96 % 1021,0 hPa 0,0 l/m 9,4 km/h (2 Bft) SW 236 0 min 0,000 mm 0,0 UV-I 20 W/m 0,0 C -2,3 C 16,1 km/h (3 Bft) 100,00 %
12.12.2018 08:40 0,6 C 3,9 C 0,6 C 96 % 1020,9 hPa 0,0 l/m 11,5 km/h (2 Bft) W-SW 248 0 min 0,000 mm 0,0 UV-I 29 W/m 0,0 C -3,9 C 16,1 km/h (3 Bft) 98,59 %
12.12.2018 08:42 0,7 C 3,9 C 0,6 C 96 % 1021,0 hPa 0,0 l/m 11,5 km/h (2 Bft) W 266 0 min 0,000 mm 0,0 UV-I 33 W/m 0,1 C -3,8 C 16,1 km/h (3 Bft) 100,00 %
12.12.2018 08:44 0,7 C 3,9 C 0,6 C 96 % 1021,0 hPa 0,0 l/m 13,9 km/h (3 Bft) W 280 0 min 0,000 mm 0,0 UV-I 29 W/m 0,1 C -5,5 C 19,3 km/h (3 Bft) 100,00 %
12.12.2018 08:46 0,7 C 3,9 C 0,6 C 96 % 1021,0 hPa 0,0 l/m 15,4 km/h (3 Bft) W 277 0 min 0,000 mm 0,0 UV-I 24 W/m 0,1 C -6,4 C 20,9 km/h (4 Bft) 97,87 %
12.12.2018 08:48 0,7 C 3,9 C 0,6 C 96 % 1021,0 hPa 0,0 l/m 11,7 km/h (2 Bft) W-SW 246 0 min 0,000 mm 0,0 UV-I 20 W/m 0,1 C -4,0 C 16,1 km/h (3 Bft) 97,87 %
12.12.2018 08:50 0,7 C 3,9 C 0,6 C 96 % 1021,0 hPa 0,0 l/m 10,7 km/h (2 Bft) W 269 0 min 0,000 mm 0,0 UV-I 22 W/m 0,1 C -3,2 C 12,9 km/h (3 Bft) 100,00 %
12.12.2018 08:52 0,7 C 3,9 C 0,6 C 96 % 1021,0 hPa 0,0 l/m 9,3 km/h (2 Bft) W 274 0 min 0,000 mm 0,0 UV-I 21 W/m 0,1 C -2,1 C 14,5 km/h (3 Bft) 100,00 %
12.12.2018 08:54 0,7 C 3,9 C 0,6 C 96 % 1021,0 hPa 0,0 l/m 8,4 km/h (2 Bft) W 275 0 min 0,000 mm 0,0 UV-I 26 W/m 0,1 C -1,3 C 12,9 km/h (3 Bft) 97,37 %
12.12.2018 08:56 0,7 C 3,9 C 0,6 C 96 % 1021,1 hPa 0,0 l/m 12,6 km/h (3 Bft) W-SW 254 0 min 0,000 mm 0,0 UV-I 29 W/m 0,1 C -4,6 C 17,7 km/h (3 Bft) 98,00 %
12.12.2018 08:58 0,7 C 3,9 C 0,6 C 96 % 1021,1 hPa 0,0 l/m 12,0 km/h (2 Bft) W 265 0 min 0,000 mm 0,0 UV-I 33 W/m 0,1 C -4,2 C 17,7 km/h (3 Bft) 97,87 %
12.12.2018 09:00 0,7 C 3,9 C 0,6 C 96 % 1021,1 hPa 0,0 l/m 11,5 km/h (2 Bft) W 277 0 min 0,000 mm 0,0 UV-I 37 W/m 0,1 C -3,8 C 17,7 km/h (3 Bft) 96,43 %
12.12.2018 09:02 0,7 C 3,9 C 1,1 C 96 % 1021,1 hPa 0,0 l/m 11,4 km/h (2 Bft) W 269 0 min 0,000 mm 0,0 UV-I 37 W/m 0,1 C -3,8 C 14,5 km/h (3 Bft) 100,00 %
12.12.2018 09:04 0,7 C 3,9 C 1,1 C 96 % 1021,1 hPa 0,0 l/m 11,0 km/h (2 Bft) W 263 0 min 0,000 mm 0,0 UV-I 36 W/m 0,1 C -3,5 C 17,7 km/h (3 Bft) 96,23 %
12.12.2018 09:06 0,7 C 3,9 C 1,1 C 96 % 1021,1 hPa 0,0 l/m 10,2 km/h (2 Bft) W-SW 252 0 min 0,000 mm 0,0 UV-I 34 W/m 0,1 C -2,8 C 14,5 km/h (3 Bft) 100,00 %
12.12.2018 09:08 0,7 C 3,9 C 1,1 C 96 % 1021,1 hPa 0,0 l/m 12,1 km/h (2 Bft) W-SW 249 0 min 0,000 mm 0,0 UV-I 33 W/m 0,1 C -4,3 C 16,1 km/h (3 Bft) 94,34 %
12.12.2018 09:10 0,7 C 3,9 C 1,1 C 96 % 1021,1 hPa 0,0 l/m 10,2 km/h (2 Bft) W-SW 253 0 min 0,000 mm 0,0 UV-I 37 W/m 0,1 C -2,8 C 16,1 km/h (3 Bft) 94,00 %
12.12.2018 09:12 0,7 C 3,9 C 1,1 C 96 % 1021,1 hPa 0,0 l/m 10,4 km/h (2 Bft) W 263 0 min 0,000 mm 0,0 UV-I 40 W/m 0,1 C -3,0 C 14,5 km/h (3 Bft) 97,73 %
12.12.2018 09:14 0,7 C 3,9 C 1,1 C 96 % 1021,1 hPa 0,0 l/m 9,2 km/h (2 Bft) W 265 0 min 0,000 mm 0,0 UV-I 39 W/m 0,1 C -2,0 C 14,5 km/h (3 Bft) 95,56 %
12.12.2018 09:16 0,8 C 3,9 C 1,1 C 96 % 1021,1 hPa 0,0 l/m 10,9 km/h (2 Bft) W-SW 258 0 min 0,000 mm 0,0 UV-I 40 W/m 0,2 C -3,3 C 14,5 km/h (3 Bft) 95,74 %
12.12.2018 09:18 0,8 C 3,9 C 1,1 C 96 % 1021,1 hPa 0,0 l/m 9,7 km/h (2 Bft) W 265 0 min 0,000 mm 0,0 UV-I 45 W/m 0,2 C -2,3 C 12,9 km/h (3 Bft) 94,74 %
12.12.2018 09:20 0,8 C 3,9 C 1,1 C 96 % 1021,1 hPa 0,0 l/m 7,9 km/h (2 Bft) W 268 0 min 0,000 mm 0,0 UV-I 44 W/m 0,2 C -0,7 C 12,9 km/h (3 Bft) 96,77 %
12.12.2018 09:22 0,8 C 3,9 C 1,1 C 96 % 1021,2 hPa 0,0 l/m 12,0 km/h (2 Bft) W-NW 292 0 min 0,000 mm 0,0 UV-I 42 W/m 0,2 C -4,1 C 16,1 km/h (3 Bft) 95,74 %
12.12.2018 09:24 0,8 C 3,9 C 1,1 C 96 % 1021,2 hPa 0,0 l/m 11,8 km/h (2 Bft) W 268 0 min 0,000 mm 0,0 UV-I 43 W/m 0,2 C -3,9 C 16,1 km/h (3 Bft) 100,00 %
12.12.2018 09:26 0,8 C 3,9 C 1,1 C 96 % 1021,2 hPa 0,0 l/m 12,2 km/h (2 Bft) W 263 0 min 0,000 mm 0,0 UV-I 49 W/m 0,2 C -4,2 C 16,1 km/h (3 Bft) 96,23 %
12.12.2018 09:28 0,8 C 3,9 C 1,1 C 96 % 1021,2 hPa 0,0 l/m 8,6 km/h (2 Bft) W 263 0 min 0,000 mm 0,0 UV-I 57 W/m 0,2 C -1,4 C 12,9 km/h (3 Bft) 97,56 %
12.12.2018 09:30 0,8 C 3,9 C 1,1 C 96 % 1021,2 hPa 0,0 l/m 9,3 km/h (2 Bft) W-SW 246 0 min 0,000 mm 0,0 UV-I 60 W/m 0,2 C -2,0 C 14,5 km/h (3 Bft) 98,21 %
12.12.2018 09:32 0,8 C 3,9 C 1,1 C 96 % 1021,3 hPa 0,0 l/m 11,4 km/h (2 Bft) W-SW 245 0 min 0,000 mm 0,0 UV-I 64 W/m 0,2 C -3,6 C 14,5 km/h (3 Bft) 92,11 %
12.12.2018 09:34 0,8 C 3,9 C 1,7 C 96 % 1021,3 hPa 0,0 l/m 12,3 km/h (3 Bft) W 271 0 min 0,000 mm 0,0 UV-I 69 W/m 0,2 C -4,3 C 16,1 km/h (3 Bft) 97,73 %
12.12.2018 09:36 0,9 C 3,9 C 1,7 C 96 % 1021,3 hPa 0,0 l/m 10,6 km/h (2 Bft) W 269 0 min 0,000 mm 0,0 UV-I 79 W/m 0,3 C -2,9 C 14,5 km/h (3 Bft) 96,23 %
12.12.2018 09:38 0,9 C 3,9 C 1,7 C 96 % 1021,3 hPa 0,0 l/m 11,7 km/h (2 Bft) W 271 0 min 0,000 mm 0,0 UV-I 68 W/m 0,3 C -3,8 C 16,1 km/h (3 Bft) 97,87 %
12.12.2018 09:40 0,9 C 3,9 C 1,7 C 96 % 1021,3 hPa 0,0 l/m 11,2 km/h (2 Bft) W 277 0 min 0,000 mm 0,0 UV-I 55 W/m 0,3 C -3,4 C 14,5 km/h (3 Bft) 95,35 %
12.12.2018 09:42 0,9 C 3,9 C 1,7 C 96 % 1021,3 hPa 0,0 l/m 12,0 km/h (2 Bft) W 265 0 min 0,000 mm 0,0 UV-I 67 W/m 0,3 C -4,0 C 17,7 km/h (3 Bft) 97,87 %
12.12.2018 09:44 0,9 C 3,9 C 1,7 C 96 % 1021,3 hPa 0,0 l/m 11,4 km/h (2 Bft) W 271 0 min 0,000 mm 0,0 UV-I 74 W/m 0,3 C -3,5 C 16,1 km/h (3 Bft) 96,00 %
12.12.2018 09:46 1,0 C 3,9 C 1,7 C 96 % 1021,3 hPa 0,0 l/m 12,5 km/h (3 Bft) W 261 0 min 0,000 mm 0,0 UV-I 74 W/m 0,4 C -4,2 C 16,1 km/h (3 Bft) 97,56 %
12.12.2018 09:48 1,0 C 3,9 C 1,7 C 96 % 1021,3 hPa 0,0 l/m 11,3 km/h (2 Bft) W-SW 257 0 min 0,000 mm 0,0 UV-I 78 W/m 0,4 C -3,3 C 16,1 km/h (3 Bft) 100,00 %
12.12.2018 09:50 1,1 C 3,9 C 1,7 C 96 % 1021,3 hPa 0,0 l/m 9,6 km/h (2 Bft) W-NW 287 0 min 0,000 mm 0,0 UV-I 74 W/m 0,5 C -1,9 C 14,5 km/h (3 Bft) 100,00 %
12.12.2018 09:52 1,1 C 3,9 C 1,7 C 96 % 1021,4 hPa 0,0 l/m 10,7 km/h (2 Bft) W 265 0 min 0,000 mm 0,0 UV-I 65 W/m 0,5 C -2,8 C 17,7 km/h (3 Bft) 100,00 %
12.12.2018 09:54 1,1 C 3,9 C 1,7 C 96 % 1021,3 hPa 0,0 l/m 9,4 km/h (2 Bft) W 263 0 min 0,000 mm 0,0 UV-I 59 W/m 0,5 C -1,7 C 12,9 km/h (3 Bft) 100,00 %
12.12.2018 09:56 1,1 C 3,9 C 1,7 C 96 % 1021,4 hPa 0,0 l/m 11,6 km/h (2 Bft) W 273 0 min 0,000 mm 0,0 UV-I 54 W/m 0,5 C -3,5 C 17,7 km/h (3 Bft) 97,87 %
12.12.2018 09:58 1,1 C 3,9 C 1,7 C 96 % 1021,4 hPa 0,0 l/m 9,6 km/h (2 Bft) W-SW 244 0 min 0,000 mm 0,0 UV-I 40 W/m 0,5 C -1,9 C 14,5 km/h (3 Bft) 98,00 %
12.12.2018 10:00 1,1 C 3,9 C 1,7 C 96 % 1021,4 hPa 0,0 l/m 9,5 km/h (2 Bft) W 271 0 min 0,025 mm 0,0 UV-I 45 W/m 0,5 C -1,8 C 12,9 km/h (3 Bft) 97,56 %
12.12.2018 10:02 1,1 C 3,9 C 1,7 C 96 % 1021,4 hPa 0,0 l/m 8,5 km/h (2 Bft) W 272 0 min 0,000 mm 0,0 UV-I 46 W/m 0,5 C -1,0 C 11,3 km/h (2 Bft) 100,00 %
12.12.2018 10:04 1,2 C 3,9 C 1,7 C 96 % 1021,4 hPa 0,0 l/m 7,3 km/h (2 Bft) W 265 0 min 0,000 mm 0,0 UV-I 33 W/m 0,6 C 0,3 C 11,3 km/h (2 Bft) 100,00 %
12.12.2018 10:06 1,2 C 3,9 C 1,7 C 96 % 1021,3 hPa 0,0 l/m 7,2 km/h (2 Bft) W-SW 251 0 min 0,000 mm 0,0 UV-I 30 W/m 0,6 C 0,4 C 11,3 km/h (2 Bft) 100,00 %
12.12.2018 10:09 1,1 C 3,9 C 1,7 C 96 % 1021,4 hPa 0,0 l/m 7,3 km/h (2 Bft) W 276 0 min 0,000 mm 0,0 UV-I 26 W/m 0,5 C 0,2 C 11,3 km/h (2 Bft) 100,00 %
12.12.2018 10:10 1,1 C 3,9 C 1,7 C 96 % 1021,4 hPa 0,0 l/m 6,9 km/h (2 Bft) W 261 0 min 0,000 mm 0,0 UV-I 24 W/m 0,5 C 0,6 C 14,5 km/h (3 Bft) 100,00 %
12.12.2018 10:12 1,1 C 3,9 C 1,7 C 96 % 1021,4 hPa 0,0 l/m 8,2 km/h (2 Bft) W-SW 246 0 min 0,000 mm 0,0 UV-I 25 W/m 0,5 C -0,7 C 14,5 km/h (3 Bft) 97,37 %
12.12.2018 10:14 1,1 C 3,9 C 1,1 C 96 % 1021,4 hPa 0,0 l/m 7,7 km/h (2 Bft) W-SW 250 0 min 0,000 mm 0,0 UV-I 21 W/m 0,5 C -0,2 C 11,3 km/h (2 Bft) 98,21 %
12.12.2018 10:16 1,1 C 3,9 C 1,1 C 96 % 1021,4 hPa 0,0 l/m 8,3 km/h (2 Bft) W-SW 248 0 min 0,000 mm 0,0 UV-I 24 W/m 0,5 C -0,8 C 14,5 km/h (3 Bft) 95,45 %
12.12.2018 10:18 1,0 C 3,9 C 1,1 C 96 % 1021,4 hPa 0,0 l/m 6,0 km/h (2 Bft) W 267 0 min 0,000 mm 0,0 UV-I 29 W/m 0,4 C 1,0 C 9,7 km/h (2 Bft) 98,11 %
12.12.2018 10:20 1,1 C 3,9 C 1,7 C 96 % 1021,5 hPa 0,0 l/m 5,4 km/h (1 Bft) W 276 0 min 0,000 mm 0,0 UV-I 37 W/m 0,5 C 1,1 C 9,7 km/h (2 Bft) 97,37 %
12.12.2018 10:22 1,1 C 3,9 C 1,7 C 96 % 1021,5 hPa 0,0 l/m 4,9 km/h (1 Bft) W 259 0 min 0,000 mm 0,0 UV-I 50 W/m 0,5 C 1,1 C 8,0 km/h (2 Bft) 97,87 %
12.12.2018 10:24 1,1 C 3,9 C 1,7 C 96 % 1021,5 hPa 0,0 l/m 5,7 km/h (1 Bft) W-SW 238 0 min 0,000 mm 0,0 UV-I 63 W/m 0,5 C 1,1 C 12,9 km/h (3 Bft) 98,08 %
12.12.2018 10:26 1,1 C 3,9 C 1,7 C 96 % 1021,5 hPa 0,0 l/m 8,5 km/h (2 Bft) W-SW 237 0 min 0,000 mm 0,0 UV-I 73 W/m 0,5 C -1,0 C 16,1 km/h (3 Bft) 94,87 %
12.12.2018 10:28 1,1 C 3,9 C 2,2 C 96 % 1021,5 hPa 0,0 l/m 9,9 km/h (2 Bft) W-SW 257 0 min 0,000 mm 0,0 UV-I 108 W/m 0,5 C -2,2 C 12,9 km/h (3 Bft) 94,23 %
12.12.2018 10:30 1,1 C 3,9 C 2,2 C 96 % 1021,5 hPa 0,0 l/m 6,8 km/h (2 Bft) W-SW 257 0 min 0,000 mm 0,0 UV-I 96 W/m 0,5 C 0,7 C 9,7 km/h (2 Bft) 98,00 %
12.12.2018 10:32 1,2 C 3,9 C 2,2 C 96 % 1021,6 hPa 0,0 l/m 8,2 km/h (2 Bft) W 270 0 min 0,000 mm 0,0 UV-I 90 W/m 0,6 C -0,6 C 12,9 km/h (3 Bft) 95,24 %
12.12.2018 10:34 1,2 C 3,9 C 2,2 C 96 % 1021,5 hPa 0,0 l/m 8,1 km/h (2 Bft) W-SW 248 0 min 0,000 mm 0,0 UV-I 97 W/m 0,6 C -0,5 C 12,9 km/h (3 Bft) 98,11 %
12.12.2018 10:36 1,2 C 3,9 C 2,2 C 96 % 1021,5 hPa 0,0 l/m 8,2 km/h (2 Bft) W 263 0 min 0,000 mm 0,0 UV-I 97 W/m 0,6 C -0,6 C 12,9 km/h (3 Bft) 100,00 %
12.12.2018 10:38 1,3 C 3,9 C 2,2 C 96 % 1021,4 hPa 0,0 l/m 10,4 km/h (2 Bft) SW 231 0 min 0,000 mm 0,0 UV-I 102 W/m 0,7 C -2,3 C 16,1 km/h (3 Bft) 98,00 %
12.12.2018 10:40 1,3 C 3,9 C 2,8 C 96 % 1021,4 hPa 0,0 l/m 8,2 km/h (2 Bft) W-SW 240 0 min 0,000 mm 0,0 UV-I 124 W/m 0,7 C -0,5 C 14,5 km/h (3 Bft) 100,00 %
12.12.2018 10:42 1,3 C 3,9 C 2,8 C 96 % 1021,4 hPa 0,0 l/m 10,0 km/h (2 Bft) SW 235 2 min 0,000 mm 0,0 UV-I 168 W/m 0,7 C -2,0 C 16,1 km/h (3 Bft) 100,00 %
12.12.2018 10:44 1,4 C 3,9 C 3,3 C 96 % 1021,3 hPa 0,0 l/m 9,5 km/h (2 Bft) W-SW 254 2 min 0,000 mm 0,0 UV-I 196 W/m 0,8 C -1,5 C 16,1 km/h (3 Bft) 98,00 %
12.12.2018 10:46 1,5 C 3,9 C 3,3 C 96 % 1021,3 hPa 0,0 l/m 11,3 km/h (2 Bft) W-SW 251 2 min 0,000 mm 0,0 UV-I 215 W/m 0,9 C -2,8 C 17,7 km/h (3 Bft) 100,00 %
12.12.2018 10:48 1,6 C 3,9 C 3,3 C 96 % 1021,3 hPa 0,0 l/m 11,9 km/h (2 Bft) W-SW 254 2 min 0,000 mm 0,0 UV-I 270 W/m 1,0 C -3,1 C 17,7 km/h (3 Bft) 96,00 %
12.12.2018 10:50 1,6 C 3,9 C 3,3 C 96 % 1021,3 hPa 0,0 l/m 10,3 km/h (2 Bft) S-SW 207 2 min 0,000 mm 0,0 UV-I 220 W/m 1,0 C -1,9 C 16,1 km/h (3 Bft) 97,87 %
12.12.2018 10:52 1,7 C 3,9 C 2,8 C 96 % 1021,4 hPa 0,0 l/m 9,6 km/h (2 Bft) SW 229 0 min 0,000 mm 0,0 UV-I 124 W/m 1,1 C -1,3 C 16,1 km/h (3 Bft) 94,74 %
12.12.2018 10:54 1,6 C 3,9 C 2,8 C 96 % 1021,4 hPa 0,0 l/m 14,3 km/h (3 Bft) W-SW 254 0 min 0,000 mm 0,0 UV-I 114 W/m 1,0 C -4,6 C 20,9 km/h (4 Bft) 95,74 %
12.12.2018 10:56 1,6 C 3,9 C 2,8 C 96 % 1021,4 hPa 0,0 l/m 12,3 km/h (3 Bft) SW 220 0 min 0,000 mm 0,0 UV-I 121 W/m 1,0 C -3,4 C 17,7 km/h (3 Bft) 98,11 %
12.12.2018 10:58 1,6 C 3,9 C 2,8 C 96 % 1021,4 hPa 0,0 l/m 10,2 km/h (2 Bft) W-SW 248 0 min 0,000 mm 0,0 UV-I 134 W/m 1,0 C -1,8 C 17,7 km/h (3 Bft) 98,00 %
12.12.2018 11:00 1,7 C 3,9 C 2,8 C 96 % 1021,3 hPa 0,0 l/m 9,3 km/h (2 Bft) W-SW 249 0 min 0,026 mm 0,0 UV-I 123 W/m 1,1 C -1,0 C 17,7 km/h (3 Bft) 97,87 %
12.12.2018 11:02 1,7 C 3,9 C 2,8 C 96 % 1021,4 hPa 0,0 l/m 10,4 km/h (2 Bft) SW 216 0 min 0,000 mm 0,0 UV-I 106 W/m 1,1 C -1,9 C 16,1 km/h (3 Bft) 95,83 %
12.12.2018 11:04 1,7 C 3,9 C 2,8 C 96 % 1021,3 hPa 0,0 l/m 15,2 km/h (3 Bft) W-SW 240 0 min 0,000 mm 0,0 UV-I 106 W/m 1,1 C -5,0 C 20,9 km/h (4 Bft) 98,36 %
12.12.2018 11:06 1,7 C 3,9 C 2,8 C 96 % 1021,3 hPa 0,0 l/m 11,4 km/h (2 Bft) W 262 0 min 0,000 mm 0,0 UV-I 146 W/m 1,1 C -2,6 C 19,3 km/h (3 Bft) 98,00 %
12.12.2018 11:08 1,7 C 3,9 C 3,3 C 95 % 1021,3 hPa 0,0 l/m 8,4 km/h (2 Bft) W 261 2 min 0,000 mm 0,0 UV-I 189 W/m 1,0 C -0,2 C 14,5 km/h (3 Bft) 97,87 %
12.12.2018 11:10 1,8 C 3,9 C 3,3 C 95 % 1021,3 hPa 0,0 l/m 10,3 km/h (2 Bft) SW 226 2 min 0,000 mm 0,0 UV-I 183 W/m 1,1 C -1,7 C 19,3 km/h (3 Bft) 97,92 %
12.12.2018 11:12 1,8 C 3,9 C 3,9 C 96 % 1021,3 hPa 0,0 l/m 12,2 km/h (2 Bft) W-SW 243 2 min 0,000 mm 0,0 UV-I 225 W/m 1,2 C -3,1 C 19,3 km/h (3 Bft) 93,62 %
12.12.2018 11:14 1,9 C 3,9 C 3,9 C 95 % 1021,2 hPa 0,0 l/m 10,2 km/h (2 Bft) SW 227 2 min 0,000 mm 0,0 UV-I 221 W/m 1,2 C -1,5 C 16,1 km/h (3 Bft) 94,74 %
12.12.2018 11:16 2,0 C 3,9 C 4,4 C 95 % 1021,2 hPa 0,0 l/m 11,8 km/h (2 Bft) SW 230 2 min 0,000 mm 0,0 UV-I 270 W/m 1,3 C -2,6 C 17,7 km/h (3 Bft) 94,34 %
12.12.2018 11:18 2,1 C 3,9 C 4,4 C 95 % 1021,2 hPa 0,0 l/m 11,8 km/h (2 Bft) SW 225 2 min 0,000 mm 0,0 UV-I 230 W/m 1,4 C -2,4 C 17,7 km/h (3 Bft) 95,74 %
12.12.2018 11:20 2,1 C 3,9 C 4,4 C 95 % 1021,2 hPa 0,0 l/m 11,6 km/h (2 Bft) W-SW 243 2 min 0,000 mm 0,0 UV-I 211 W/m 1,4 C -2,3 C 17,7 km/h (3 Bft) 96,00 %
12.12.2018 11:22 2,2 C 3,9 C 4,4 C 95 % 1021,2 hPa 0,0 l/m 11,3 km/h (2 Bft) W-SW 238 2 min 0,000 mm 0,0 UV-I 230 W/m 1,5 C -2,0 C 16,1 km/h (3 Bft) 96,00 %
12.12.2018 11:24 2,1 C 3,9 C 4,4 C 95 % 1021,2 hPa 0,0 l/m 9,7 km/h (2 Bft) SW 223 0 min 0,000 mm 0,0 UV-I 177 W/m 1,4 C -0,9 C 16,1 km/h (3 Bft) 95,45 %
12.12.2018 11:26 2,1 C 3,9 C 3,9 C 95 % 1021,2 hPa 0,0 l/m 11,2 km/h (2 Bft) S-SW 202 0 min 0,000 mm 0,0 UV-I 129 W/m 1,4 C -2,0 C 16,1 km/h (3 Bft) 92,00 %
12.12.2018 11:28 2,0 C 3,9 C 3,3 C 94 % 1021,2 hPa 0,0 l/m 10,5 km/h (2 Bft) W-SW 243 0 min 0,000 mm 0,0 UV-I 90 W/m 1,1 C -1,6 C 16,1 km/h (3 Bft) 89,47 %
12.12.2018 11:30 1,9 C 3,9 C 2,8 C 94 % 1021,2 hPa 0,0 l/m 9,9 km/h (2 Bft) W-SW 246 0 min 0,000 mm 0,0 UV-I 86 W/m 1,0 C -1,3 C 16,1 km/h (3 Bft) 94,00 %
12.12.2018 11:32 1,8 C 3,9 C 2,8 C 94 % 1021,2 hPa 0,0 l/m 11,8 km/h (2 Bft) SW 220 0 min 0,000 mm 0,0 UV-I 90 W/m 0,9 C -2,8 C 17,7 km/h (3 Bft) 92,45 %
12.12.2018 11:34 1,8 C 3,9 C 2,8 C 94 % 1021,2 hPa 0,0 l/m 11,7 km/h (2 Bft) W-SW 254 0 min 0,000 mm 0,0 UV-I 71 W/m 0,9 C -2,7 C 17,7 km/h (3 Bft) 94,29 %
12.12.2018 11:36 1,7 C 3,9 C 2,8 C 94 % 1021,2 hPa 0,0 l/m 11,2 km/h (2 Bft) SW 225 0 min 0,000 mm 0,0 UV-I 73 W/m 0,8 C -2,5 C 19,3 km/h (3 Bft) 93,22 %
12.12.2018 11:38 1,7 C 3,9 C 2,8 C 94 % 1021,1 hPa 0,0 l/m 11,3 km/h (2 Bft) W-SW 254 0 min 0,000 mm 0,0 UV-I 87 W/m 0,8 C -2,6 C 17,7 km/h (3 Bft) 92,11 %
12.12.2018 11:40 1,7 C 3,9 C 2,8 C 94 % 1021,1 hPa 0,0 l/m 12,7 km/h (3 Bft) W-SW 242 0 min 0,000 mm 0,0 UV-I 119 W/m 0,8 C -3,5 C 19,3 km/h (3 Bft) 94,34 %
12.12.2018 11:42 1,8 C 3,9 C 2,8 C 94 % 1021,1 hPa 0,0 l/m 11,0 km/h (2 Bft) W 273 0 min 0,000 mm 0,0 UV-I 141 W/m 0,9 C -2,2 C 19,3 km/h (3 Bft) 92,11 %
12.12.2018 11:44 1,8 C 3,9 C 3,3 C 94 % 1021,0 hPa 0,0 l/m 11,9 km/h (2 Bft) S-SW 209 0 min 0,000 mm 0,0 UV-I 172 W/m 0,9 C -2,9 C 17,7 km/h (3 Bft) 96,23 %
12.12.2018 11:46 1,8 C 3,9 C 3,3 C 94 % 1021,1 hPa 0,0 l/m 16,2 km/h (3 Bft) SW 236 2 min 0,000 mm 0,0 UV-I 198 W/m 0,9 C -5,5 C 27,4 km/h (4 Bft) 93,62 %
12.12.2018 11:48 1,9 C 3,9 C 3,3 C 94 % 1021,1 hPa 0,0 l/m 16,9 km/h (3 Bft) SW 219 2 min 0,000 mm 0,0 UV-I 184 W/m 1,0 C -5,7 C 22,5 km/h (4 Bft) 97,87 %
12.12.2018 11:50 1,9 C 3,9 C 3,3 C 94 % 1021,1 hPa 0,0 l/m 13,1 km/h (3 Bft) W-SW 238 2 min 0,000 mm 0,0 UV-I 182 W/m 1,0 C -3,5 C 20,9 km/h (4 Bft) 95,24 %
12.12.2018 11:52 1,9 C 3,9 C 3,3 C 94 % 1021,1 hPa 0,0 l/m 13,4 km/h (3 Bft) W-SW 246 0 min 0,000 mm 0,0 UV-I 176 W/m 1,0 C -3,7 C 19,3 km/h (3 Bft) 98,18 %
12.12.2018 11:54 2,0 C 3,9 C 3,9 C 94 % 1021,1 hPa 0,0 l/m 10,4 km/h (2 Bft) W 260 2 min 0,000 mm 0,0 UV-I 184 W/m 1,1 C -1,5 C 16,1 km/h (3 Bft) 97,62 %
12.12.2018 11:56 2,1 C 3,9 C 3,9 C 94 % 1021,1 hPa 0,0 l/m 12,1 km/h (2 Bft) W-SW 245 2 min 0,000 mm 0,0 UV-I 200 W/m 1,2 C -2,7 C 17,7 km/h (3 Bft) 96,00 %
12.12.2018 11:58 2,1 C 3,9 C 4,4 C 94 % 1021,2 hPa 0,0 l/m 12,2 km/h (2 Bft) SW 235 2 min 0,000 mm 0,0 UV-I 195 W/m 1,2 C -2,7 C 17,7 km/h (3 Bft) 98,00 %
12.12.2018 12:00 2,1 C 3,9 C 3,9 C 94 % 1021,1 hPa 0,0 l/m 14,2 km/h (3 Bft) SW 221 0 min 0,000 mm 0,0 UV-I 179 W/m 1,2 C -4,0 C 20,9 km/h (4 Bft) 92,11 %
12.12.2018 12:02 2,1 C 3,9 C 3,9 C 94 % 1021,1 hPa 0,0 l/m 11,1 km/h (2 Bft) SW 230 0 min 0,051 mm 0,0 UV-I 164 W/m 1,2 C -2,0 C 16,1 km/h (3 Bft) 98,11 %
12.12.2018 12:04 2,1 C 3,9 C 3,9 C 94 % 1021,2 hPa 0,0 l/m 10,2 km/h (2 Bft) SW 217 0 min 0,000 mm 0,0 UV-I 151 W/m 1,2 C -1,3 C 16,1 km/h (3 Bft) 97,87 %
12.12.2018 12:06 2,1 C 3,9 C 3,3 C 94 % 1021,2 hPa 0,0 l/m 12,8 km/h (3 Bft) S-SW 211 0 min 0,000 mm 0,0 UV-I 122 W/m 1,2 C -3,1 C 19,3 km/h (3 Bft) 97,87 %
12.12.2018 12:08 2,1 C 3,9 C 3,3 C 94 % 1021,2 hPa 0,0 l/m 12,5 km/h (3 Bft) W-SW 257 0 min 0,000 mm 0,0 UV-I 88 W/m 1,2 C -2,9 C 19,3 km/h (3 Bft) 96,00 %
12.12.2018 12:10 2,0 C 3,9 C 2,8 C 93 % 1021,2 hPa 0,0 l/m 11,8 km/h (2 Bft) W-SW 255 0 min 0,000 mm 0,0 UV-I 78 W/m 1,0 C -2,6 C 17,7 km/h (3 Bft) 96,15 %
12.12.2018 12:12 2,0 C 3,9 C 2,8 C 94 % 1021,2 hPa 0,0 l/m 12,8 km/h (3 Bft) W-SW 244 0 min 0,000 mm 0,0 UV-I 81 W/m 1,1 C -3,2 C 17,7 km/h (3 Bft) 97,06 %
12.12.2018 12:14 2,0 C 3,9 C 2,8 C 94 % 1021,2 hPa 0,0 l/m 13,9 km/h (3 Bft) W 271 0 min 0,000 mm 0,0 UV-I 83 W/m 1,1 C -3,9 C 20,9 km/h (4 Bft) 97,56 %
12.12.2018 12:16 2,0 C 3,9 C 2,8 C 94 % 1021,2 hPa 0,0 l/m 11,7 km/h (2 Bft) W-SW 242 0 min 0,000 mm 0,0 UV-I 69 W/m 1,1 C -2,5 C 16,1 km/h (3 Bft) 97,37 %
12.12.2018 12:18 1,9 C 3,9 C 2,8 C 94 % 1021,2 hPa 0,0 l/m 11,1 km/h (2 Bft) W-SW 242 0 min 0,000 mm 0,0 UV-I 69 W/m 1,0 C -2,2 C 19,3 km/h (3 Bft) 96,43 %
12.12.2018 12:20 1,9 C 3,9 C 2,8 C 94 % 1021,1 hPa 0,0 l/m 12,7 km/h (3 Bft) W-SW 247 0 min 0,000 mm 0,0 UV-I 69 W/m 1,0 C -3,3 C 19,3 km/h (3 Bft) 100,00 %
12.12.2018 12:22 1,9 C 3,9 C 2,8 C 94 % 1021,1 hPa 0,0 l/m 14,2 km/h (3 Bft) W 263 0 min 0,000 mm 0,0 UV-I 65 W/m 1,0 C -4,2 C 19,3 km/h (3 Bft) 100,00 %
12.12.2018 12:24 1,9 C 3,9 C 2,2 C 94 % 1021,1 hPa 0,0 l/m 9,7 km/h (2 Bft) W 265 0 min 0,000 mm 0,0 UV-I 56 W/m 1,0 C -1,1 C 16,1 km/h (3 Bft) 100,00 %
12.12.2018 12:26 1,9 C 3,9 C 2,2 C 94 % 1021,1 hPa 0,0 l/m 10,8 km/h (2 Bft) SW 236 0 min 0,000 mm 0,0 UV-I 48 W/m 1,0 C -2,0 C 14,5 km/h (3 Bft) 100,00 %
12.12.2018 12:28 1,9 C 3,9 C 2,2 C 94 % 1021,1 hPa 0,0 l/m 11,3 km/h (2 Bft) W 262 0 min 0,000 mm 0,0 UV-I 51 W/m 1,0 C -2,3 C 17,7 km/h (3 Bft) 100,00 %
12.12.2018 12:30 1,9 C 3,9 C 2,2 C 94 % 1021,1 hPa 0,0 l/m 10,4 km/h (2 Bft) W-SW 257 0 min 0,000 mm 0,0 UV-I 50 W/m 1,0 C -1,7 C 16,1 km/h (3 Bft) 100,00 %
12.12.2018 12:32 1,9 C 3,9 C 2,2 C 94 % 1021,1 hPa 0,0 l/m 10,2 km/h (2 Bft) SW 230 0 min 0,000 mm 0,0 UV-I 46 W/m 1,0 C -1,5 C 16,1 km/h (3 Bft) 100,00 %
12.12.2018 12:34 1,9 C 3,9 C 2,2 C 94 % 1021,1 hPa 0,0 l/m 12,2 km/h (2 Bft) W-SW 252 0 min 0,000 mm 0,0 UV-I 44 W/m 1,0 C -2,9 C 19,3 km/h (3 Bft) 98,00 %
12.12.2018 12:36 1,9 C 3,9 C 2,2 C 93 % 1021,1 hPa 0,0 l/m 8,7 km/h (2 Bft) W-SW 246 0 min 0,000 mm 0,0 UV-I 44 W/m 0,9 C -0,3 C 17,7 km/h (3 Bft) 100,00 %
12.12.2018 12:38 1,9 C 3,9 C 2,2 C 93 % 1021,1 hPa 0,0 l/m 10,5 km/h (2 Bft) W-SW 242 0 min 0,000 mm 0,0 UV-I 40 W/m 0,9 C -1,7 C 14,5 km/h (3 Bft) 100,00 %
12.12.2018 12:40 1,9 C 3,9 C 2,2 C 93 % 1021,1 hPa 0,0 l/m 13,4 km/h (3 Bft) W-SW 242 0 min 0,000 mm 0,0 UV-I 38 W/m 0,9 C -3,7 C 19,3 km/h (3 Bft) 100,00 %
12.12.2018 12:42 1,8 C 3,9 C 2,2 C 93 % 1021,1 hPa 0,0 l/m 13,9 km/h (3 Bft) SW 219 0 min 0,000 mm 0,0 UV-I 37 W/m 0,8 C -4,2 C 19,3 km/h (3 Bft) 96,00 %
12.12.2018 12:44 1,8 C 3,9 C 2,2 C 93 % 1021,1 hPa 0,0 l/m 10,0 km/h (2 Bft) W-SW 240 0 min 0,000 mm 0,0 UV-I 40 W/m 0,8 C -1,5 C 14,5 km/h (3 Bft) 96,00 %
12.12.2018 12:46 1,9 C 3,9 C 2,2 C 93 % 1021,1 hPa 0,0 l/m 11,5 km/h (2 Bft) SW 232 0 min 0,000 mm 0,0 UV-I 42 W/m 0,9 C -2,5 C 19,3 km/h (3 Bft) 97,14 %
12.12.2018 12:48 1,9 C 3,9 C 2,2 C 93 % 1021,1 hPa 0,0 l/m 11,0 km/h (2 Bft) SW 227 0 min 0,000 mm 0,0 UV-I 41 W/m 0,9 C -2,1 C 17,7 km/h (3 Bft) 98,31 %
12.12.2018 12:50 1,9 C 3,9 C 2,2 C 93 % 1021,1 hPa 0,0 l/m 10,5 km/h (2 Bft) SW 216 0 min 0,000 mm 0,0 UV-I 40 W/m 0,9 C -1,7 C 16,1 km/h (3 Bft) 97,56 %
12.12.2018 12:52 1,9 C 3,9 C 2,2 C 93 % 1021,1 hPa 0,0 l/m 15,7 km/h (3 Bft) W-SW 244 0 min 0,000 mm 0,0 UV-I 35 W/m 0,9 C -5,1 C 20,9 km/h (4 Bft) 98,00 %
12.12.2018 12:54 1,9 C 3,9 C 1,7 C 93 % 1021,1 hPa 0,0 l/m 11,3 km/h (2 Bft) W-SW 240 0 min 0,000 mm 0,0 UV-I 35 W/m 0,9 C -2,3 C 19,3 km/h (3 Bft) 97,37 %
12.12.2018 12:56 1,8 C 3,9 C 1,7 C 93 % 1021,2 hPa 0,0 l/m 9,5 km/h (2 Bft) W-SW 251 0 min 0,000 mm 0,0 UV-I 29 W/m 0,8 C -1,1 C 12,9 km/h (3 Bft) 96,23 %
12.12.2018 12:58 1,8 C 3,9 C 1,7 C 93 % 1021,1 hPa 0,0 l/m 8,7 km/h (2 Bft) SW 232 0 min 0,000 mm 0,0 UV-I 32 W/m 0,8 C -0,4 C 12,9 km/h (3 Bft) 95,74 %
12.12.2018 13:00 1,8 C 3,9 C 1,7 C 93 % 1021,1 hPa 0,0 l/m 10,1 km/h (2 Bft) SW 226 0 min 0,025 mm 0,0 UV-I 32 W/m 0,8 C -1,5 C 16,1 km/h (3 Bft) 94,34 %
12.12.2018 13:02 1,8 C 3,9 C 1,7 C 93 % 1021,1 hPa 0,0 l/m 14,2 km/h (3 Bft) W-SW 241 0 min 0,000 mm 0,0 UV-I 33 W/m 0,8 C -4,3 C 20,9 km/h (4 Bft) 97,56 %
12.12.2018 13:04 1,8 C 3,9 C 1,7 C 93 % 1021,1 hPa 0,0 l/m 15,3 km/h (3 Bft) SW 223 0 min 0,000 mm 0,0 UV-I 35 W/m 0,8 C -5,0 C 20,9 km/h (4 Bft) 100,00 %
12.12.2018 13:06 1,8 C 3,9 C 1,7 C 93 % 1021,2 hPa 0,0 l/m 11,8 km/h (2 Bft) W-SW 245 0 min 0,000 mm 0,0 UV-I 31 W/m 0,8 C -2,8 C 17,7 km/h (3 Bft) 100,00 %
12.12.2018 13:08 1,8 C 3,9 C 1,7 C 93 % 1021,1 hPa 0,0 l/m 11,3 km/h (2 Bft) SW 217 0 min 0,000 mm 0,0 UV-I 32 W/m 0,8 C -2,4 C 16,1 km/h (3 Bft) 98,39 %
12.12.2018 13:10 1,8 C 3,9 C 1,7 C 93 % 1021,1 hPa 0,0 l/m 12,2 km/h (2 Bft) W-SW 244 0 min 0,000 mm 0,0 UV-I 35 W/m 0,8 C -3,1 C 20,9 km/h (4 Bft) 95,12 %
12.12.2018 13:12 1,8 C 3,9 C 1,7 C 93 % 1021,1 hPa 0,0 l/m 11,6 km/h (2 Bft) S-SW 203 0 min 0,000 mm 0,0 UV-I 34 W/m 0,8 C -2,7 C 17,7 km/h (3 Bft) 96,00 %
12.12.2018 13:14 1,8 C 3,9 C 1,7 C 93 % 1021,1 hPa 0,0 l/m 12,5 km/h (3 Bft) SW 227 0 min 0,000 mm 0,0 UV-I 32 W/m 0,8 C -3,3 C 19,3 km/h (3 Bft) 97,56 %
12.12.2018 13:16 1,8 C 3,9 C 1,7 C 93 % 1021,1 hPa 0,0 l/m 13,5 km/h (3 Bft) W 265 0 min 0,000 mm 0,0 UV-I 32 W/m 0,8 C -3,9 C 19,3 km/h (3 Bft) 94,64 %
12.12.2018 13:18 1,8 C 3,9 C 1,7 C 92 % 1021,1 hPa 0,0 l/m 11,3 km/h (2 Bft) SW 219 0 min 0,000 mm 0,0 UV-I 37 W/m 0,6 C -2,4 C 17,7 km/h (3 Bft) 96,15 %
12.12.2018 13:20 1,8 C 3,9 C 1,7 C 92 % 1021,1 hPa 0,0 l/m 13,2 km/h (3 Bft) W 273 0 min 0,000 mm 0,0 UV-I 45 W/m 0,6 C -3,7 C 19,3 km/h (3 Bft) 98,46 %
12.12.2018 13:22 1,8 C 3,9 C 1,7 C 92 % 1021,0 hPa 0,0 l/m 15,9 km/h (3 Bft) W-SW 238 0 min 0,000 mm 0,0 UV-I 45 W/m 0,6 C -5,3 C 22,5 km/h (4 Bft) 98,00 %
12.12.2018 13:24 1,8 C 3,9 C 1,7 C 92 % 1021,0 hPa 0,0 l/m 16,1 km/h (3 Bft) SW 229 0 min 0,000 mm 0,0 UV-I 40 W/m 0,6 C -5,4 C 24,1 km/h (4 Bft) 97,87 %
12.12.2018 13:26 1,8 C 3,9 C 1,7 C 92 % 1021,0 hPa 0,0 l/m 11,9 km/h (2 Bft) W-SW 242 0 min 0,000 mm 0,0 UV-I 39 W/m 0,6 C -2,9 C 16,1 km/h (3 Bft) 96,00 %
12.12.2018 13:28 1,8 C 3,9 C 2,2 C 92 % 1021,0 hPa 0,0 l/m 10,6 km/h (2 Bft) W-SW 250 0 min 0,000 mm 0,0 UV-I 51 W/m 0,6 C -1,9 C 19,3 km/h (3 Bft) 97,87 %
12.12.2018 13:30 1,8 C 3,9 C 2,2 C 92 % 1021,0 hPa 0,0 l/m 11,3 km/h (2 Bft) W-SW 251 0 min 0,000 mm 0,0 UV-I 69 W/m 0,6 C -2,4 C 16,1 km/h (3 Bft) 97,87 %
12.12.2018 13:32 1,9 C 3,9 C 2,2 C 92 % 1021,0 hPa 0,0 l/m 13,4 km/h (3 Bft) SW 235 0 min 0,000 mm 0,0 UV-I 81 W/m 0,7 C -3,7 C 19,3 km/h (3 Bft) 97,14 %
12.12.2018 13:34 1,9 C 3,9 C 2,2 C 92 % 1020,9 hPa 0,0 l/m 15,6 km/h (3 Bft) SW 235 0 min 0,000 mm 0,0 UV-I 76 W/m 0,7 C -5,0 C 20,9 km/h (4 Bft) 96,00 %
12.12.2018 13:36 1,9 C 3,9 C 2,2 C 92 % 1020,9 hPa 0,0 l/m 16,0 km/h (3 Bft) SW 225 0 min 0,000 mm 0,0 UV-I 77 W/m 0,7 C -5,2 C 20,9 km/h (4 Bft) 98,00 %
12.12.2018 13:38 1,9 C 3,9 C 2,2 C 92 % 1020,9 hPa 0,0 l/m 15,0 km/h (3 Bft) S-SW 211 0 min 0,000 mm 0,0 UV-I 84 W/m 0,7 C -4,7 C 19,3 km/h (3 Bft) 97,37 %
12.12.2018 13:40 1,9 C 3,9 C 2,8 C 92 % 1020,9 hPa 0,0 l/m 13,8 km/h (3 Bft) SW 232 0 min 0,000 mm 0,0 UV-I 93 W/m 0,7 C -4,0 C 22,5 km/h (4 Bft) 98,11 %
12.12.2018 13:42 1,9 C 3,9 C 2,8 C 92 % 1020,9 hPa 0,0 l/m 17,9 km/h (3 Bft) SW 235 0 min 0,000 mm 0,0 UV-I 101 W/m 0,7 C -6,2 C 24,1 km/h (4 Bft) 97,87 %
12.12.2018 13:44 2,0 C 3,9 C 2,8 C 92 % 1020,9 hPa 0,0 l/m 15,7 km/h (3 Bft) W-SW 246 0 min 0,000 mm 0,0 UV-I 107 W/m 0,8 C -4,9 C 24,1 km/h (4 Bft) 100,00 %
12.12.2018 13:46 2,0 C 3,9 C 2,8 C 92 % 1020,9 hPa 0,0 l/m 8,9 km/h (2 Bft) SW 236 0 min 0,000 mm 0,0 UV-I 112 W/m 0,8 C -0,3 C 16,1 km/h (3 Bft) 100,00 %
12.12.2018 13:48 2,1 C 3,9 C 2,8 C 92 % 1020,9 hPa 0,0 l/m 11,4 km/h (2 Bft) SW 230 0 min 0,000 mm 0,0 UV-I 112 W/m 0,9 C -2,2 C 16,1 km/h (3 Bft) 97,62 %
12.12.2018 13:50 2,1 C 3,9 C 2,8 C 92 % 1020,9 hPa 0,0 l/m 9,5 km/h (2 Bft) SW 226 0 min 0,000 mm 0,0 UV-I 109 W/m 0,9 C -0,7 C 17,7 km/h (3 Bft) 100,00 %
12.12.2018 13:52 2,1 C 3,9 C 2,8 C 92 % 1020,9 hPa 0,0 l/m 13,5 km/h (3 Bft) W-SW 239 0 min 0,000 mm 0,0 UV-I 104 W/m 0,9 C -3,6 C 20,9 km/h (4 Bft) 100,00 %
12.12.2018 13:54 2,1 C 3,9 C 2,8 C 91 % 1020,9 hPa 0,0 l/m 12,3 km/h (3 Bft) W-SW 251 0 min 0,000 mm 0,0 UV-I 97 W/m 0,8 C -2,8 C 20,9 km/h (4 Bft) 100,00 %
12.12.2018 13:56 2,1 C 3,9 C 2,8 C 91 % 1020,8 hPa 0,0 l/m 12,9 km/h (3 Bft) SW 224 0 min 0,000 mm 0,0 UV-I 92 W/m 0,8 C -3,2 C 20,9 km/h (4 Bft) 97,37 %
12.12.2018 13:58 2,1 C 3,9 C 2,8 C 91 % 1020,8 hPa 0,0 l/m 13,1 km/h (3 Bft) SW 236 0 min 0,000 mm 0,0 UV-I 90 W/m 0,8 C -3,3 C 22,5 km/h (4 Bft) 95,74 %
12.12.2018 14:00 2,1 C 3,9 C 2,8 C 91 % 1020,8 hPa 0,0 l/m 15,7 km/h (3 Bft) W-SW 246 0 min 0,025 mm 0,0 UV-I 88 W/m 0,8 C -4,8 C 20,9 km/h (4 Bft) 96,55 %
12.12.2018 14:02 2,1 C 3,9 C 2,8 C 91 % 1020,8 hPa 0,0 l/m 17,2 km/h (3 Bft) W 267 0 min 0,000 mm 0,0 UV-I 87 W/m 0,8 C -5,6 C 24,1 km/h (4 Bft) 97,18 %
12.12.2018 14:04 2,1 C 3,9 C 2,8 C 91 % 1020,8 hPa 0,0 l/m 13,4 km/h (3 Bft) SW 220 0 min 0,000 mm 0,0 UV-I 85 W/m 0,8 C -3,5 C 22,5 km/h (4 Bft) 97,73 %
12.12.2018 14:06 2,1 C 3,9 C 2,2 C 91 % 1020,8 hPa 0,0 l/m 14,5 km/h (3 Bft) SW 224 0 min 0,000 mm 0,0 UV-I 83 W/m 0,8 C -4,2 C 20,9 km/h (4 Bft) 97,56 %
12.12.2018 14:08 2,1 C 3,9 C 2,2 C 91 % 1020,8 hPa 0,0 l/m 13,9 km/h (3 Bft) W-SW 238 0 min 0,000 mm 0,0 UV-I 82 W/m 0,8 C -3,8 C 19,3 km/h (3 Bft) 98,11 %
12.12.2018 14:10 2,1 C 3,9 C 2,2 C 91 % 1020,8 hPa 0,0 l/m 13,2 km/h (3 Bft) SW 231 0 min 0,000 mm 0,0 UV-I 88 W/m 0,8 C -3,4 C 19,3 km/h (3 Bft) 98,00 %
12.12.2018 14:12 2,1 C 3,9 C 2,8 C 91 % 1020,8 hPa 0,0 l/m 11,7 km/h (2 Bft) W-SW 250 0 min 0,000 mm 0,0 UV-I 94 W/m 0,8 C -2,4 C 19,3 km/h (3 Bft) 97,37 %
12.12.2018 14:14 2,1 C 3,9 C 2,8 C 91 % 1020,8 hPa 0,0 l/m 11,3 km/h (2 Bft) W-SW 251 0 min 0,000 mm 0,0 UV-I 91 W/m 0,8 C -2,1 C 17,7 km/h (3 Bft) 97,22 %
12.12.2018 14:16 2,1 C 3,9 C 2,8 C 91 % 1020,8 hPa 0,0 l/m 14,3 km/h (3 Bft) W 262 0 min 0,000 mm 0,0 UV-I 90 W/m 0,8 C -4,0 C 20,9 km/h (4 Bft) 98,51 %
12.12.2018 14:18 2,1 C 3,9 C 2,8 C 91 % 1020,8 hPa 0,0 l/m 13,5 km/h (3 Bft) W-SW 248 0 min 0,000 mm 0,0 UV-I 90 W/m 0,8 C -3,6 C 19,3 km/h (3 Bft) 95,12 %
12.12.2018 14:20 2,1 C 3,9 C 2,8 C 91 % 1020,8 hPa 0,0 l/m 9,1 km/h (2 Bft) SW 229 0 min 0,000 mm 0,0 UV-I 95 W/m 0,8 C -0,4 C 14,5 km/h (3 Bft) 98,00 %
12.12.2018 14:22 2,1 C 3,9 C 2,8 C 91 % 1020,8 hPa 0,0 l/m 10,4 km/h (2 Bft) W-SW 243 0 min 0,000 mm 0,0 UV-I 99 W/m 0,8 C -1,4 C 16,1 km/h (3 Bft) 97,62 %
12.12.2018 14:24 2,1 C 3,9 C 2,8 C 91 % 1020,7 hPa 0,0 l/m 10,0 km/h (2 Bft) W-SW 242 0 min 0,000 mm 0,0 UV-I 100 W/m 0,8 C -1,1 C 14,5 km/h (3 Bft) 96,36 %
12.12.2018 14:26 2,1 C 3,9 C 2,8 C 91 % 1020,8 hPa 0,0 l/m 12,2 km/h (2 Bft) SW 231 0 min 0,000 mm 0,0 UV-I 98 W/m 0,8 C -2,7 C 17,7 km/h (3 Bft) 100,00 %
12.12.2018 14:28 2,1 C 3,9 C 2,8 C 91 % 1020,8 hPa 0,0 l/m 12,2 km/h (2 Bft) W-SW 258 0 min 0,000 mm 0,0 UV-I 97 W/m 0,8 C -2,7 C 19,3 km/h (3 Bft) 100,00 %
12.12.2018 14:30 2,1 C 3,9 C 2,8 C 91 % 1020,8 hPa 0,0 l/m 8,9 km/h (2 Bft) W 261 0 min 0,000 mm 0,0 UV-I 97 W/m 0,8 C -0,2 C 12,9 km/h (3 Bft) 98,39 %
12.12.2018 14:32 2,1 C 3,9 C 2,8 C 91 % 1020,7 hPa 0,0 l/m 14,1 km/h (3 Bft) W-SW 240 0 min 0,000 mm 0,0 UV-I 97 W/m 0,8 C -3,9 C 20,9 km/h (4 Bft) 100,00 %
12.12.2018 14:34 2,1 C 3,9 C 2,8 C 91 % 1020,7 hPa 0,0 l/m 9,5 km/h (2 Bft) W 261 0 min 0,000 mm 0,0 UV-I 93 W/m 0,8 C -0,7 C 16,1 km/h (3 Bft) 100,00 %
12.12.2018 14:36 2,1 C 3,9 C 2,8 C 91 % 1020,7 hPa 0,0 l/m 10,1 km/h (2 Bft) W-SW 257 0 min 0,000 mm 0,0 UV-I 89 W/m 0,8 C -1,2 C 17,7 km/h (3 Bft) 100,00 %
12.12.2018 14:38 2,1 C 3,9 C 2,8 C 91 % 1020,8 hPa 0,0 l/m 13,0 km/h (3 Bft) W-SW 256 0 min 0,000 mm 0,0 UV-I 88 W/m 0,8 C -3,2 C 17,7 km/h (3 Bft) 100,00 %
12.12.2018 14:40 2,1 C 3,9 C 2,8 C 91 % 1020,8 hPa 0,0 l/m 11,0 km/h (2 Bft) W-SW 244 0 min 0,000 mm 0,0 UV-I 86 W/m 0,8 C -1,9 C 16,1 km/h (3 Bft) 100,00 %
12.12.2018 14:42 2,1 C 3,9 C 2,2 C 91 % 1020,8 hPa 0,0 l/m 13,7 km/h (3 Bft) W 263 0 min 0,000 mm 0,0 UV-I 95 W/m 0,8 C -3,7 C 19,3 km/h (3 Bft) 100,00 %
12.12.2018 14:44 2,1 C 3,9 C 2,2 C 91 % 1020,8 hPa 0,0 l/m 11,0 km/h (2 Bft) W 264 0 min 0,000 mm 0,0 UV-I 90 W/m 0,8 C -1,9 C 16,1 km/h (3 Bft) 100,00 %
12.12.2018 14:46 2,1 C 3,9 C 2,2 C 91 % 1020,8 hPa 0,0 l/m 11,8 km/h (2 Bft) W 261 0 min 0,000 mm 0,0 UV-I 77 W/m 0,8 C -2,4 C 17,7 km/h (3 Bft) 100,00 %
12.12.2018 14:48 2,1 C 3,9 C 2,2 C 91 % 1020,8 hPa 0,0 l/m 9,9 km/h (2 Bft) SW 235 0 min 0,000 mm 0,0 UV-I 77 W/m 0,8 C -1,1 C 17,7 km/h (3 Bft) 100,00 %
12.12.2018 14:50 2,1 C 3,9 C 2,2 C 91 % 1020,8 hPa 0,0 l/m 13,2 km/h (3 Bft) W-SW 256 2 min 0,000 mm 0,0 UV-I 88 W/m 0,8 C -3,4 C 19,3 km/h (3 Bft) 98,21 %
12.12.2018 14:52 2,1 C 3,9 C 2,2 C 91 % 1020,8 hPa 0,0 l/m 10,0 km/h (2 Bft) W-SW 248 2 min 0,000 mm 0,0 UV-I 103 W/m 0,8 C -1,1 C 16,1 km/h (3 Bft) 100,00 %
12.12.2018 14:54 2,1 C 3,9 C 2,2 C 91 % 1020,7 hPa 0,0 l/m 15,0 km/h (3 Bft) W-SW 248 2 min 0,000 mm 0,0 UV-I 87 W/m 0,8 C -4,4 C 20,9 km/h (4 Bft) 98,21 %
12.12.2018 14:56 2,1 C 3,9 C 2,2 C 91 % 1020,8 hPa 0,0 l/m 11,2 km/h (2 Bft) SW 223 2 min 0,000 mm 0,0 UV-I 105 W/m 0,8 C -2,0 C 17,7 km/h (3 Bft) 100,00 %
12.12.2018 14:58 2,1 C 3,9 C 2,2 C 91 % 1020,7 hPa 0,0 l/m 9,6 km/h (2 Bft) W-SW 252 2 min 0,000 mm 0,0 UV-I 106 W/m 0,8 C -0,8 C 17,7 km/h (3 Bft) 100,00 %
12.12.2018 15:00 2,2 C 3,9 C 2,2 C 91 % 1020,7 hPa 0,0 l/m 10,3 km/h (2 Bft) SW 221 2 min 0,051 mm 0,0 UV-I 114 W/m 0,9 C -1,3 C 16,1 km/h (3 Bft) 100,00 %
12.12.2018 15:02 2,2 C 3,9 C 2,2 C 91 % 1020,7 hPa 0,0 l/m 11,4 km/h (2 Bft) SW 227 2 min 0,000 mm 0,0 UV-I 107 W/m 0,9 C -2,1 C 17,7 km/h (3 Bft) 98,31 %
12.12.2018 15:04 2,2 C 3,9 C 2,2 C 91 % 1020,7 hPa 0,0 l/m 13,9 km/h (3 Bft) W-SW 238 2 min 0,000 mm 0,0 UV-I 103 W/m 0,9 C -3,7 C 19,3 km/h (3 Bft) 100,00 %
12.12.2018 15:06 2,2 C 3,9 C 2,2 C 91 % 1020,7 hPa 0,0 l/m 12,4 km/h (3 Bft) SW 234 2 min 0,000 mm 0,0 UV-I 102 W/m 0,9 C -2,7 C 17,7 km/h (3 Bft) 100,00 %
12.12.2018 15:08 2,2 C 3,9 C 2,2 C 91 % 1020,7 hPa 0,0 l/m 11,5 km/h (2 Bft) SW 235 2 min 0,000 mm 0,0 UV-I 94 W/m 0,9 C -2,1 C 22,5 km/h (4 Bft) 96,23 %
12.12.2018 15:10 2,2 C 3,9 C 2,2 C 91 % 1020,7 hPa 0,0 l/m 10,4 km/h (2 Bft) W-NW 292 2 min 0,000 mm 0,0 UV-I 88 W/m 0,9 C -1,3 C 17,7 km/h (3 Bft) 100,00 %
12.12.2018 15:12 2,2 C 3,9 C 2,2 C 91 % 1020,7 hPa 0,0 l/m 9,9 km/h (2 Bft) W 270 2 min 0,000 mm 0,0 UV-I 73 W/m 0,9 C -0,9 C 16,1 km/h (3 Bft) 100,00 %
12.12.2018 15:14 2,2 C 3,9 C 2,2 C 91 % 1020,6 hPa 0,0 l/m 12,9 km/h (3 Bft) W-SW 242 0 min 0,000 mm 0,0 UV-I 55 W/m 0,9 C -3,1 C 19,3 km/h (3 Bft) 98,00 %
12.12.2018 15:16 2,1 C 3,9 C 2,2 C 90 % 1020,7 hPa 0,0 l/m 9,2 km/h (2 Bft) W-SW 245 0 min 0,000 mm 0,0 UV-I 49 W/m 0,6 C -0,5 C 14,5 km/h (3 Bft) 96,23 %
12.12.2018 15:18 2,1 C 3,9 C 1,7 C 90 % 1020,6 hPa 0,0 l/m 14,8 km/h (3 Bft) W-SW 238 0 min 0,000 mm 0,0 UV-I 46 W/m 0,6 C -4,3 C 19,3 km/h (3 Bft) 94,29 %
12.12.2018 15:20 2,0 C 3,9 C 1,7 C 90 % 1020,6 hPa 0,0 l/m 13,5 km/h (3 Bft) W-SW 254 0 min 0,000 mm 0,0 UV-I 46 W/m 0,5 C -3,7 C 20,9 km/h (4 Bft) 96,43 %
12.12.2018 15:22 1,9 C 3,9 C 1,7 C 90 % 1020,6 hPa 0,0 l/m 12,6 km/h (3 Bft) SW 236 0 min 0,000 mm 0,0 UV-I 44 W/m 0,4 C -3,2 C 22,5 km/h (4 Bft) 94,74 %
12.12.2018 15:24 1,9 C 3,9 C 1,7 C 91 % 1020,6 hPa 0,0 l/m 14,1 km/h (3 Bft) SW 228 0 min 0,000 mm 0,0 UV-I 39 W/m 0,6 C -4,2 C 19,3 km/h (3 Bft) 96,00 %
12.12.2018 15:26 1,8 C 3,9 C 1,7 C 91 % 1020,6 hPa 0,0 l/m 13,2 km/h (3 Bft) W-SW 248 0 min 0,000 mm 0,0 UV-I 39 W/m 0,5 C -3,7 C 19,3 km/h (3 Bft) 91,49 %
12.12.2018 15:28 1,8 C 3,9 C 1,7 C 91 % 1020,6 hPa 0,0 l/m 16,3 km/h (3 Bft) SW 227 0 min 0,000 mm 0,0 UV-I 39 W/m 0,5 C -5,5 C 24,1 km/h (4 Bft) 90,00 %
12.12.2018 15:30 1,8 C 3,9 C 1,7 C 91 % 1020,6 hPa 0,0 l/m 15,5 km/h (3 Bft) SW 232 0 min 0,000 mm 0,0 UV-I 39 W/m 0,5 C -5,1 C 24,1 km/h (4 Bft) 92,00 %
12.12.2018 15:32 1,7 C 3,9 C 1,1 C 91 % 1020,6 hPa 0,0 l/m 14,9 km/h (3 Bft) S-SW 207 0 min 0,000 mm 0,0 UV-I 36 W/m 0,4 C -4,9 C 22,5 km/h (4 Bft) 95,74 %
12.12.2018 15:34 1,7 C 3,9 C 1,1 C 91 % 1020,6 hPa 0,0 l/m 14,8 km/h (3 Bft) W-SW 248 0 min 0,000 mm 0,0 UV-I 35 W/m 0,4 C -4,8 C 22,5 km/h (4 Bft) 92,11 %
12.12.2018 15:36 1,7 C 3,9 C 1,1 C 91 % 1020,6 hPa 0,0 l/m 12,9 km/h (3 Bft) W-SW 257 0 min 0,000 mm 0,0 UV-I 33 W/m 0,4 C -3,6 C 20,9 km/h (4 Bft) 93,62 %
12.12.2018 15:38 1,6 C 3,9 C 1,1 C 91 % 1020,6 hPa 0,0 l/m 12,2 km/h (2 Bft) SW 223 0 min 0,000 mm 0,0 UV-I 32 W/m 0,3 C -3,3 C 19,3 km/h (3 Bft) 95,83 %
12.12.2018 15:40 1,6 C 3,9 C 1,1 C 91 % 1020,6 hPa 0,0 l/m 10,9 km/h (2 Bft) SW 223 0 min 0,000 mm 0,0 UV-I 30 W/m 0,3 C -2,4 C 16,1 km/h (3 Bft) 96,00 %
12.12.2018 15:42 1,6 C 3,9 C 1,1 C 91 % 1020,7 hPa 0,0 l/m 14,1 km/h (3 Bft) SW 219 0 min 0,000 mm 0,0 UV-I 28 W/m 0,3 C -4,5 C 20,9 km/h (4 Bft) 95,74 %
12.12.2018 15:44 1,5 C 3,9 C 1,1 C 91 % 1020,6 hPa 0,0 l/m 15,2 km/h (3 Bft) SW 234 2 min 0,000 mm 0,0 UV-I 27 W/m 0,2 C -5,3 C 24,1 km/h (4 Bft) 92,11 %
12.12.2018 15:46 1,5 C 3,9 C 1,1 C 91 % 1020,6 hPa 0,0 l/m 14,1 km/h (3 Bft) SW 225 2 min 0,000 mm 0,0 UV-I 25 W/m 0,2 C -4,6 C 22,5 km/h (4 Bft) 92,98 %
12.12.2018 15:49 1,4 C 3,9 C 1,1 C 91 % 1020,7 hPa 0,0 l/m 13,1 km/h (3 Bft) W 261 3 min 0,000 mm 0,0 UV-I 23 W/m 0,1 C -4,1 C 20,9 km/h (4 Bft) 95,52 %
12.12.2018 15:50 1,4 C 3,9 C 1,1 C 91 % 1020,7 hPa 0,0 l/m 9,8 km/h (2 Bft) W-SW 244 1 min 0,000 mm 0,0 UV-I 21 W/m 0,1 C -1,7 C 17,7 km/h (3 Bft) 96,30 %
12.12.2018 15:52 1,4 C 3,9 C 0,6 C 91 % 1020,7 hPa 0,0 l/m 13,0 km/h (3 Bft) W-SW 250 2 min 0,000 mm 0,0 UV-I 20 W/m 0,1 C -4,1 C 22,5 km/h (4 Bft) 95,74 %
12.12.2018 15:54 1,3 C 3,9 C 0,6 C 92 % 1020,7 hPa 0,0 l/m 14,0 km/h (3 Bft) W-SW 248 2 min 0,000 mm 0,0 UV-I 18 W/m 0,1 C -4,8 C 20,9 km/h (4 Bft) 98,00 %
12.12.2018 15:56 1,3 C 3,9 C 0,6 C 92 % 1020,7 hPa 0,0 l/m 12,8 km/h (3 Bft) W 263 2 min 0,000 mm 0,0 UV-I 16 W/m 0,1 C -4,0 C 22,5 km/h (4 Bft) 97,87 %
12.12.2018 15:58 1,3 C 3,9 C 0,6 C 92 % 1020,7 hPa 0,0 l/m 9,8 km/h (2 Bft) W-SW 244 0 min 0,000 mm 0,0 UV-I 15 W/m 0,1 C -1,9 C 16,1 km/h (3 Bft) 97,87 %
12.12.2018 16:00 1,3 C 3,9 C 0,6 C 92 % 1020,7 hPa 0,0 l/m 11,7 km/h (2 Bft) SW 225 0 min 0,026 mm 0,0 UV-I 12 W/m 0,1 C -3,3 C 17,7 km/h (3 Bft) 95,74 %
12.12.2018 16:02 1,3 C 3,9 C 0,6 C 92 % 1020,6 hPa 0,0 l/m 11,6 km/h (2 Bft) SW 232 0 min 0,000 mm 0,0 UV-I 11 W/m 0,1 C -3,2 C 17,7 km/h (3 Bft) 92,59 %
12.12.2018 16:04 1,3 C 3,9 C 0,6 C 91 % 1020,6 hPa 0,0 l/m 9,3 km/h (2 Bft) SW 226 0 min 0,000 mm 0,0 UV-I 10 W/m -0,0 C -1,4 C 14,5 km/h (3 Bft) 98,44 %
12.12.2018 16:06 1,2 C 3,9 C 0,6 C 91 % 1020,7 hPa 0,0 l/m 10,1 km/h (2 Bft) W-SW 250 0 min 0,000 mm 0,0 UV-I 9 W/m -0,1 C -2,2 C 17,7 km/h (3 Bft) 97,62 %
12.12.2018 16:08 1,2 C 3,9 C 0,6 C 92 % 1020,6 hPa 0,0 l/m 9,3 km/h (2 Bft) W-SW 248 0 min 0,000 mm 0,0 UV-I 7 W/m 0,0 C -1,5 C 16,1 km/h (3 Bft) 98,00 %
12.12.2018 16:10 1,2 C 3,9 C 0,6 C 92 % 1020,6 hPa 0,0 l/m 11,0 km/h (2 Bft) SW 221 0 min 0,000 mm 0,0 UV-I 7 W/m 0,0 C -2,9 C 16,1 km/h (3 Bft) 94,74 %
12.12.2018 16:12 1,1 C 3,9 C 0,6 C 92 % 1020,6 hPa 0,0 l/m 11,5 km/h (2 Bft) SW 235 0 min 0,000 mm 0,0 UV-I 7 W/m -0,1 C -3,4 C 17,7 km/h (3 Bft) 98,11 %
12.12.2018 16:14 1,1 C 3,9 C 0,0 C 92 % 1020,6 hPa 0,0 l/m 6,8 km/h (2 Bft) SW 234 0 min 0,000 mm 0,0 UV-I 6 W/m -0,1 C 0,7 C 12,9 km/h (3 Bft) 96,00 %
12.12.2018 16:16 1,1 C 3,9 C 0,0 C 92 % 1020,6 hPa 0,0 l/m 11,0 km/h (2 Bft) W-SW 244 0 min 0,000 mm 0,0 UV-I 5 W/m -0,1 C -3,0 C 19,3 km/h (3 Bft) 98,00 %
12.12.2018 16:18 1,1 C 3,9 C 0,0 C 92 % 1020,7 hPa 0,0 l/m 11,4 km/h (2 Bft) W-SW 252 0 min 0,000 mm 0,0 UV-I 5 W/m -0,1 C -3,3 C 19,3 km/h (3 Bft) 97,87 %
12.12.2018 16:20 1,0 C 3,9 C 0,0 C 92 % 1020,7 hPa 0,0 l/m 10,1 km/h (2 Bft) W-SW 253 0 min 0,000 mm 0,0 UV-I 5 W/m -0,2 C -2,4 C 16,1 km/h (3 Bft) 97,73 %
12.12.2018 16:22 1,1 C 3,9 C 0,0 C 92 % 1020,6 hPa 0,0 l/m 12,4 km/h (3 Bft) W-SW 254 0 min 0,000 mm 0,0 UV-I 5 W/m -0,1 C -4,0 C 17,7 km/h (3 Bft) 94,00 %
12.12.2018 16:24 1,1 C 3,9 C 0,0 C 92 % 1020,6 hPa 0,0 l/m 10,1 km/h (2 Bft) SW 234 0 min 0,000 mm 0,0 UV-I 5 W/m -0,1 C -2,3 C 14,5 km/h (3 Bft) 97,56 %
12.12.2018 16:26 1,0 C 3,9 C 0,6 C 92 % 1020,6 hPa 0,0 l/m 12,4 km/h (3 Bft) W-SW 257 0 min 0,000 mm 0,0 UV-I 0 W/m -0,2 C -4,1 C 19,3 km/h (3 Bft) 98,00 %
12.12.2018 16:28 1,0 C 3,9 C 0,6 C 92 % 1020,6 hPa 0,0 l/m 10,7 km/h (2 Bft) SW 232 0 min 0,000 mm 0,0 UV-I 0 W/m -0,2 C -2,9 C 17,7 km/h (3 Bft) 97,87 %
12.12.2018 16:30 1,0 C 3,9 C 0,6 C 92 % 1020,6 hPa 0,0 l/m 11,9 km/h (2 Bft) SW 229 0 min 0,000 mm 0,0 UV-I 0 W/m -0,2 C -3,8 C 17,7 km/h (3 Bft) 100,00 %
12.12.2018 16:32 1,0 C 3,9 C 0,6 C 92 % 1020,5 hPa 0,0 l/m 13,6 km/h (3 Bft) W 259 0 min 0,000 mm 0,0 UV-I 0 W/m -0,2 C -4,9 C 20,9 km/h (4 Bft) 98,21 %
12.12.2018 16:34 1,0 C 3,9 C 0,6 C 92 % 1020,6 hPa 0,0 l/m 13,3 km/h (3 Bft) SW 229 0 min 0,000 mm 0,0 UV-I 0 W/m -0,2 C -4,7 C 17,7 km/h (3 Bft) 97,37 %
12.12.2018 16:36 1,0 C 3,9 C 0,6 C 92 % 1020,5 hPa 0,0 l/m 10,5 km/h (2 Bft) SW 225 0 min 0,000 mm 0,0 UV-I 0 W/m -0,2 C -2,7 C 16,1 km/h (3 Bft) 98,21 %
12.12.2018 16:38 1,0 C 3,9 C 0,6 C 92 % 1020,6 hPa 0,0 l/m 12,7 km/h (3 Bft) W-SW 255 0 min 0,000 mm 0,0 UV-I 0 W/m -0,2 C -4,3 C 16,1 km/h (3 Bft) 97,56 %
12.12.2018 16:40 1,0 C 3,9 C 0,6 C 92 % 1020,6 hPa 0,0 l/m 9,2 km/h (2 Bft) SW 231 0 min 0,000 mm 0,0 UV-I 0 W/m -0,2 C -1,7 C 12,9 km/h (3 Bft) 97,87 %
12.12.2018 16:42 1,0 C 3,9 C 0,6 C 92 % 1020,5 hPa 0,0 l/m 9,9 km/h (2 Bft) SW 217 0 min 0,000 mm 0,0 UV-I 0 W/m -0,2 C -2,3 C 16,1 km/h (3 Bft) 93,62 %
12.12.2018 16:44 1,0 C 3,9 C 0,6 C 92 % 1020,6 hPa 0,0 l/m 11,2 km/h (2 Bft) W 265 0 min 0,000 mm 0,0 UV-I 0 W/m -0,2 C -3,3 C 16,1 km/h (3 Bft) 96,23 %
12.12.2018 16:46 1,0 C 3,9 C 0,6 C 92 % 1020,6 hPa 0,0 l/m 10,3 km/h (2 Bft) W 277 0 min 0,000 mm 0,0 UV-I 0 W/m -0,2 C -2,6 C 14,5 km/h (3 Bft) 100,00 %
12.12.2018 16:48 1,0 C 3,9 C 0,6 C 92 % 1020,5 hPa 0,0 l/m 9,7 km/h (2 Bft) W-NW 287 0 min 0,000 mm 0,0 UV-I 0 W/m -0,2 C -2,1 C 17,7 km/h (3 Bft) 96,00 %
12.12.2018 16:50 1,0 C 3,9 C 0,6 C 92 % 1020,6 hPa 0,0 l/m 10,0 km/h (2 Bft) W 262 0 min 0,000 mm 0,0 UV-I 0 W/m -0,2 C -2,3 C 14,5 km/h (3 Bft) 100,00 %
12.12.2018 16:52 1,0 C 3,9 C 0,6 C 92 % 1020,5 hPa 0,0 l/m 10,2 km/h (2 Bft) W 260 0 min 0,000 mm 0,0 UV-I 0 W/m -0,2 C -2,5 C 16,1 km/h (3 Bft) 98,11 %
12.12.2018 16:54 1,0 C 3,9 C 0,6 C 92 % 1020,5 hPa 0,0 l/m 8,8 km/h (2 Bft) W 263 0 min 0,000 mm 0,0 UV-I 0 W/m -0,2 C -1,3 C 12,9 km/h (3 Bft) 97,56 %
12.12.2018 16:56 1,0 C 3,9 C 0,6 C 92 % 1020,5 hPa 0,0 l/m 9,3 km/h (2 Bft) W 269 0 min 0,000 mm 0,0 UV-I 0 W/m -0,2 C -1,8 C 12,9 km/h (3 Bft) 100,00 %
12.12.2018 16:58 1,0 C 3,9 C 0,6 C 92 % 1020,5 hPa 0,0 l/m 9,9 km/h (2 Bft) W-SW 237 0 min 0,000 mm 0,0 UV-I 0 W/m -0,2 C -2,3 C 17,7 km/h (3 Bft) 100,00 %
12.12.2018 17:00 1,0 C 3,9 C 0,6 C 92 % 1020,5 hPa 0,0 l/m 12,5 km/h (3 Bft) W-NW 285 0 min 0,000 mm 0,0 UV-I 0 W/m -0,2 C -4,2 C 20,9 km/h (4 Bft) 100,00 %
12.12.2018 17:02 1,1 C 3,9 C 0,6 C 92 % 1020,5 hPa 0,0 l/m 11,3 km/h (2 Bft) W 262 0 min 0,000 mm 0,0 UV-I 0 W/m -0,1 C -3,2 C 17,7 km/h (3 Bft) 96,77 %
12.12.2018 17:04 1,1 C 3,9 C 0,6 C 92 % 1020,6 hPa 0,0 l/m 8,9 km/h (2 Bft) W-SW 238 0 min 0,000 mm 0,0 UV-I 0 W/m -0,1 C -1,3 C 14,5 km/h (3 Bft) 100,00 %
12.12.2018 17:06 1,1 C 3,9 C 0,6 C 92 % 1020,6 hPa 0,0 l/m 11,3 km/h (2 Bft) W 260 0 min 0,000 mm 0,0 UV-I 0 W/m -0,1 C -3,2 C 19,3 km/h (3 Bft) 97,87 %
12.12.2018 17:08 1,1 C 3,9 C 0,6 C 92 % 1020,6 hPa 0,0 l/m 9,3 km/h (2 Bft) W-SW 254 0 min 0,000 mm 0,0 UV-I 0 W/m -0,1 C -1,7 C 14,5 km/h (3 Bft) 100,00 %
12.12.2018 17:10 1,1 C 3,9 C 0,6 C 92 % 1020,6 hPa 0,0 l/m 11,0 km/h (2 Bft) W-SW 243 0 min 0,000 mm 0,0 UV-I 0 W/m -0,1 C -3,0 C 20,9 km/h (4 Bft) 100,00 %
12.12.2018 17:12 1,1 C 3,9 C 0,6 C 92 % 1020,6 hPa 0,0 l/m 12,9 km/h (3 Bft) W-NW 287 0 min 0,000 mm 0,0 UV-I 0 W/m -0,1 C -4,3 C 20,9 km/h (4 Bft) 100,00 %
12.12.2018 17:14 1,1 C 3,9 C 0,6 C 92 % 1020,6 hPa 0,0 l/m 11,6 km/h (2 Bft) W 280 0 min 0,000 mm 0,0 UV-I 0 W/m -0,1 C -3,5 C 16,1 km/h (3 Bft) 100,00 %
12.12.2018 17:16 1,1 C 3,9 C 0,6 C 92 % 1020,6 hPa 0,0 l/m 11,9 km/h (2 Bft) W 267 0 min 0,000 mm 0,0 UV-I 0 W/m -0,1 C -3,7 C 17,7 km/h (3 Bft) 100,00 %
12.12.2018 17:18 1,1 C 3,9 C 0,6 C 92 % 1020,6 hPa 0,0 l/m 10,3 km/h (2 Bft) W 269 0 min 0,000 mm 0,0 UV-I 0 W/m -0,1 C -2,5 C 16,1 km/h (3 Bft) 100,00 %
12.12.2018 17:20 1,1 C 3,9 C 0,6 C 92 % 1020,6 hPa 0,0 l/m 10,2 km/h (2 Bft) W-SW 248 0 min 0,000 mm 0,0 UV-I 0 W/m -0,1 C -2,4 C 12,9 km/h (3 Bft) 98,11 %
12.12.2018 17:22 1,1 C 3,9 C 0,6 C 92 % 1020,6 hPa 0,0 l/m 5,4 km/h (1 Bft) W 268 0 min 0,000 mm 0,0 UV-I 0 W/m -0,1 C 1,1 C 11,3 km/h (2 Bft) 98,00 %
12.12.2018 17:24 1,1 C 3,9 C 0,6 C 92 % 1020,6 hPa 0,0 l/m 8,6 km/h (2 Bft) W-SW 249 0 min 0,000 mm 0,0 UV-I 0 W/m -0,1 C -1,0 C 14,5 km/h (3 Bft) 100,00 %
12.12.2018 17:26 1,1 C 3,9 C 0,6 C 92 % 1020,6 hPa 0,0 l/m 7,3 km/h (2 Bft) W-NW 287 0 min 0,000 mm 0,0 UV-I 0 W/m -0,1 C 0,2 C 12,9 km/h (3 Bft) 97,62 %
12.12.2018 17:28 1,1 C 3,9 C 0,6 C 92 % 1020,6 hPa 0,0 l/m 9,0 km/h (2 Bft) W-SW 242 0 min 0,000 mm 0,0 UV-I 0 W/m -0,1 C -1,4 C 12,9 km/h (3 Bft) 94,00 %
12.12.2018 17:30 1,1 C 3,9 C 0,6 C 92 % 1020,6 hPa 0,0 l/m 5,3 km/h (1 Bft) W-SW 255 0 min 0,000 mm 0,0 UV-I 0 W/m -0,1 C 1,1 C 9,7 km/h (2 Bft) 97,56 %
12.12.2018 17:32 1,1 C 3,9 C 0,6 C 92 % 1020,6 hPa 0,0 l/m 10,9 km/h (2 Bft) W 267 0 min 0,000 mm 0,0 UV-I 0 W/m -0,1 C -2,9 C 14,5 km/h (3 Bft) 96,00 %
12.12.2018 17:34 1,1 C 3,9 C 0,6 C 92 % 1020,7 hPa 0,0 l/m 9,5 km/h (2 Bft) W 264 0 min 0,000 mm 0,0 UV-I 0 W/m -0,1 C -1,8 C 16,1 km/h (3 Bft) 97,87 %
12.12.2018 17:36 1,1 C 3,9 C 0,6 C 92 % 1020,6 hPa 0,0 l/m 10,1 km/h (2 Bft) W 267 0 min 0,000 mm 0,0 UV-I 0 W/m -0,1 C -2,3 C 14,5 km/h (3 Bft) 96,23 %
12.12.2018 17:38 1,0 C 3,9 C 0,6 C 92 % 1020,6 hPa 0,0 l/m 10,9 km/h (2 Bft) W-SW 253 0 min 0,000 mm 0,0 UV-I 0 W/m -0,2 C -3,0 C 14,5 km/h (3 Bft) 97,37 %
12.12.2018 17:40 0,9 C 3,9 C 0,6 C 92 % 1020,6 hPa 0,0 l/m 7,3 km/h (2 Bft) W-SW 256 0 min 0,000 mm 0,0 UV-I 0 W/m -0,2 C -0,0 C 12,9 km/h (3 Bft) 96,00 %
12.12.2018 17:42 0,9 C 3,9 C 0,6 C 92 % 1020,6 hPa 0,0 l/m 4,5 km/h (1 Bft) W 259 0 min 0,000 mm 0,0 UV-I 0 W/m -0,2 C 0,9 C 6,4 km/h (2 Bft) 98,00 %
12.12.2018 17:44 0,9 C 3,9 C 0,0 C 92 % 1020,5 hPa 0,0 l/m 4,1 km/h (1 Bft) W-SW 249 0 min 0,000 mm 0,0 UV-I 0 W/m -0,2 C 0,9 C 6,4 km/h (2 Bft) 96,00 %
12.12.2018 17:46 0,8 C 3,9 C 0,0 C 92 % 1020,6 hPa 0,0 l/m 6,7 km/h (2 Bft) W 272 0 min 0,000 mm 0,0 UV-I 0 W/m -0,3 C 0,5 C 11,3 km/h (2 Bft) 100,00 %
12.12.2018 17:48 0,8 C 3,9 C 0,0 C 93 % 1020,6 hPa 0,0 l/m 7,1 km/h (2 Bft) W 265 0 min 0,000 mm 0,0 UV-I 0 W/m -0,2 C 0,1 C 11,3 km/h (2 Bft) 94,00 %
12.12.2018 17:50 0,8 C 3,9 C 0,0 C 93 % 1020,6 hPa 0,0 l/m 10,4 km/h (2 Bft) W 268 0 min 0,000 mm 0,0 UV-I 0 W/m -0,2 C -2,9 C 17,7 km/h (3 Bft) 94,00 %
12.12.2018 17:52 0,8 C 3,9 C 0,0 C 93 % 1020,6 hPa 0,0 l/m 11,6 km/h (2 Bft) W 271 0 min 0,000 mm 0,0 UV-I 0 W/m -0,2 C -3,8 C 14,5 km/h (3 Bft) 95,74 %
12.12.2018 17:54 0,8 C 3,9 C 0,0 C 93 % 1020,7 hPa 0,0 l/m 8,2 km/h (2 Bft) W 276 0 min 0,000 mm 0,0 UV-I 0 W/m -0,2 C -1,0 C 12,9 km/h (3 Bft) 94,00 %
12.12.2018 17:56 0,8 C 3,9 C 0,0 C 93 % 1020,7 hPa 0,0 l/m 9,0 km/h (2 Bft) W 271 0 min 0,000 mm 0,0 UV-I 0 W/m -0,2 C -1,7 C 12,9 km/h (3 Bft) 92,11 %
12.12.2018 17:58 0,7 C 3,9 C 0,0 C 93 % 1020,7 hPa 0,0 l/m 7,5 km/h (2 Bft) W 269 0 min 0,000 mm 0,0 UV-I 0 W/m -0,3 C -0,4 C 12,9 km/h (3 Bft) 96,23 %
12.12.2018 18:00 0,7 C 3,9 C 0,0 C 93 % 1020,7 hPa 0,0 l/m 7,5 km/h (2 Bft) W-SW 257 0 min 0,000 mm 0,0 UV-I 0 W/m -0,3 C -0,4 C 11,3 km/h (2 Bft) 94,87 %
12.12.2018 18:02 0,6 C 3,9 C 0,0 C 94 % 1020,7 hPa 0,0 l/m 4,3 km/h (1 Bft) W 269 0 min 0,000 mm 0,0 UV-I 0 W/m -0,3 C 0,6 C 6,4 km/h (2 Bft) 98,08 %
12.12.2018 18:04 0,6 C 3,9 C 0,0 C 93 % 1020,7 hPa 0,0 l/m 7,5 km/h (2 Bft) W 264 0 min 0,000 mm 0,0 UV-I 0 W/m -0,4 C -0,5 C 11,3 km/h (2 Bft) 96,00 %
12.12.2018 18:06 0,5 C 3,9 C 0,0 C 94 % 1020,7 hPa 0,0 l/m 6,5 km/h (2 Bft) W 260 0 min 0,000 mm 0,0 UV-I 0 W/m -0,4 C 0,4 C 11,3 km/h (2 Bft) 97,22 %
12.12.2018 18:08 0,5 C 3,9 C 0,0 C 94 % 1020,7 hPa 0,0 l/m 5,7 km/h (1 Bft) W 261 0 min 0,000 mm 0,0 UV-I 0 W/m -0,4 C 0,5 C 9,7 km/h (2 Bft) 96,23 %
12.12.2018 18:10 0,4 C 3,9 C 0,0 C 94 % 1020,6 hPa 0,0 l/m 3,9 km/h (1 Bft) W 266 0 min 0,000 mm 0,0 UV-I 0 W/m -0,5 C 0,4 C 4,8 km/h (1 Bft) 100,00 %
12.12.2018 18:12 0,4 C 3,9 C 0,0 C 94 % 1020,7 hPa 0,0 l/m 4,8 km/h (1 Bft) W 263 0 min 0,000 mm 0,0 UV-I 0 W/m -0,5 C 0,4 C 6,4 km/h (2 Bft) 100,00 %
12.12.2018 18:14 0,4 C 3,9 C 0,0 C 94 % 1020,7 hPa 0,0 l/m 4,6 km/h (1 Bft) W 259 0 min 0,000 mm 0,0 UV-I 0 W/m -0,5 C 0,4 C 6,4 km/h (2 Bft) 97,06 %
12.12.2018 18:16 0,4 C 3,9 C 0,0 C 95 % 1020,7 hPa 0,0 l/m 5,7 km/h (1 Bft) W-SW 258 0 min 0,000 mm 0,0 UV-I 0 W/m -0,3 C 0,4 C 9,7 km/h (2 Bft) 100,00 %
12.12.2018 18:19 0,4 C 3,9 C 0,0 C 95 % 1020,6 hPa 0,0 l/m 3,3 km/h (1 Bft) W 268 0 min 0,000 mm 0,0 UV-I 0 W/m -0,3 C 0,4 C 4,8 km/h (1 Bft) 98,88 %
12.12.2018 18:20 0,3 C 3,9 C 0,0 C 95 % 1020,6 hPa 0,0 l/m 3,8 km/h (1 Bft) W-SW 258 0 min 0,000 mm 0,0 UV-I 0 W/m -0,4 C 0,3 C 4,8 km/h (1 Bft) 95,65 %
12.12.2018 18:22 0,3 C 3,9 C 0,0 C 95 % 1020,6 hPa 0,0 l/m 3,5 km/h (1 Bft) W-SW 250 0 min 0,000 mm 0,0 UV-I 0 W/m -0,4 C 0,3 C 6,4 km/h (2 Bft) 100,00 %
12.12.2018 18:24 0,3 C 3,9 C 0,0 C 95 % 1020,6 hPa 0,0 l/m 4,2 km/h (1 Bft) W-SW 238 0 min 0,000 mm 0,0 UV-I 0 W/m -0,4 C 0,3 C 6,4 km/h (2 Bft) 100,00 %
12.12.2018 18:26 0,3 C 3,9 C 0,0 C 95 % 1020,6 hPa 0,0 l/m 5,2 km/h (1 Bft) W 270 0 min 0,000 mm 0,0 UV-I 0 W/m -0,4 C 0,3 C 6,4 km/h (2 Bft) 100,00 %
12.12.2018 18:29 0,3 C 3,9 C 0,0 C 95 % 1020,7 hPa 0,2 l/m 3,9 km/h (1 Bft) W 261 0 min 0,000 mm 0,0 UV-I 0 W/m -0,4 C 0,3 C 6,4 km/h (2 Bft) 100,00 %
12.12.2018 18:30 0,3 C 3,9 C 0,0 C 95 % 1020,7 hPa 0,0 l/m 3,4 km/h (1 Bft) W 266 0 min 0,000 mm 0,0 UV-I 0 W/m -0,4 C 0,3 C 4,8 km/h (1 Bft) 100,00 %
12.12.2018 18:32 0,3 C 3,9 C 0,0 C 95 % 1020,7 hPa 0,0 l/m 3,8 km/h (1 Bft) W 278 0 min 0,000 mm 0,0 UV-I 0 W/m -0,4 C 0,3 C 4,8 km/h (1 Bft) 97,37 %
12.12.2018 18:34 0,3 C 3,9 C 0,0 C 95 % 1020,7 hPa 0,2 l/m 4,0 km/h (1 Bft) W-SW 253 0 min 0,000 mm 0,0 UV-I 0 W/m -0,4 C 0,3 C 6,4 km/h (2 Bft) 98,00 %
12.12.2018 18:36 0,3 C 3,9 C 0,0 C 95 % 1020,7 hPa 0,0 l/m 4,1 km/h (1 Bft) W 269 0 min 0,000 mm 0,0 UV-I 0 W/m -0,4 C 0,3 C 6,4 km/h (2 Bft) 100,00 %
12.12.2018 18:38 0,3 C 3,9 C 0,0 C 96 % 1020,7 hPa 0,0 l/m 4,8 km/h (1 Bft) W 262 0 min 0,000 mm 0,0 UV-I 0 W/m -0,3 C 0,3 C 9,7 km/h (2 Bft) 100,00 %
12.12.2018 18:40 0,3 C 3,9 C 0,0 C 96 % 1020,8 hPa 0,0 l/m 5,6 km/h (1 Bft) W 266 0 min 0,000 mm 0,0 UV-I 0 W/m -0,3 C 0,3 C 9,7 km/h (2 Bft) 100,00 %
12.12.2018 18:42 0,3 C 3,9 C 0,0 C 96 % 1020,8 hPa 0,2 l/m 4,4 km/h (1 Bft) W-SW 255 0 min 0,000 mm 0,0 UV-I 0 W/m -0,3 C 0,3 C 6,4 km/h (2 Bft) 100,00 %
12.12.2018 18:44 0,3 C 3,9 C 0,0 C 96 % 1020,8 hPa 0,0 l/m 4,3 km/h (1 Bft) W 278 0 min 0,000 mm 0,0 UV-I 0 W/m -0,3 C 0,3 C 6,4 km/h (2 Bft) 100,00 %
12.12.2018 18:46 0,3 C 3,9 C 0,0 C 96 % 1020,8 hPa 0,0 l/m 4,3 km/h (1 Bft) W-SW 256 0 min 0,000 mm 0,0 UV-I 0 W/m -0,3 C 0,3 C 6,4 km/h (2 Bft) 100,00 %
12.12.2018 18:48 0,3 C 3,9 C 0,0 C 96 % 1020,8 hPa 0,0 l/m 4,3 km/h (1 Bft) W-SW 246 0 min 0,000 mm 0,0 UV-I 0 W/m -0,3 C 0,3 C 6,4 km/h (2 Bft) 95,74 %
12.12.2018 18:50 0,3 C 3,9 C 0,0 C 96 % 1020,8 hPa 0,0 l/m 5,2 km/h (1 Bft) W-SW 257 0 min 0,000 mm 0,0 UV-I 0 W/m -0,3 C 0,3 C 6,4 km/h (2 Bft) 100,00 %
12.12.2018 18:52 0,3 C 3,9 C 0,0 C 96 % 1020,8 hPa 0,0 l/m 4,3 km/h (1 Bft) SW 232 0 min 0,000 mm 0,0 UV-I 0 W/m -0,3 C 0,3 C 6,4 km/h (2 Bft) 100,00 %
12.12.2018 18:54 0,3 C 3,9 C 0,0 C 96 % 1020,8 hPa 0,0 l/m 4,8 km/h (1 Bft) W-SW 241 0 min 0,000 mm 0,0 UV-I 0 W/m -0,3 C 0,3 C 8,0 km/h (2 Bft) 100,00 %
12.12.2018 18:56 0,3 C 3,9 C 0,0 C 96 % 1020,8 hPa 0,0 l/m 4,0 km/h (1 Bft) SW 235 0 min 0,000 mm 0,0 UV-I 0 W/m -0,3 C 0,3 C 6,4 km/h (2 Bft) 100,00 %
12.12.2018 18:58 0,3 C 3,9 C 0,0 C 96 % 1020,8 hPa 0,0 l/m 4,1 km/h (1 Bft) W-SW 248 0 min 0,000 mm 0,0 UV-I 0 W/m -0,3 C 0,3 C 6,4 km/h (2 Bft) 100,00 %
12.12.2018 19:00 0,3 C 3,9 C 0,0 C 96 % 1020,7 hPa 0,0 l/m 4,1 km/h (1 Bft) W-SW 246 0 min 0,000 mm 0,0 UV-I 0 W/m -0,3 C 0,3 C 8,0 km/h (2 Bft) 98,00 %
12.12.2018 19:02 0,3 C 3,9 C 0,0 C 96 % 1020,7 hPa 0,0 l/m 2,9 km/h (1 Bft) W-SW 246 0 min 0,000 mm 0,0 UV-I 0 W/m -0,3 C 0,3 C 4,8 km/h (1 Bft) 97,87 %
12.12.2018 19:04 0,3 C 3,9 C 0,0 C 96 % 1020,7 hPa 0,0 l/m 4,3 km/h (1 Bft) W-SW 246 0 min 0,000 mm 0,0 UV-I 0 W/m -0,3 C 0,3 C 11,3 km/h (2 Bft) 95,74 %
12.12.2018 19:06 0,3 C 3,9 C 0,0 C 96 % 1020,7 hPa 0,0 l/m 4,2 km/h (1 Bft) W-SW 246 0 min 0,000 mm 0,0 UV-I 0 W/m -0,3 C 0,3 C 8,0 km/h (2 Bft) 97,87 %
12.12.2018 19:08 0,3 C 3,9 C 0,0 C 96 % 1020,7 hPa 0,0 l/m 3,3 km/h (1 Bft) W-SW 246 0 min 0,000 mm 0,0 UV-I 0 W/m -0,3 C 0,3 C 6,4 km/h (2 Bft) 95,12 %
12.12.2018 19:10 0,3 C 3,9 C 0,0 C 96 % 1020,7 hPa 0,0 l/m 3,6 km/h (1 Bft) W-SW 246 0 min 0,000 mm 0,0 UV-I 0 W/m -0,3 C 0,3 C 6,4 km/h (2 Bft) 98,21 %
12.12.2018 19:12 0,2 C 3,9 C 0,0 C 96 % 1020,7 hPa 0,0 l/m 0,0 km/h (0 Bft) W-SW 247 0 min 0,000 mm 0,0 UV-I 0 W/m -0,4 C 0,2 C 0,0 km/h (0 Bft) 97,87 %
12.12.2018 19:14 0,3 C 3,9 C 0,0 C 96 % 1020,7 hPa 0,0 l/m 0,0 km/h (0 Bft) W-SW 247 0 min 0,000 mm 0,0 UV-I 0 W/m -0,3 C 0,3 C 0,0 km/h (0 Bft) 100,00 %
12.12.2018 19:16 0,2 C 3,9 C 0,0 C 96 % 1020,7 hPa 0,0 l/m 0,0 km/h (0 Bft) W-SW 247 0 min 0,000 mm 0,0 UV-I 0 W/m -0,4 C 0,2 C 0,0 km/h (0 Bft) 96,88 %
12.12.2018 19:18 0,2 C 3,9 C 0,0 C 96 % 1020,7 hPa 0,0 l/m 0,0 km/h (0 Bft) W-SW 246 0 min 0,000 mm 0,0 UV-I 0 W/m -0,4 C 0,2 C 0,0 km/h (0 Bft) 97,44 %
12.12.2018 19:20 0,3 C 3,9 C 0,0 C 96 % 1020,7 hPa 0,0 l/m 0,0 km/h (0 Bft) W-SW 246 0 min 0,000 mm 0,0 UV-I 0 W/m -0,3 C 0,3 C 0,0 km/h (0 Bft) 96,72 %
12.12.2018 19:22 0,3 C 3,9 C 0,0 C 96 % 1020,7 hPa 0,0 l/m 0,0 km/h (0 Bft) W-SW 246 0 min 0,000 mm 0,0 UV-I 0 W/m -0,3 C 0,3 C 0,0 km/h (0 Bft) 95,83 %
12.12.2018 19:24 0,2 C 3,9 C 0,0 C 96 % 1020,7 hPa 0,0 l/m 0,0 km/h (0 Bft) W-SW 246 0 min 0,000 mm 0,0 UV-I 0 W/m -0,4 C 0,2 C 0,0 km/h (0 Bft) 100,00 %
12.12.2018 19:26 0,3 C 3,9 C 0,0 C 96 % 1020,7 hPa 0,0 l/m 0,0 km/h (0 Bft) W-SW 246 0 min 0,000 mm 0,0 UV-I 0 W/m -0,3 C 0,3 C 0,0 km/h (0 Bft) 98,11 %
12.12.2018 19:28 0,2 C 3,9 C 0,0 C 96 % 1020,7 hPa 0,0 l/m 0,0 km/h (0 Bft) W-SW 246 0 min 0,000 mm 0,0 UV-I 0 W/m -0,4 C 0,2 C 0,0 km/h (0 Bft) 96,00 %
12.12.2018 19:30 0,2 C 3,9 C 0,0 C 96 % 1020,7 hPa 0,0 l/m 0,0 km/h (0 Bft) W-SW 246 0 min 0,000 mm 0,0 UV-I 0 W/m -0,4 C 0,2 C 0,0 km/h (0 Bft) 97,37 %
12.12.2018 19:32 0,2 C 3,9 C 0,0 C 96 % 1020,8 hPa 0,0 l/m 0,0 km/h (0 Bft) W-SW 246 0 min 0,000 mm 0,0 UV-I 0 W/m -0,4 C 0,2 C 0,0 km/h (0 Bft) 94,00 %
12.12.2018 19:35 0,2 C 3,9 C 0,0 C 96 % 1020,8 hPa 0,2 l/m 0,0 km/h (0 Bft) W-SW 246 0 min 0,000 mm 0,0 UV-I 0 W/m -0,4 C 0,2 C 0,0 km/h (0 Bft) 94,29 %
12.12.2018 19:36 0,3 C 3,9 C 0,0 C 96 % 1020,8 hPa 0,2 l/m 0,0 km/h (0 Bft) W-SW 246 0 min 0,000 mm 0,0 UV-I 0 W/m -0,3 C 0,3 C 0,0 km/h (0 Bft) 86,67 %
12.12.2018 19:38 0,3 C 3,9 C 0,0 C 96 % 1020,8 hPa 0,4 l/m 0,0 km/h (0 Bft) W-SW 246 0 min 0,000 mm 0,0 UV-I 0 W/m -0,3 C 0,3 C 0,0 km/h (0 Bft) 96,00 %
12.12.2018 19:40 0,3 C 3,9 C 0,0 C 96 % 1020,8 hPa 0,2 l/m 0,0 km/h (0 Bft) W-SW 246 0 min 0,000 mm 0,0 UV-I 0 W/m -0,3 C 0,3 C 0,0 km/h (0 Bft) 94,00 %
12.12.2018 19:42 0,3 C 3,9 C 0,0 C 96 % 1020,8 hPa 0,2 l/m 0,0 km/h (0 Bft) W-SW 246 0 min 0,000 mm 0,0 UV-I 0 W/m -0,3 C 0,3 C 0,0 km/h (0 Bft) 95,74 %
12.12.2018 19:44 0,3 C 3,9 C 0,0 C 96 % 1020,8 hPa 0,2 l/m 0,0 km/h (0 Bft) W-SW 246 0 min 0,000 mm 0,0 UV-I 0 W/m -0,3 C 0,3 C 0,0 km/h (0 Bft) 96,00 %
12.12.2018 19:46 0,3 C 3,9 C 0,0 C 96 % 1020,8 hPa 0,0 l/m 0,0 km/h (0 Bft) W-SW 246 0 min 0,000 mm 0,0 UV-I 0 W/m -0,3 C 0,3 C 0,0 km/h (0 Bft) 93,62 %
12.12.2018 19:48 0,3 C 3,9 C 0,0 C 96 % 1020,8 hPa 0,2 l/m 0,0 km/h (0 Bft) W-SW 246 0 min 0,000 mm 0,0 UV-I 0 W/m -0,3 C 0,3 C 0,0 km/h (0 Bft) 92,00 %
12.12.2018 19:50 0,3 C 3,9 C 0,0 C 97 % 1020,8 hPa 0,2 l/m 0,0 km/h (0 Bft) W-SW 246 0 min 0,000 mm 0,0 UV-I 0 W/m -0,1 C 0,3 C 0,0 km/h (0 Bft) 95,74 %
12.12.2018 19:52 0,2 C 3,9 C 0,0 C 97 % 1020,8 hPa 0,0 l/m 0,0 km/h (0 Bft) W-SW 246 0 min 0,000 mm 0,0 UV-I 0 W/m -0,2 C 0,2 C 0,0 km/h (0 Bft) 94,74 %
12.12.2018 19:54 0,2 C 3,9 C 0,0 C 96 % 1020,8 hPa 0,2 l/m 0,0 km/h (0 Bft) W-SW 246 0 min 0,000 mm 0,0 UV-I 0 W/m -0,4 C 0,2 C 0,0 km/h (0 Bft) 95,74 %
12.12.2018 19:56 0,2 C 3,9 C 0,0 C 96 % 1020,8 hPa 0,2 l/m 0,0 km/h (0 Bft) W-SW 246 0 min 0,000 mm 0,0 UV-I 0 W/m -0,4 C 0,2 C 0,0 km/h (0 Bft) 93,75 %
12.12.2018 19:58 0,2 C 3,9 C 0,0 C 96 % 1020,8 hPa 0,2 l/m 0,0 km/h (0 Bft) W-SW 246 0 min 0,000 mm 0,0 UV-I 0 W/m -0,4 C 0,2 C 0,0 km/h (0 Bft) 91,49 %
12.12.2018 20:00 0,2 C 3,9 C 0,0 C 96 % 1020,8 hPa 0,0 l/m 0,0 km/h (0 Bft) W-SW 246 0 min 0,000 mm 0,0 UV-I 0 W/m -0,4 C 0,2 C 0,0 km/h (0 Bft) 95,74 %
12.12.2018 20:02 0,2 C 3,9 C 0,0 C 96 % 1020,8 hPa 0,2 l/m 0,0 km/h (0 Bft) W-SW 246 0 min 0,000 mm 0,0 UV-I 0 W/m -0,4 C 0,2 C 0,0 km/h (0 Bft) 95,74 %
12.12.2018 20:04 0,2 C 3,9 C 0,0 C 96 % 1020,8 hPa 0,0 l/m 0,0 km/h (0 Bft) W-SW 246 0 min 0,000 mm 0,0 UV-I 0 W/m -0,4 C 0,2 C 0,0 km/h (0 Bft) 96,00 %
12.12.2018 20:06 0,2 C 3,9 C 0,0 C 96 % 1020,7 hPa 0,2 l/m 0,0 km/h (0 Bft) W-SW 246 0 min 0,000 mm 0,0 UV-I 0 W/m -0,4 C 0,2 C 0,0 km/h (0 Bft) 97,87 %
12.12.2018 20:08 0,2 C 3,9 C 0,0 C 96 % 1020,8 hPa 0,2 l/m 0,0 km/h (0 Bft) W-SW 246 0 min 0,000 mm 0,0 UV-I 0 W/m -0,4 C 0,2 C 0,0 km/h (0 Bft) 95,12 %
12.12.2018 20:10 0,2 C 3,9 C 0,0 C 96 % 1020,8 hPa 0,0 l/m 0,0 km/h (0 Bft) W-SW 246 0 min 0,000 mm 0,0 UV-I 0 W/m -0,4 C 0,2 C 0,0 km/h (0 Bft) 94,34 %
12.12.2018 20:12 0,2 C 3,9 C 0,0 C 96 % 1020,8 hPa 0,2 l/m 0,0 km/h (0 Bft) W-SW 246 0 min 0,000 mm 0,0 UV-I 0 W/m -0,4 C 0,2 C 0,0 km/h (0 Bft) 97,87 %
12.12.2018 20:14 0,2 C 3,9 C 0,0 C 96 % 1020,8 hPa 0,2 l/m 0,0 km/h (0 Bft) W-SW 246 0 min 0,000 mm 0,0 UV-I 0 W/m -0,4 C 0,2 C 0,0 km/h (0 Bft) 97,37 %
12.12.2018 20:16 0,2 C 3,9 C 0,0 C 96 % 1020,8 hPa 0,0 l/m 0,0 km/h (0 Bft) W-SW 246 0 min 0,000 mm 0,0 UV-I 0 W/m -0,4 C 0,2 C 0,0 km/h (0 Bft) 96,23 %
12.12.2018 20:18 0,2 C 3,9 C 0,0 C 96 % 1020,8 hPa 0,0 l/m 0,0 km/h (0 Bft) W-SW 246 0 min 0,000 mm 0,0 UV-I 0 W/m -0,4 C 0,2 C 0,0 km/h (0 Bft) 94,34 %
12.12.2018 20:20 0,2 C 3,9 C 0,0 C 97 % 1020,8 hPa 0,2 l/m 0,0 km/h (0 Bft) W-SW 246 0 min 0,000 mm 0,0 UV-I 0 W/m -0,2 C 0,2 C 0,0 km/h (0 Bft) 92,11 %
12.12.2018 20:22 0,2 C 3,9 C 0,0 C 97 % 1020,8 hPa 0,2 l/m 0,0 km/h (0 Bft) W-SW 246 0 min 0,000 mm 0,0 UV-I 0 W/m -0,2 C 0,2 C 0,0 km/h (0 Bft) 96,00 %
12.12.2018 20:24 0,2 C 3,9 C 0,0 C 97 % 1020,9 hPa 0,0 l/m 0,0 km/h (0 Bft) W-SW 246 0 min 0,000 mm 0,0 UV-I 0 W/m -0,2 C 0,2 C 0,0 km/h (0 Bft) 95,74 %
12.12.2018 20:26 0,2 C 3,9 C 0,0 C 97 % 1020,9 hPa 0,0 l/m 0,0 km/h (0 Bft) W-SW 246 0 min 0,000 mm 0,0 UV-I 0 W/m -0,2 C 0,2 C 0,0 km/h (0 Bft) 93,62 %
12.12.2018 20:28 0,2 C 3,9 C 0,0 C 97 % 1020,8 hPa 0,2 l/m 0,0 km/h (0 Bft) W-SW 246 0 min 0,000 mm 0,0 UV-I 0 W/m -0,2 C 0,2 C 0,0 km/h (0 Bft) 93,62 %
12.12.2018 20:30 0,2 C 3,9 C 0,0 C 97 % 1020,9 hPa 0,0 l/m 0,0 km/h (0 Bft) W-SW 246 0 min 0,000 mm 0,0 UV-I 0 W/m -0,2 C 0,2 C 0,0 km/h (0 Bft) 95,74 %
12.12.2018 20:32 0,1 C 3,9 C 0,0 C 97 % 1020,9 hPa 0,2 l/m 0,0 km/h (0 Bft) W-SW 246 0 min 0,000 mm 0,0 UV-I 0 W/m -0,3 C 0,1 C 0,0 km/h (0 Bft) 95,74 %
12.12.2018 20:34 0,1 C 3,9 C 0,0 C 97 % 1020,9 hPa 0,0 l/m 0,0 km/h (0 Bft) W-SW 246 0 min 0,000 mm 0,0 UV-I 0 W/m -0,3 C 0,1 C 0,0 km/h (0 Bft) 94,00 %
12.12.2018 20:36 0,2 C 3,9 C 0,0 C 97 % 1020,9 hPa 0,2 l/m 0,0 km/h (0 Bft) W-SW 246 0 min 0,000 mm 0,0 UV-I 0 W/m -0,2 C 0,2 C 0,0 km/h (0 Bft) 97,44 %
12.12.2018 20:38 0,2 C 3,9 C 0,0 C 97 % 1020,9 hPa 0,0 l/m 0,0 km/h (0 Bft) W-SW 246 0 min 0,000 mm 0,0 UV-I 0 W/m -0,2 C 0,2 C 0,0 km/h (0 Bft) 97,87 %
12.12.2018 20:40 0,2 C 3,9 C 0,0 C 97 % 1020,9 hPa 0,0 l/m 0,0 km/h (0 Bft) W-SW 246 0 min 0,000 mm 0,0 UV-I 0 W/m -0,2 C 0,2 C 0,0 km/h (0 Bft) 94,00 %
12.12.2018 20:42 0,2 C 3,9 C 0,0 C 97 % 1020,9 hPa 0,2 l/m 0,0 km/h (0 Bft) W-SW 246 0 min 0,000 mm 0,0 UV-I 0 W/m -0,2 C 0,2 C 0,0 km/h (0 Bft) 96,00 %
12.12.2018 20:44 0,1 C 3,9 C 0,0 C 97 % 1020,9 hPa 0,0 l/m 0,0 km/h (0 Bft) W-SW 246 0 min 0,000 mm 0,0 UV-I 0 W/m -0,3 C 0,1 C 0,0 km/h (0 Bft) 94,29 %
12.12.2018 20:46 0,1 C 3,9 C 0,0 C 97 % 1020,9 hPa 0,0 l/m 0,0 km/h (0 Bft) W-SW 246 0 min 0,000 mm 0,0 UV-I 0 W/m -0,3 C 0,1 C 0,0 km/h (0 Bft) 97,56 %
12.12.2018 20:48 0,1 C 3,9 C 0,0 C 97 % 1020,9 hPa 0,2 l/m 0,0 km/h (0 Bft) W-SW 246 0 min 0,000 mm 0,0 UV-I 0 W/m -0,3 C 0,1 C 0,0 km/h (0 Bft) 100,00 %
12.12.2018 20:50 0,2 C 3,9 C -0,6 C 97 % 1020,9 hPa 0,0 l/m 0,0 km/h (0 Bft) W-SW 246 0 min 0,000 mm 0,0 UV-I 0 W/m -0,2 C 0,2 C 0,0 km/h (0 Bft) 98,00 %
12.12.2018 20:52 0,1 C 3,9 C -0,6 C 97 % 1020,8 hPa 0,0 l/m 0,0 km/h (0 Bft) W-SW 246 0 min 0,000 mm 0,0 UV-I 0 W/m -0,3 C 0,1 C 0,0 km/h (0 Bft) 100,00 %
12.12.2018 20:54 0,1 C 3,9 C -0,6 C 97 % 1020,9 hPa 0,0 l/m 0,0 km/h (0 Bft) W-SW 246 0 min 0,000 mm 0,0 UV-I 0 W/m -0,3 C 0,1 C 0,0 km/h (0 Bft) 100,00 %
12.12.2018 20:56 0,2 C 3,9 C -0,6 C 97 % 1020,8 hPa 0,2 l/m 0,0 km/h (0 Bft) W-SW 246 0 min 0,000 mm 0,0 UV-I 0 W/m -0,2 C 0,2 C 0,0 km/h (0 Bft) 100,00 %
12.12.2018 20:58 0,2 C 3,9 C 0,0 C 97 % 1020,9 hPa 0,0 l/m 0,0 km/h (0 Bft) W-SW 246 0 min 0,000 mm 0,0 UV-I 0 W/m -0,2 C 0,2 C 0,0 km/h (0 Bft) 100,00 %
12.12.2018 21:00 0,2 C 3,9 C 0,0 C 97 % 1020,8 hPa 0,0 l/m 0,0 km/h (0 Bft) W-SW 246 0 min 0,000 mm 0,0 UV-I 0 W/m -0,2 C 0,2 C 0,0 km/h (0 Bft) 97,87 %
12.12.2018 21:02 0,1 C 3,9 C 0,0 C 97 % 1020,8 hPa 0,0 l/m 0,0 km/h (0 Bft) W-SW 246 0 min 0,000 mm 0,0 UV-I 0 W/m -0,3 C 0,1 C 0,0 km/h (0 Bft) 100,00 %
12.12.2018 21:04 0,1 C 3,9 C 0,0 C 97 % 1020,8 hPa 0,0 l/m 0,0 km/h (0 Bft) W-SW 246 0 min 0,000 mm 0,0 UV-I 0 W/m -0,3 C 0,1 C 0,0 km/h (0 Bft) 100,00 %
12.12.2018 21:06 0,1 C 3,9 C 0,0 C 97 % 1020,9 hPa 0,0 l/m 0,0 km/h (0 Bft) W-SW 246 0 min 0,000 mm 0,0 UV-I 0 W/m -0,3 C 0,1 C 0,0 km/h (0 Bft) 100,00 %
12.12.2018 21:08 0,1 C 3,9 C 0,0 C 97 % 1020,9 hPa 0,0 l/m 0,0 km/h (0 Bft) W-SW 246 0 min 0,000 mm 0,0 UV-I 0 W/m -0,3 C 0,1 C 0,0 km/h (0 Bft) 98,00 %
12.12.2018 21:10 0,1 C 3,9 C 0,0 C 97 % 1020,9 hPa 0,2 l/m 0,0 km/h (0 Bft) W-SW 246 0 min 0,000 mm 0,0 UV-I 0 W/m -0,3 C 0,1 C 0,0 km/h (0 Bft) 100,00 %
12.12.2018 21:12 0,1 C 3,9 C 0,0 C 97 % 1020,9 hPa 0,0 l/m 0,0 km/h (0 Bft) W-SW 246 0 min 0,000 mm 0,0 UV-I 0 W/m -0,3 C 0,1 C 0,0 km/h (0 Bft) 100,00 %
12.12.2018 21:14 0,2 C 3,9 C 0,0 C 97 % 1020,9 hPa 0,0 l/m 0,0 km/h (0 Bft) W-SW 246 0 min 0,000 mm 0,0 UV-I 0 W/m -0,2 C 0,2 C 0,0 km/h (0 Bft) 100,00 %
12.12.2018 21:17 0,2 C 3,9 C 0,0 C 97 % 1020,9 hPa 0,0 l/m 0,0 km/h (0 Bft) W-SW 246 0 min 0,000 mm 0,0 UV-I 0 W/m -0,2 C 0,2 C 0,0 km/h (0 Bft) 98,65 %
12.12.2018 21:18 0,2 C 3,9 C 0,0 C 97 % 1020,9 hPa 0,0 l/m 0,0 km/h (0 Bft) W-SW 246 0 min 0,000 mm 0,0 UV-I 0 W/m -0,2 C 0,2 C 0,0 km/h (0 Bft) 100,00 %
12.12.2018 21:20 0,2 C 3,9 C 0,0 C 97 % 1020,9 hPa 0,0 l/m 0,0 km/h (0 Bft) W-SW 246 0 min 0,000 mm 0,0 UV-I 0 W/m -0,2 C 0,2 C 0,0 km/h (0 Bft) 97,37 %
12.12.2018 21:22 0,2 C 3,9 C 0,0 C 97 % 1020,9 hPa 0,0 l/m 0,0 km/h (0 Bft) W-SW 246 0 min 0,000 mm 0,0 UV-I 0 W/m -0,2 C 0,2 C 0,0 km/h (0 Bft) 98,00 %
12.12.2018 21:24 0,2 C 3,9 C 0,0 C 97 % 1020,9 hPa 0,0 l/m 0,0 km/h (0 Bft) W-SW 246 0 min 0,000 mm 0,0 UV-I 0 W/m -0,2 C 0,2 C 0,0 km/h (0 Bft) 97,87 %
12.12.2018 21:26 0,2 C 3,9 C 0,0 C 97 % 1020,9 hPa 0,0 l/m 0,0 km/h (0 Bft) W-SW 246 0 min 0,000 mm 0,0 UV-I 0 W/m -0,2 C 0,2 C 0,0 km/h (0 Bft) 97,87 %
12.12.2018 21:29 0,2 C 3,9 C 0,0 C 97 % 1020,9 hPa 0,0 l/m 0,0 km/h (0 Bft) W-SW 246 0 min 0,000 mm 0,0 UV-I 0 W/m -0,2 C 0,2 C 0,0 km/h (0 Bft) 94,52 %
12.12.2018 21:30 0,2 C 3,9 C 0,0 C 97 % 1020,9 hPa 0,0 l/m 0,0 km/h (0 Bft) W-SW 246 0 min 0,000 mm 0,0 UV-I 0 W/m -0,2 C 0,2 C 0,0 km/h (0 Bft) 92,59 %
12.12.2018 21:32 0,2 C 3,9 C 0,0 C 97 % 1020,9 hPa 0,0 l/m 0,0 km/h (0 Bft) W-SW 246 0 min 0,000 mm 0,0 UV-I 0 W/m -0,2 C 0,2 C 0,0 km/h (0 Bft) 95,74 %
12.12.2018 21:34 0,2 C 3,9 C 0,0 C 97 % 1020,9 hPa 0,0 l/m 0,0 km/h (0 Bft) W-SW 246 0 min 0,000 mm 0,0 UV-I 0 W/m -0,2 C 0,2 C 0,0 km/h (0 Bft) 94,74 %
12.12.2018 21:36 0,1 C 3,9 C 0,0 C 97 % 1020,9 hPa 0,0 l/m 0,0 km/h (0 Bft) W-SW 247 0 min 0,000 mm 0,0 UV-I 0 W/m -0,3 C 0,1 C 0,0 km/h (0 Bft) 95,74 %
12.12.2018 21:38 0,1 C 3,9 C 0,0 C 97 % 1020,9 hPa 0,0 l/m 0,0 km/h (0 Bft) W-SW 247 0 min 0,000 mm 0,0 UV-I 0 W/m -0,3 C 0,1 C 0,0 km/h (0 Bft) 96,23 %
12.12.2018 21:40 0,1 C 3,9 C 0,0 C 97 % 1020,9 hPa 0,0 l/m 0,0 km/h (0 Bft) W-SW 247 0 min 0,000 mm 0,0 UV-I 0 W/m -0,3 C 0,1 C 0,0 km/h (0 Bft) 93,62 %
12.12.2018 21:42 0,0 C 3,9 C 0,0 C 97 % 1020,9 hPa 0,0 l/m 0,0 km/h (0 Bft) W-SW 247 0 min 0,000 mm 0,0 UV-I 0 W/m -0,4 C 0,0 C 0,0 km/h (0 Bft) 93,62 %
12.12.2018 21:44 0,0 C 3,9 C 0,0 C 97 % 1020,9 hPa 0,0 l/m 0,0 km/h (0 Bft) W-SW 247 0 min 0,000 mm 0,0 UV-I 0 W/m -0,4 C 0,0 C 0,0 km/h (0 Bft) 94,00 %
12.12.2018 21:46 0,0 C 3,9 C 0,0 C 97 % 1020,9 hPa 0,0 l/m 0,0 km/h (0 Bft) W-SW 247 0 min 0,000 mm 0,0 UV-I 0 W/m -0,4 C 0,0 C 0,0 km/h (0 Bft) 97,87 %
12.12.2018 21:48 0,0 C 3,9 C 0,0 C 97 % 1020,9 hPa 0,0 l/m 0,0 km/h (0 Bft) W-SW 247 0 min 0,000 mm 0,0 UV-I 0 W/m -0,4 C 0,0 C 0,0 km/h (0 Bft) 97,14 %
12.12.2018 21:50 0,0 C 3,9 C 0,0 C 97 % 1020,9 hPa 0,2 l/m 0,0 km/h (0 Bft) W-SW 247 0 min 0,000 mm 0,0 UV-I 0 W/m -0,4 C 0,0 C 0,0 km/h (0 Bft) 98,00 %
12.12.2018 21:52 0,1 C 3,9 C 0,0 C 97 % 1020,9 hPa 0,0 l/m 0,0 km/h (0 Bft) W-SW 247 0 min 0,000 mm 0,0 UV-I 0 W/m -0,3 C 0,1 C 0,0 km/h (0 Bft) 95,74 %
12.12.2018 21:54 0,1 C 3,9 C 0,0 C 97 % 1020,9 hPa 0,0 l/m 0,0 km/h (0 Bft) W-SW 247 0 min 0,000 mm 0,0 UV-I 0 W/m -0,3 C 0,1 C 0,0 km/h (0 Bft) 97,92 %
12.12.2018 21:56 0,0 C 3,9 C 0,0 C 97 % 1020,9 hPa 0,0 l/m 0,0 km/h (0 Bft) W-SW 247 0 min 0,000 mm 0,0 UV-I 0 W/m -0,4 C 0,0 C 0,0 km/h (0 Bft) 97,87 %
12.12.2018 21:58 0,0 C 3,9 C 0,0 C 97 % 1020,9 hPa 0,0 l/m 0,0 km/h (0 Bft) W-SW 247 0 min 0,000 mm 0,0 UV-I 0 W/m -0,4 C 0,0 C 0,0 km/h (0 Bft) 97,56 %
12.12.2018 22:00 0,0 C 3,9 C 0,0 C 97 % 1020,9 hPa 0,0 l/m 0,0 km/h (0 Bft) W-SW 247 0 min 0,000 mm 0,0 UV-I 0 W/m -0,4 C 0,0 C 0,0 km/h (0 Bft) 100,00 %
12.12.2018 22:02 -0,1 C 3,9 C 0,0 C 97 % 1020,8 hPa 0,0 l/m 0,0 km/h (0 Bft) W-SW 247 0 min 0,000 mm 0,0 UV-I 0 W/m -0,5 C -0,1 C 0,0 km/h (0 Bft) 96,23 %
12.12.2018 22:04 -0,1 C 3,9 C -0,6 C 97 % 1020,9 hPa 0,0 l/m 0,0 km/h (0 Bft) W-SW 247 0 min 0,000 mm 0,0 UV-I 0 W/m -0,5 C -0,1 C 0,0 km/h (0 Bft) 100,00 %
12.12.2018 22:06 -0,2 C 3,9 C -0,6 C 97 % 1020,9 hPa 0,0 l/m 0,0 km/h (0 Bft) W-SW 247 0 min 0,000 mm 0,0 UV-I 0 W/m -0,6 C -0,2 C 0,0 km/h (0 Bft) 100,00 %
12.12.2018 22:08 -0,1 C 3,9 C -0,6 C 97 % 1020,9 hPa 0,0 l/m 0,0 km/h (0 Bft) W-SW 247 0 min 0,000 mm 0,0 UV-I 0 W/m -0,5 C -0,1 C 0,0 km/h (0 Bft) 100,00 %
12.12.2018 22:10 -0,1 C 3,9 C -0,6 C 97 % 1020,9 hPa 0,0 l/m 0,0 km/h (0 Bft) W-SW 247 0 min 0,000 mm 0,0 UV-I 0 W/m -0,5 C -0,1 C 0,0 km/h (0 Bft) 100,00 %
12.12.2018 22:12 -0,2 C 3,9 C -0,6 C 97 % 1020,9 hPa 0,0 l/m 0,0 km/h (0 Bft) W-SW 247 0 min 0,000 mm 0,0 UV-I 0 W/m -0,6 C -0,2 C 0,0 km/h (0 Bft) 100,00 %
12.12.2018 22:14 -0,2 C 3,9 C -0,6 C 97 % 1020,9 hPa 0,0 l/m 0,0 km/h (0 Bft) W-SW 247 0 min 0,000 mm 0,0 UV-I 0 W/m -0,6 C -0,2 C 0,0 km/h (0 Bft) 97,37 %
12.12.2018 22:16 -0,2 C 3,9 C -1,1 C 97 % 1020,9 hPa 0,0 l/m 0,0 km/h (0 Bft) W-SW 247 0 min 0,000 mm 0,0 UV-I 0 W/m -0,6 C -0,2 C 0,0 km/h (0 Bft) 100,00 %
12.12.2018 22:18 -0,2 C 3,9 C -0,6 C 97 % 1020,9 hPa 0,0 l/m 0,0 km/h (0 Bft) W-SW 247 0 min 0,000 mm 0,0 UV-I 0 W/m -0,6 C -0,2 C 0,0 km/h (0 Bft) 100,00 %
12.12.2018 22:20 -0,2 C 3,9 C -0,6 C 97 % 1020,9 hPa 0,0 l/m 0,0 km/h (0 Bft) W-SW 247 0 min 0,000 mm 0,0 UV-I 0 W/m -0,6 C -0,2 C 0,0 km/h (0 Bft) 100,00 %
12.12.2018 22:22 -0,2 C 3,9 C -0,6 C 97 % 1020,9 hPa 0,0 l/m 0,0 km/h (0 Bft) W-SW 247 0 min 0,000 mm 0,0 UV-I 0 W/m -0,6 C -0,2 C 0,0 km/h (0 Bft) 100,00 %
12.12.2018 22:24 -0,2 C 3,9 C -0,6 C 97 % 1021,0 hPa 0,0 l/m 0,0 km/h (0 Bft) W-SW 247 0 min 0,000 mm 0,0 UV-I 0 W/m -0,6 C -0,2 C 0,0 km/h (0 Bft) 98,00 %
12.12.2018 22:26 -0,2 C 3,9 C -0,6 C 97 % 1021,0 hPa 0,0 l/m 0,0 km/h (0 Bft) W-SW 247 0 min 0,000 mm 0,0 UV-I 0 W/m -0,6 C -0,2 C 0,0 km/h (0 Bft) 100,00 %
12.12.2018 22:29 -0,2 C 3,9 C -0,6 C 97 % 1021,0 hPa 0,0 l/m 0,0 km/h (0 Bft) W-SW 247 0 min 0,000 mm 0,0 UV-I 0 W/m -0,6 C -0,2 C 0,0 km/h (0 Bft) 98,86 %
12.12.2018 22:30 -0,2 C 3,9 C -0,6 C 97 % 1021,0 hPa 0,0 l/m 0,0 km/h (0 Bft) W-SW 247 0 min 0,000 mm 0,0 UV-I 0 W/m -0,6 C -0,2 C 0,0 km/h (0 Bft) 95,65 %
12.12.2018 22:32 -0,2 C 3,9 C -0,6 C 97 % 1021,0 hPa 0,0 l/m 0,0 km/h (0 Bft) W-SW 247 0 min 0,000 mm 0,0 UV-I 0 W/m -0,6 C -0,2 C 0,0 km/h (0 Bft) 100,00 %
12.12.2018 22:34 -0,2 C 3,9 C -0,6 C 97 % 1021,0 hPa 0,0 l/m 0,0 km/h (0 Bft) W-SW 247 0 min 0,000 mm 0,0 UV-I 0 W/m -0,6 C -0,2 C 0,0 km/h (0 Bft) 100,00 %
12.12.2018 22:36 -0,2 C 3,9 C -0,6 C 97 % 1020,9 hPa 0,0 l/m 0,0 km/h (0 Bft) W-SW 247 0 min 0,000 mm 0,0 UV-I 0 W/m -0,6 C -0,2 C 0,0 km/h (0 Bft) 95,74 %
12.12.2018 22:38 -0,2 C 3,9 C -0,6 C 97 % 1020,9 hPa 0,0 l/m 0,0 km/h (0 Bft) W-SW 247 0 min 0,000 mm 0,0 UV-I 0 W/m -0,6 C -0,2 C 0,0 km/h (0 Bft) 97,87 %
12.12.2018 22:40 -0,2 C 3,9 C -0,6 C 97 % 1020,9 hPa 0,0 l/m 0,0 km/h (0 Bft) W-SW 247 0 min 0,000 mm 0,0 UV-I 0 W/m -0,6 C -0,2 C 0,0 km/h (0 Bft) 94,00 %
12.12.2018 22:42 -0,3 C 3,9 C -0,6 C 97 % 1020,9 hPa 0,0 l/m 0,0 km/h (0 Bft) W-SW 247 0 min 0,000 mm 0,0 UV-I 0 W/m -0,7 C -0,3 C 0,0 km/h (0 Bft) 98,00 %
12.12.2018 22:44 -0,2 C 3,9 C -0,6 C 97 % 1020,9 hPa 0,0 l/m 0,0 km/h (0 Bft) W-SW 247 0 min 0,000 mm 0,0 UV-I 0 W/m -0,6 C -0,2 C 0,0 km/h (0 Bft) 95,74 %
12.12.2018 22:46 -0,2 C 3,9 C -0,6 C 97 % 1020,9 hPa 0,0 l/m 0,0 km/h (0 Bft) W-SW 247 0 min 0,000 mm 0,0 UV-I 0 W/m -0,6 C -0,2 C 0,0 km/h (0 Bft) 97,56 %
12.12.2018 22:48 -0,2 C 3,9 C -0,6 C 97 % 1020,9 hPa 0,0 l/m 0,0 km/h (0 Bft) W-SW 247 0 min 0,000 mm 0,0 UV-I 0 W/m -0,6 C -0,2 C 0,0 km/h (0 Bft) 97,87 %
12.12.2018 22:50 -0,2 C 3,9 C -0,6 C 97 % 1020,9 hPa 0,0 l/m 0,0 km/h (0 Bft) W-SW 247 0 min 0,000 mm 0,0 UV-I 0 W/m -0,6 C -0,2 C 0,0 km/h (0 Bft) 96,00 %
12.12.2018 22:52 -0,2 C 3,9 C -0,6 C 97 % 1020,9 hPa 0,0 l/m 0,0 km/h (0 Bft) W-SW 247 0 min 0,000 mm 0,0 UV-I 0 W/m -0,6 C -0,2 C 0,0 km/h (0 Bft) 97,87 %
12.12.2018 22:54 -0,2 C 3,9 C -0,6 C 97 % 1020,9 hPa 0,0 l/m 0,0 km/h (0 Bft) W-SW 247 0 min 0,000 mm 0,0 UV-I 0 W/m -0,6 C -0,2 C 0,0 km/h (0 Bft) 98,00 %
12.12.2018 22:56 -0,2 C 3,9 C -0,6 C 97 % 1020,9 hPa 0,0 l/m 0,0 km/h (0 Bft) W-SW 247 0 min 0,000 mm 0,0 UV-I 0 W/m -0,6 C -0,2 C 0,0 km/h (0 Bft) 100,00 %
12.12.2018 22:59 -0,2 C 3,9 C -0,6 C 97 % 1020,9 hPa 0,0 l/m 0,0 km/h (0 Bft) W-SW 247 0 min 0,000 mm 0,0 UV-I 0 W/m -0,6 C -0,2 C 0,0 km/h (0 Bft) 100,00 %
12.12.2018 23:00 -0,2 C 3,9 C -0,6 C 97 % 1020,9 hPa 0,0 l/m 0,0 km/h (0 Bft) W-SW 247 0 min 0,000 mm 0,0 UV-I 0 W/m -0,6 C -0,2 C 0,0 km/h (0 Bft) 100,00 %
12.12.2018 23:02 -0,3 C 3,9 C -0,6 C 97 % 1020,9 hPa 0,0 l/m 0,0 km/h (0 Bft) W-SW 247 0 min 0,000 mm 0,0 UV-I 0 W/m -0,7 C -0,3 C 0,0 km/h (0 Bft) 97,87 %
12.12.2018 23:04 -0,3 C 3,9 C -0,6 C 97 % 1020,9 hPa 0,0 l/m 0,0 km/h (0 Bft) W-SW 247 0 min 0,000 mm 0,0 UV-I 0 W/m -0,7 C -0,3 C 0,0 km/h (0 Bft) 100,00 %
12.12.2018 23:06 -0,3 C 3,9 C -0,6 C 97 % 1020,9 hPa 0,0 l/m 0,0 km/h (0 Bft) W-SW 247 0 min 0,000 mm 0,0 UV-I 0 W/m -0,7 C -0,3 C 0,0 km/h (0 Bft) 94,00 %
12.12.2018 23:08 -0,3 C 3,9 C -0,6 C 97 % 1020,9 hPa 0,0 l/m 0,0 km/h (0 Bft) W-SW 247 0 min 0,000 mm 0,0 UV-I 0 W/m -0,7 C -0,3 C 0,0 km/h (0 Bft) 100,00 %
12.12.2018 23:10 -0,3 C 3,9 C -0,6 C 96 % 1020,9 hPa 0,0 l/m 0,0 km/h (0 Bft) W-SW 247 0 min 0,000 mm 0,0 UV-I 0 W/m -0,9 C -0,3 C 0,0 km/h (0 Bft) 100,00 %
12.12.2018 23:12 -0,4 C 3,9 C -0,6 C 97 % 1020,9 hPa 0,0 l/m 0,0 km/h (0 Bft) W-SW 247 0 min 0,000 mm 0,0 UV-I 0 W/m -0,8 C -0,4 C 0,0 km/h (0 Bft) 100,00 %
12.12.2018 23:14 -0,4 C 3,9 C -0,6 C 97 % 1020,9 hPa 0,0 l/m 0,0 km/h (0 Bft) W-SW 247 0 min 0,000 mm 0,0 UV-I 0 W/m -0,8 C -0,4 C 0,0 km/h (0 Bft) 100,00 %
12.12.2018 23:16 -0,4 C 3,9 C -0,6 C 96 % 1020,9 hPa 0,0 l/m 0,0 km/h (0 Bft) W-SW 247 0 min 0,000 mm 0,0 UV-I 0 W/m -1,0 C -0,4 C 0,0 km/h (0 Bft) 100,00 %
12.12.2018 23:18 -0,4 C 3,9 C -0,6 C 96 % 1020,9 hPa 0,0 l/m 0,0 km/h (0 Bft) W-SW 247 0 min 0,000 mm 0,0 UV-I 0 W/m -1,0 C -0,4 C 0,0 km/h (0 Bft) 97,87 %
12.12.2018 23:20 -0,4 C 3,9 C -0,6 C 96 % 1020,8 hPa 0,0 l/m 0,0 km/h (0 Bft) W-SW 247 0 min 0,000 mm 0,0 UV-I 0 W/m -1,0 C -0,4 C 0,0 km/h (0 Bft) 96,00 %
12.12.2018 23:22 -0,5 C 3,9 C -0,6 C 96 % 1020,8 hPa 0,0 l/m 0,0 km/h (0 Bft) W-SW 247 0 min 0,000 mm 0,0 UV-I 0 W/m -1,1 C -0,5 C 0,0 km/h (0 Bft) 98,00 %
12.12.2018 23:24 -0,5 C 3,9 C -0,6 C 96 % 1020,8 hPa 0,0 l/m 0,0 km/h (0 Bft) W-SW 247 0 min 0,000 mm 0,0 UV-I 0 W/m -1,1 C -0,5 C 0,0 km/h (0 Bft) 97,87 %
12.12.2018 23:26 -0,5 C 3,9 C -0,6 C 96 % 1020,8 hPa 0,0 l/m 0,0 km/h (0 Bft) W-SW 247 0 min 0,000 mm 0,0 UV-I 0 W/m -1,1 C -0,5 C 0,0 km/h (0 Bft) 98,00 %
12.12.2018 23:29 -0,6 C 3,9 C -0,6 C 96 % 1020,8 hPa 0,0 l/m 0,0 km/h (0 Bft) W-SW 247 0 min 0,000 mm 0,0 UV-I 0 W/m -1,2 C -0,6 C 0,0 km/h (0 Bft) 97,14 %
12.12.2018 23:30 -0,6 C 3,9 C -0,6 C 96 % 1020,8 hPa 0,0 l/m 0,0 km/h (0 Bft) W-SW 247 0 min 0,000 mm 0,0 UV-I 0 W/m -1,2 C -0,6 C 0,0 km/h (0 Bft) 100,00 %
12.12.2018 23:32 -0,6 C 3,9 C -0,6 C 96 % 1020,8 hPa 0,0 l/m 0,0 km/h (0 Bft) W-SW 247 0 min 0,000 mm 0,0 UV-I 0 W/m -1,2 C -0,6 C 0,0 km/h (0 Bft) 98,00 %
12.12.2018 23:34 -0,6 C 3,9 C -0,6 C 96 % 1020,8 hPa 0,0 l/m 0,0 km/h (0 Bft) W-SW 247 0 min 0,000 mm 0,0 UV-I 0 W/m -1,2 C -0,6 C 0,0 km/h (0 Bft) 95,74 %
12.12.2018 23:36 -0,6 C 3,9 C -0,6 C 96 % 1020,8 hPa 0,0 l/m 0,0 km/h (0 Bft) W-SW 247 0 min 0,000 mm 0,0 UV-I 0 W/m -1,2 C -0,6 C 0,0 km/h (0 Bft) 98,00 %
12.12.2018 23:38 -0,6 C 3,9 C -0,6 C 96 % 1020,8 hPa 0,0 l/m 0,0 km/h (0 Bft) W-SW 247 0 min 0,000 mm 0,0 UV-I 0 W/m -1,2 C -0,6 C 0,0 km/h (0 Bft) 95,74 %
12.12.2018 23:40 -0,6 C 3,9 C -0,6 C 96 % 1020,8 hPa 0,0 l/m 0,0 km/h (0 Bft) W-SW 247 0 min 0,000 mm 0,0 UV-I 0 W/m -1,2 C -0,6 C 0,0 km/h (0 Bft) 97,37 %
12.12.2018 23:42 -0,6 C 3,9 C -0,6 C 96 % 1020,8 hPa 0,0 l/m 0,0 km/h (0 Bft) W-SW 247 0 min 0,000 mm 0,0 UV-I 0 W/m -1,2 C -0,6 C 0,0 km/h (0 Bft) 98,00 %
12.12.2018 23:44 -0,6 C 3,9 C -0,6 C 96 % 1020,8 hPa 0,0 l/m 0,0 km/h (0 Bft) W-SW 247 0 min 0,000 mm 0,0 UV-I 0 W/m -1,2 C -0,6 C 0,0 km/h (0 Bft) 98,00 %
12.12.2018 23:46 -0,6 C 3,9 C -0,6 C 96 % 1020,8 hPa 0,0 l/m 0,0 km/h (0 Bft) W-SW 247 0 min 0,000 mm 0,0 UV-I 0 W/m -1,2 C -0,6 C 0,0 km/h (0 Bft) 96,00 %
12.12.2018 23:48 -0,6 C 3,9 C -0,6 C 96 % 1020,8 hPa 0,0 l/m 0,0 km/h (0 Bft) W-SW 247 0 min 0,000 mm 0,0 UV-I 0 W/m -1,2 C -0,6 C 0,0 km/h (0 Bft) 92,31 %
12.12.2018 23:50 -0,6 C 3,9 C -0,6 C 96 % 1020,8 hPa 0,0 l/m 0,0 km/h (0 Bft) W-SW 247 0 min 0,000 mm 0,0 UV-I 0 W/m -1,2 C -0,6 C 0,0 km/h (0 Bft) 97,87 %
12.12.2018 23:52 -0,6 C 3,9 C -0,6 C 96 % 1020,8 hPa 0,0 l/m 0,0 km/h (0 Bft) W-SW 247 0 min 0,000 mm 0,0 UV-I 0 W/m -1,2 C -0,6 C 0,0 km/h (0 Bft) 90,00 %
12.12.2018 23:54 -0,6 C 3,9 C -0,6 C 96 % 1020,8 hPa 0,0 l/m 0,0 km/h (0 Bft) W-SW 247 0 min 0,000 mm 0,0 UV-I 0 W/m -1,2 C -0,6 C 0,0 km/h (0 Bft) 98,00 %
12.12.2018 23:56 -0,6 C 3,9 C -0,6 C 96 % 1020,8 hPa 0,0 l/m 0,0 km/h (0 Bft) W-SW 247 0 min 0,000 mm 0,0 UV-I 0 W/m -1,2 C -0,6 C 0,0 km/h (0 Bft) 97,87 %
12.12.2018 23:58 -0,6 C 3,9 C -0,6 C 96 % 1020,7 hPa 0,0 l/m 0,0 km/h (0 Bft) W-SW 247 0 min 0,000 mm 0,0 UV-I 0 W/m -1,2 C -0,6 C 0,0 km/h (0 Bft) 95,74 %
_ Min-Zeit 23:29 00:00 22:16 15:16 00:52 - 19:12 - - - - - - 23:29 04:38 19:12 19:36
Minimum _ -0,6 C 3,9 C -1,1 C 90 % 1019,2 hPa - 0,0 km/h (0 Bft) - - - - - - -1,2 C -11,3 C 0,0 km/h (0 Bft) 86,67 %
_ Max-Zeit 11:22 00:00 11:16 19:50 10:32 19:38 00:24 - - 15:49 12:02 00:00 10:48 11:22 10:20 00:24 00:00
Maximum _ 2,2 C 3,9 C 4,4 C 97 % 1021,6 hPa 0,4 l/m 26,4 km/h
SW (4 Bft)
- - 3 min 0,051 mm 0,0 UV-I 270 W/m 1,5 C 1,1 C 37,0 km/h
W-SW (5 Bft)
100,00 %
Durchschnitt _ 0,8 C 3,9 C 0,7 C 95 % 1020,5 hPa #7,0 l/m 10,9 km/h (2 Bft) W-SW - #1:16 h #0,229 mm 0,0 UV-I 69 W/m 0,1 C -3,7 C 16,3 km/h (3 Bft) 97,29 %